     2.11           OBSERVATION DATA    G (GPS)             RINEX VERSION / TYPE
teqc 2010Oct21 OPUS Account 20111028 21:13:20UTC            PGM / RUN BY / DATE
C 1528                                                      MARKER NAME
3087                                                        MARKER NUMBER
CSMIDDLETON NGS                                             OBSERVER / AGENCY
0220390614 TRIMBLE R7 2.32                                  REC # / TYPE / VERS
60165452 TRM41249.00 NONE                                   ANT # / TYPE
  -698749.9746 -5593551.3819  2974006.1035                  APPROX POSITION XYZ
        2.0000        0.0000        0.0000                  ANTENNA: DELTA H/E/N
     1     1                                                WAVELENGTH FACT L1/2
     5    L1    L2    C1    P1    P2                        # / TYPES OF OBSERV
    15                                                      LEAP SECONDS
  2011     8    29     0     0   30.0000000     GPS         TIME OF FIRST OBS
                                                            END OF HEADER
 11  8 29  0  0 30.0000000  0  8G12G10G09G17G05G04G25G02
 -39993646.61358 -30616744.87155  21172386.4224                   21172384.2504
 -54960050.58258 -42785490.57456  20958011.3834                   20958009.7344
 -42660856.15256 -31540959.62153  24202768.5784                   24202771.4774
 -96572923.61356 -75208425.11354  23527071.2194                   23527071.9694
 -34927646.31258 -27203331.85256  21432767.4844                   21432766.7584
 -74772881.16057 -58220289.80555  22217223.2194                   22217222.8914
 -11192354.69957  -8309618.49654  23596036.6804                   23596037.5864
 -63291570.61358 -49304652.95756  20698315.0944                   20698311.0204
 11  8 29  0  1  0.0000000  0  8G12G10G09G17G05G04G25G02
 -40134916.17247 -30726825.03146  21145503.7344                   21145501.5824
 -55032404.94948 -42841870.59446  20944242.8204                   20944241.6764
 -42675608.35246 -31552454.91043  24199960.8134                   24199964.8324
 -96611200.57446 -75238251.39544  23519787.5864                   23519787.6454
 -35100696.01248 -27338175.70746  21399837.2734                   21399836.1684
 -74788837.69148 -58232723.50845  22214186.8834                   22214185.9184
 -11380335.18747  -8456096.77744  23560264.3984                   23560266.0864
 -63378990.80548 -49372772.57446  20681679.6724                   20681675.9694
 11  8 29  0  1 30.0000000  0  8G12G10G09G17G05G04G25G02
 -40275640.85247 -30836480.60546  21118724.6094                   21118723.0354
 -55104092.66848 -42897731.14846  20930600.8984                   20930599.8754
 -42690259.64846 -31563871.62543  24197173.2584                   24197176.6174
 -96649252.45346 -75267902.27344  23512546.7894                   23512547.5314
 -35273297.52348 -27472670.32446  21366992.4304                   21366991.2544
 -74804676.41448 -58245065.41445  22211172.7344                   22211172.3094
 -11568007.28547  -8602334.75444  23524551.9144                   23524552.9494
 -63466121.00048 -49440666.21946  20665099.2034                   20665095.3674
 11  8 29  0  2  0.0000000  0  8G12G10G09G17G05G04G25G02
 -40415830.02347 -30945718.89846  21092047.1414                   21092045.1914
 -55175125.42648 -42953081.34846  20917084.0784                   20917082.6094
 -42704824.36746 -31575220.88343  24194401.5084                   24194405.6334
 -96687089.97346 -75297386.16044  23505347.3364                   23505347.4144
 -35445459.36748 -27606822.34446  21334230.7894                   21334230.3524
 -74820410.14548 -58257325.51645  22208179.2034                   22208178.2934
 -11755379.09447  -8748338.73044  23488896.3444                   23488897.6094
 -63552973.35948 -49508343.37546  20648571.8984                   20648567.7584
 11  8 29  0  2 30.0000000  0  8G12G10G09G17G05G04G25G02
 -40555481.40247 -31054538.12546  21065472.6094                   21065470.3244
 -55245504.80548 -43007922.42246  20903691.3914                   20903689.7894
 -42719305.82846 -31586505.30143  24191646.1724                   24191649.5314
 -96724712.97346 -75326702.86744  23498187.9694                   23498188.4654
 -35617179.40248 -27740630.08646  21301553.7974                   21301552.5904
 -74836040.78147 -58269505.27745  22205204.6484                   22205204.3834
 -11942448.41447  -8894107.02344  23453298.3524                   23453299.9494
 -63639549.45748 -49575805.27346  20632097.0394                   20632093.1954
 11  8 29  0  3  0.0000000  0  8G12G10G09G17G05G04G25G02
 -40694591.16447 -31162935.32046  21039001.0314                   21038998.9494
 -55315229.02348 -43062252.98046  20890423.1804                   20890421.6374
 -42733704.74246 -31597725.38743  24188906.0314                   24188909.5904
 -96762118.48846 -75355850.11744  23491069.3444                   23491070.7664
 -35788452.54748 -27874089.60946  21268961.7274                   21268960.5354
 -74851567.37147 -58281603.96945  22202250.2504                   22202249.8714
 -12129209.96547  -9039635.48044  23417758.3834                   23417759.7814
 -63725847.96548 -49643050.87546  20615674.9774                   20615671.0164
 11  8 29  0  3 30.0000000  0  8G12G10G09G17G05G04G25G02
 -40833160.21947 -31270911.18746  21012631.7814                   21012629.5594
 -55384301.75848 -43116075.88746  20877279.2424                   20877277.5474
 -42748027.37146 -31608885.98443  24186180.2974                   24186184.6134
 -96799308.65646 -75384829.56644  23483992.1254                   23483992.9304
 -35959278.87948 -28007200.97746  21236454.1954                   21236453.3134
 -74866994.33247 -58293625.01645  22199314.4144                   22199314.6914
 -12315663.82847  -9184924.19544  23382277.6644                   23382278.7234
 -63811872.95748 -49710083.32846  20599304.9304                   20599301.2624
 11  8 29  0  4  0.0000000  0  8G12G10G09G17G05G04G25G02
 -40971185.66447 -31378463.46146  20986366.3754                   20986364.3054
 -55452722.89848 -43169391.04746  20864258.6804                   20864257.3554
 -42762275.89846 -31619988.88743  24183469.5554                   24183472.9654
 -96836281.96546 -75413640.02044  23476955.8444                   23476957.0634
 -36129655.10248 -28139961.60246  21204033.0704                   21204031.8874
 -74882322.10247 -58305568.79345  22196397.5784                   22196397.5634
 -12501806.35247  -9329970.30944  23346855.3984                   23346857.1414
 -63897624.60948 -49776902.78546  20582986.8594                   20582982.7774
 11  8 29  0  4 30.0000000  0  8G12G10G09G17G05G04G25G02
 -41108664.22348 -31485589.57846  20960205.5234                   20960203.2704
 -55520492.14848 -43222198.25446  20851362.7194                   20851361.0314
 -42776451.87946 -31631035.24643  24180772.0864                   24180776.1764
 -96873037.13746 -75442280.52344  23469961.8594                   23469963.6684
 -36299577.12548 -28272368.31246  21171697.5784                   21171696.8674
 -74897551.15647 -58317435.63345  22193499.5394                   22193499.5274
 -12687633.46947  -9474770.59445  23311493.2894                   23311496.2154
 -63983102.59448 -49843509.01646  20566721.0784                   20566717.3324
 11  8 29  0  5  0.0000000  0  8G12G10G09G17G05G04G25G02
 -41245593.58247 -31592287.75846  20934148.5234                   20934146.5594
 -55587609.85248 -43274497.77046  20838590.6564                   20838589.3594
 -42790557.77346 -31642026.99643  24178087.6644                   24178092.0594
 -96909572.96946 -75470750.07444  23463009.6644                   23463010.8754
 -36469041.85948 -28404418.68046  21139449.6094                   21139448.4924
 -74912682.17247 -58329226.07445  22190620.6804                   22190620.5704
 -12873141.79347  -9619322.49244  23276192.7974                   23276195.0984
 -64068307.67648 -49909902.59846  20550507.2114                   20550503.4494
 11  8 29  0  5 30.0000000  0  8G12G10G09G17G05G04G25G02
 -39806552.44148 -30470956.98446  21207989.1094                   21207986.6884
 -54078660.25048 -42098692.87546  21125734.2664                   21125733.1604
 -41229182.03146 -30425370.69543  24475208.1954                   24475212.6414
 -95370472.89847 -74271451.41844  23755890.9144                   23755892.2464
 -35062626.94548 -27308510.88746  21407081.4304                   21407080.1954
 -73352301.70747 -57113345.22745  22487550.9534                   22487550.7304
 -11482907.88347  -8536023.32045  23540745.5314                   23540747.3164
 -62577823.50048 -48748486.35546  20834136.7274                   20834132.7234
 11  8 29  0  6  0.0000000  0  8G12G10G09G17G05G04G25G02
 -39942382.67248 -30576798.71546  21182141.4844                   21182138.7974
 -54144482.71948 -42149983.12946  21113209.0164                   21113207.3914
 -41243162.84446 -30436264.96543  24472548.2194                   24472551.9184
 -95406573.04347 -74299581.49244  23749021.4924                   23749022.4344
 -35231175.09848 -27439847.04746  21375007.3594                   21375006.3444
 -73367246.34047 -57124990.44545  22484707.1884                   22484706.6054
 -11667775.62147  -8680076.05945  23505566.0084                   23505567.5044
 -62662490.87548 -48814460.93046  20818025.1024                   20818021.1254
 11  8 29  0  6 30.0000000  0  8G12G10G09G17G05G04G25G02
 -40077661.42648 -30682210.71946  21156398.7424                   21156396.1214
 -54209659.73848 -42200770.40646  21100805.8914                   21100804.6254
 -41257086.12146 -30447114.39143  24469897.5234                   24469901.7974
 -95442455.66847 -74327542.02044  23742192.9694                   23742194.3014
 -35399261.65648 -27570823.52046  21343021.7894                   21343020.6414
 -73382100.74647 -57136565.35545  22481880.9384                   22481879.8324
 -11852319.47347  -8823876.40244  23470448.5704                   23470450.0634
 -62746891.78548 -48880227.87146  20801964.1024                   20801960.2934
 11  8 29  0  7  0.0000000  0  8G12G10G09G17G05G04G25G02
 -40212387.53948 -30787192.11346  21130761.1954                   21130758.9454
 -54274193.01648 -42251056.08246  21088525.5704                   21088524.5434
 -41270956.04046 -30457922.24743  24467258.6024                   24467262.6174
 -95478120.85547 -74355333.13744  23735406.6024                   23735407.8404
 -35566884.75848 -27701438.86346  21311124.3204                   21311123.2234
 -73396867.16047 -57148071.70345  22479070.7584                   22479070.1454
 -12036537.61747  -8967422.96144  23435392.7894                   23435394.7814
 -62831028.21148 -48945788.71546  20785953.5234                   20785949.3794
 11  8 29  0  7 30.0000000  0  8G12G10G09G17G05G04G25G02
 -40346557.61748 -30891740.21546  21105229.3284                   21105227.5204
 -54338082.14148 -42300839.82446  21076367.9534                   21076366.8054
 -41284774.10546 -30468689.75043  24464628.9064                   24464632.7544
 -95513566.46547 -74382953.15244  23728661.6174                   23728661.7584
 -35734040.51248 -27831690.04346  21279315.5394                   21279314.5824
 -73411545.14847 -57159509.13345  22476277.5234                   22476277.1604
 -12220425.59447  -9110712.24244  23400400.3524                   23400401.8714
 -62914899.73448 -49011143.15246  20769993.2664                   20769989.0744
 11  8 29  0  8  0.0000000  0  8G12G10G09G17G05G04G25G02
 -40480170.27748 -30995853.96946  21079804.0944                   21079801.8444
 -54401328.75448 -42350122.91046  21064332.5704                   21064331.1214
 -41298543.98046 -30479419.72343  24462010.3444                   24462012.7154
 -95548792.61747 -74410402.19144  23721958.3754                   23721959.5394
 -35900726.91448 -27961575.49246  21247595.9224                   21247595.0664
 -73426136.89147 -57170879.35945  22473500.8594                   22473500.5784
 -12403981.17247  -9253742.48844  23365470.8914                   23365472.5354
 -62998507.68048 -49076292.19546  20754083.0784                   20754078.9064
 11  8 29  0  8 30.0000000  0  8G12G10G09G17G05G04G25G02
 -40613224.41448 -31099532.52046  21054484.5864                   21054482.8054
 -54463934.70748 -42398906.76246  21052419.0004                   21052417.3244
 -41312269.01246 -30490114.76243  24459398.0474                   24459401.6174
 -95583799.67647 -74437680.47344  23715296.4304                   23715297.5044
 -36066942.02748 -28091093.71146  21215966.0474                   21215965.2934
 -73440644.20347 -57182183.78545  22470740.3834                   22470740.1524
 -12587202.21947  -9396512.06244  23330604.6954                   23330606.8054
 -63081853.75448 -49141237.18446  20738222.9614                   20738219.0704
 11  8 29  0  9  0.0000000  0  8G12G10G09G17G05G04G25G02
 -40745719.74648 -31202775.64546  21029271.5394                   21029269.4804
 -54525902.21148 -42447193.12546  21040626.9924                   21040625.6524
 -41325953.55146 -30500778.19943  24456794.1484                   24456798.1684
 -95618588.18046 -74464788.43444  23708676.6254                   23708677.3554
 -36232684.80548 -28220243.85946  21184426.2814                   21184425.3164
 -73455070.06247 -57193424.75845  22467995.1724                   22467994.5904
 -12770087.24647  -9539019.81644  23295803.2034                   23295804.6024
 -63164940.71548 -49205980.25046  20722411.8674                   20722407.9774
 11  8 29  0  9 30.0000000  0  8G12G10G09G17G05G04G25G02
 -40877649.57448 -31305578.11346  21004166.3524                   21004163.9734
 -54587227.50448 -42494979.06646  21028957.2734                   21028955.1764
 -41339595.88346 -30511408.75044  24454197.8284                   24454202.7304
 -95653152.69947 -74491721.89844  23702099.6414                   23702100.3164
 -36397947.82048 -28349020.18746  21152978.1414                   21152976.8914
 -73469410.82047 -57204599.42244  22465266.2274                   22465265.5704
 -12952628.67247  -9681259.82044  23261066.5394                   23261067.6094
 -63247764.69548 -49270518.41846  20706651.1174                   20706647.0554
 11  8 29  0 10  0.0000000  0  8G12G10G09G17G05G04G25G02
 -41009012.73448 -31407939.03546  20979168.0084                   20979166.2854
 -54647912.68748 -42542266.21546  21017409.1804                   21017407.4734
 -41353199.62546 -30522009.24244  24451609.4224                   24451613.9654
 -95687493.43046 -74518480.98444  23695563.7814                   23695565.0984
 -36562729.31248 -28477421.27746  21121621.2114                   21121619.6374
 -73483668.23047 -57215709.14545  22462553.7504                   22462552.2344
 -13134824.26247  -9823230.35245  23226395.9384                   23226397.1724
 -63330327.09048 -49334852.72746  20690939.9694                   20690936.0434
 11  8 29  0 10 30.0000000  0  8G12G10G09G17G05G04G25G02
 -41139808.83648 -31509858.07446  20954278.6254                   20954276.8364
 -54707960.16848 -42589056.46146  21005982.4774                   21005981.1174
 -41366769.31646 -30532583.20743  24449027.3054                   24449031.6724
 -95721611.86347 -74545066.82443  23689071.9304                   23689072.1024
 -36727028.28148 -28605446.38746  21090355.7664                   21090354.4494
 -73497845.63347 -57226756.51245  22459855.6954                   22459854.6724
 -13316672.86347  -9964930.49244  23191790.9774                   23191792.2894
 -63412630.66848 -49398985.35946  20675278.1484                   20675274.1604
 11  8 29  0 11  0.0000000  0  8G12G10G09G17G05G04G25G02
 -41270034.61748 -31611332.72746  20929497.8984                   20929495.0044
 -54767369.23848 -42635349.24646  20994677.2664                   20994675.8914
 -41380306.24646 -30543131.66443  24446451.6254                   24446455.5084
 -95755505.30946 -74571477.40243  23682622.3674                   23682622.9924
 -36890840.31648 -28733092.07446  21059183.3134                   21059182.4774
 -73511942.09447 -57237740.80545  22457172.8134                   22457172.3094
 -13498169.72747 -10106356.57444  23157253.4224                   23157254.5704
 -63494674.71148 -49462915.76646  20659665.5394                   20659661.7544
 11  8 29  0 11 30.0000000  0  8G12G10G09G17G05G04G25G02
 -41399691.80548 -31712364.32046  20904824.9534                   20904822.5864
 -54826144.83248 -42681148.41046  20983492.6334                   20983491.4614
 -41393816.89146 -30553659.63743  24443880.3054                   24443884.6094
 -95789177.05146 -74597715.17643  23676213.7424                   23676216.3204
 -37054166.68748 -28860359.32846  21028103.1024                   21028102.5314
 -73525962.60247 -57248665.91445  22454504.6564                   22454504.2234
 -13679315.66847 -10247509.22344  23122782.2734                   23122783.6804
 -63576463.76648 -49526647.48046  20644102.0784                   20644098.1174
 11  8 29  0 12  0.0000000  0  8G12G10G09G17G05G04G25G02
 -41528774.97748 -31812948.61346  20880261.1644                   20880258.7814
 -54884284.21148 -42726451.83246  20972428.9694                   20972428.0314
 -41407300.09846 -30564166.21943  24441314.7114                   24441319.2424
 -95822622.64546 -74623776.74644  23669849.7344                   23669851.3634
 -37217001.27048 -28987243.36346  20997116.7344                   20997115.7234
 -73539904.73447 -57259529.95745  22451851.6644                   22451852.0864
 -13860104.16447 -10388383.32845  23088379.5704                   23088380.8134
 -63657995.21948 -49590178.46146  20628586.5634                   20628582.8714
 11  8 29  0 12 30.0000000  0  8G12G10G09G17G05G04G25G02
 -41657280.98848 -31913083.17246  20855807.2194                   20855805.3554
 -54941787.58248 -42771259.66046  20961486.5164                   20961485.3244
 -41420757.83646 -30574652.95343  24438753.4844                   24438758.4264
 -95855840.26246 -74649660.70744  23663528.7734                   23663530.7584
 -37379340.03548 -29113741.05546  20966224.9924                   20966224.1134
 -73553768.59447 -57270333.00444  22449213.3594                   22449213.4384
 -14040531.14147 -10528975.73845  23054045.2664                   23054046.9064
 -63739268.79748 -49653508.50446  20613120.9144                   20613116.7154
 11  8 29  0 13  0.0000000  0  8G12G10G09G17G05G04G25G02
 -41785210.11348 -32012768.21146  20831463.0164                   20831461.0394
 -54998657.63748 -42815573.99246  20950664.3914                   20950663.2074
 -41434194.27046 -30585123.05943  24436197.6564                   24436202.0784
 -95888831.09046 -74675367.94944  23657251.8134                   23657252.5704
 -37541182.68448 -29239852.14846  20935426.9774                   20935425.9534
 -73567556.43747 -57281076.80545  22446589.5634                   22446590.0084
 -14220595.21547 -10669285.37545  23019780.0634                   23019781.9964
 -63820286.66048 -49716639.28546  20597703.3284                   20597700.0234
 11  8 29  0 13 30.0000000  0  8G12G10G09G17G05G04G25G02
 -40337136.37148 -30884399.05546  21107021.9384                   21107020.2304
 -53479473.74648 -41631794.34046  21239755.8594                   21239754.5944
 -39872191.96146 -29367978.62543  24733436.9304                   24733441.7544
 -94346173.77046 -73473297.40244  23950809.8054                   23950810.8204
 -36127101.40248 -28137970.57846  21204517.9144                   21204516.6804
 -72005849.63347 -56064162.44545  22743773.0394                   22743772.8164
 -12824867.78947  -9581705.52345  23285378.4224                   23285379.6214
 -62325627.71548 -48551969.94946  20882127.5234                   20882124.1524
 11  8 29  0 14  0.0000000  0  8G12G10G09G17G05G04G25G02
 -40463904.34448 -30983179.28546  21082899.6334                   21082897.3794
 -53535078.80948 -41675122.96546  21229174.1334                   21229173.1764
 -39885592.79746 -29378421.02742  24730886.1954                   24730890.8404
 -94378707.62146 -73498648.53944  23944618.9454                   23944620.1214
 -36287941.92648 -28263300.80146  21173911.0084                   21173909.8054
 -72019487.99247 -56074789.78945  22741177.9454                   22741177.2584
 -13004195.80947  -9721441.59845  23251253.0314                   23251255.0904
 -62406135.90248 -48614703.58646  20866807.7504                   20866803.7974
 11  8 29  0 14 30.0000000  0  8G12G10G09G17G05G04G25G02
 -40590089.16848 -31081505.12546  21058887.1414                   21058884.7034
 -53590053.23848 -41717960.19946  21218713.3674                   21218712.0314
 -39898979.96146 -29388852.85542  24728338.8674                   24728343.6684
 -94411012.47346 -73523821.23044  23938470.3364                   23938472.5124
 -36448277.66848 -28388237.68046  21143400.2274                   21143398.6884
 -72033053.25447 -56085360.18045  22738596.8054                   22738595.7584
 -13183151.52747  -9860887.56245  23217199.3054                   23217200.6884
 -62486390.79748 -48677239.86746  20851535.7814                   20851531.7704
 11  8 29  0 15  0.0000000  0  8G12G10G09G17G05G04G25G02
 -40715689.34448 -31179375.37946  21034985.9304                   21034983.8634
 -53644398.55948 -41760307.19546  21208371.9064                   21208370.3524
 -39912356.38746 -29399276.31642  24725794.9844                   24725798.3794
 -94443087.59446 -73548814.91844  23932367.1254                   23932368.9264
 -36608106.39548 -28512779.48846  21112985.6024                   21112984.0004
 -72046546.72747 -56095874.62944  22736028.4064                   22736028.5824
 -13361732.12147 -10000041.24245  23183215.9534                   23183217.3754
 -62566393.43748 -48739579.58646  20836311.5164                   20836307.6724
 11  8 29  0 15 30.0000000  0  8G12G10G09G17G05G04G25G02
 -40840702.71948 -31276788.38746  21011196.7664                   21011194.2274
 -53698115.53948 -41802164.58646  21198149.9144                   21198148.3874
 -39925724.23046 -29409693.05542  24723249.8134                   24723255.3984
 -94474931.87546 -73573628.72344  23926308.0784                   23926309.5594
 -36767425.00048 -28636923.79346  21082668.3754                   21082666.8674
 -72059968.64147 -56106333.28544  22733474.0394                   22733474.2664
 -13539933.95347 -10138899.77045  23149305.4694                   23149306.8634
 -62646143.69948 -48801722.64846  20821135.5864                   20821131.3554
 11  8 29  0 16  0.0000000  0  8G12G10G09G17G05G04G25G02
 -40965128.64548 -31373743.63346  20987519.3284                   20987517.2934
 -53751207.03948 -41843534.59446  21188046.8914                   21188045.3834
 -39939087.72746 -29420106.36342  24720707.1884                   24720713.3054
 -94506545.83246 -73598263.05944  23920291.7194                   23920294.1764
 -36926232.92648 -28760670.16846  21052448.3914                   21052446.6954
 -72073321.57047 -56116738.19544  22730932.8834                   22730933.1604
 -13717755.65647 -10277462.10245  23115467.3284                   23115468.1844
 -62725644.16448 -48863671.06246  20806007.1174                   20806003.3014
 11  8 29  0 16 30.0000000  0  8G12G10G09G17G05G04G25G02
 -41088963.01648 -31470237.93046  20963954.3054                   20963952.2584
 -53803670.78548 -41884415.43046  21178063.3674                   21178061.7624
 -39952446.21546 -29430515.74643  24718165.8524                   24718171.2424
 -94537926.06246 -73622715.25044  23914321.0474                   23914322.3014
 -37084524.09448 -28884013.88346  21022326.3674                   21022325.0204
 -72086603.45347 -56127087.74645  22728406.1724                   22728406.0354
 -13895191.23847 -10415723.54745  23081702.3524                   23081703.5314
 -62804892.62548 -48925423.10946  20790926.7194                   20790922.6294
 11  8 29  0 17  0.0000000  0  8G12G10G09G17G05G04G25G02
 -41212205.06248 -31566270.67246  20940502.3594                   20940500.0124
 -53855509.58648 -41924809.30146  21168198.9304                   21168197.1604
 -39965804.04346 -29440924.59843  24715623.7274                   24715629.8444
 -94569073.53946 -73646986.09444  23908394.0864                   23908394.7734
 -37242297.37148 -29006954.04346  20992303.0864                   20992301.4614
 -72099816.74247 -56137383.85245  22725892.2114                   22725891.7424
 -14072239.12548 -10553682.91045  23048011.4064                   23048012.5234
 -62883891.35948 -48986980.55146  20775893.9224                   20775889.8954
 11  8 29  0 17 30.0000000  0  8G12G10G09G17G05G04G25G02
 -41334855.44148 -31661842.38346  20917162.5634                   20917160.2114
 -53906727.05148 -41964719.02346  21158452.3364                   21158451.0124
 -39979165.78947 -29451336.50042  24713081.6334                   24713086.6804
 -94599989.70347 -73671076.67644  23902511.1334                   23902512.0474
 -37399552.80148 -29129490.69146  20962378.0634                   20962376.9024
 -72112964.39847 -56147628.83244  22723390.0554                   22723389.0824
 -14248898.48448 -10691339.52745  23014394.3054                   23014395.3204
 -62962643.48848 -49048345.84446  20760907.6884                   20760903.8754
 11  8 29  0 18  0.0000000  0  8G12G10G09G17G05G04G25G02
 -41456913.82848 -31756952.80546  20893935.6254                   20893933.1334
 -53957325.89848 -42004146.70746  21148823.5944                   21148822.0234
 -39992535.80246 -29461754.92443  24710537.7584                   24710542.8014
 -94630675.56247 -73694987.81644  23896671.7584                   23896672.8324
 -37556289.59448 -29251623.21546  20932551.9064                   20932550.6174
 -72126049.02347 -56157824.70744  22720899.5704                   22720898.6764
 -14425168.05148 -10828692.41445  22980850.8754                   22980852.3444
 -63041150.94148 -49109520.49246  20745968.2504                   20745964.6844
 11  8 29  0 18 30.0000000  0  8G12G10G09G17G05G04G25G02
 -41578379.25448 -31851601.18046  20870821.5474                   20870819.4774
 -54007308.18048 -42043093.94946  21139312.3284                   21139310.7424
 -40005917.55946 -29472182.45343  24707991.0704                   24707996.1764
 -94661131.23846 -73718719.60944  23890875.7274                   23890877.3444
 -37712505.86348 -29373350.12546  20902825.1024                   20902823.7894
 -72139072.37547 -56167972.82044  22718422.0004                   22718420.4534
 -14601045.52748 -10965739.75845  22947382.4384                   22947384.3594
 -63119415.46548 -49170505.83646  20731075.0474                   20731071.1374
 11  8 29  0 19  0.0000000  0  8G12G10G09G17G05G04G25G02
 -41699247.83248 -31945784.47346  20847820.8914                   20847818.7894
 -54056672.23048 -42081559.45346  21129918.5164                   21129917.1914
 -40019310.50446 -29482618.72343  24705443.0084                   24705447.3164
 -94691353.05146 -73742269.12944  23885123.6024                   23885126.3794
 -37868196.22748 -29494667.23846  20873198.0554                   20873196.8404
 -72152032.09447 -56178071.35944  22715955.1094                   22715954.9264
 -14776524.90247 -11102476.89845  22913989.6954                   22913991.2854
 -63197434.94548 -49231300.22746  20716228.4924                   20716224.5354
 11  8 29  0 19 30.0000000  0  8G12G10G09G17G05G04G25G02
 -41819520.12148 -32039503.13346  20824933.9304                   20824931.8444
 -54105422.09448 -42119546.36346  21120641.6094                   21120640.1524
 -40032720.23046 -29493068.02343  24702891.7344                   24702895.9304
 -94721343.12146 -73765638.08644  23879417.9454                   23879419.6684
 -38023361.03948 -29615574.84446  20843671.1804                   20843669.5944
 -72164932.21547 -56188123.43444  22713500.6174                   22713500.2894
 -14951606.00847 -11238903.71145  22880673.1334                   22880674.2074
 -63275212.87948 -49291906.41046  20701427.7424                   20701423.8404
 11  8 29  0 20  0.0000000  0  8G12G10G09G17G05G04G25G02
 -41939192.39548 -32132754.25846  20802161.1174                   20802158.6564
 -54153556.80148 -42157053.93746  21111482.2664                   21111481.0434
 -40046146.73046 -29503530.41843  24700336.6644                   24700341.5824
 -94751098.63747 -73788824.26244  23873756.3134                   23873756.8954
 -38177995.34048 -29736069.04346  20814245.3524                   20814243.7154
 -72177770.91847 -56198127.66844  22711057.4924                   22711058.0354
 -15126283.57048 -11375016.07845  22847433.1954                   22847434.1334
 -63352747.61348 -49352323.08646  20686673.2974                   20686669.7034
 11  8 29  0 20 30.0000000  0  8G12G10G09G17G05G04G25G02
 -42058262.90248 -32225536.46946  20779502.9774                   20779500.8594
 -54201077.87148 -42194083.33646  21102438.7734                   21102437.9614
 -40059592.53946 -29514007.87143  24697777.8364                   24697783.2854
 -94780618.97347 -73811827.21544  23868139.0164                   23868138.7624
 -38332097.12148 -29856148.29746  20784920.6414                   20784919.3484
 -72190549.25847 -56208084.84044  22708626.0784                   22708626.1844
 -15300554.50048 -11510811.57045  22814270.6414                   22814271.5904
 -63430040.00048 -49412550.92646  20671965.4924                   20671961.7234
 11  8 29  0 21  0.0000000  0  8G12G10G09G17G05G04G25G02
 -42176729.54748 -32317848.13346  20756959.3364                   20756957.1644
 -54247986.35548 -42230635.41446  21093512.7504                   21093511.0904
 -40073059.69146 -29524501.94943  24695215.3134                   24695221.2154
 -94809903.03547 -73834646.02343  23862566.2114                   23862566.6884
 -38485663.25848 -29975810.17646  20755697.7344                   20755696.4454
 -72203267.49647 -56217995.19945  22706205.8594                   22706205.9184
 -15474415.45348 -11646287.61345  22781185.8284                   22781186.7464
 -63507090.09048 -49472589.96146  20657303.2664                   20657298.9184
 11  8 29  0 21 30.0000000  0  8G12G10G09G17G05G04G25G02
 -42294588.36748 -32409686.16846  20734531.5944                   20734528.9024
 -54294281.00048 -42266709.16846  21084703.4774                   21084701.7664
 -40086548.27346 -29535012.75443  24692649.1414                   24692653.8324
 -94838947.44546 -73857278.09443  23857038.7194                   23857039.5164
 -38638688.87548 -30095050.85946  20726577.7664                   20726576.5554
 -72215923.92247 -56227857.38344  22703797.5784                   22703797.9694
 -15647860.86748 -11781439.85945  22748180.7034                   22748181.4414
 -63583896.26248 -49532438.93446  20642687.2344                   20642683.2734
 11  8 29  0 22  0.0000000  0  8G12G10G09G17G05G04G25G02
 -40836416.93448 -31273448.68746  21012012.2194                   21012010.1644
 -52764544.16448 -41074706.44146  21375802.6564                   21375800.6564
 -38524642.98846 -28317943.91043  24989868.5234                   24989875.0704
 -93292333.66846 -72652124.54343  24151349.2114                   24151350.9264
 -37215749.32448 -28986266.73846  20997354.6254                   20997352.9384
 -70653101.68447 -55010073.87144  23001193.1414                   23001192.8134
 -14245464.84848 -10688663.72745  23015047.3444                   23015048.1024
 -62085039.57448 -48364498.65646  20927910.2814                   20927906.3554
 11  8 29  0 22 30.0000000  0  8G12G10G09G17G05G04G25G02
 -40953066.09848 -31364344.14146  20989814.9774                   20989812.4884
 -52809625.57448 -41109834.82846  21367224.1094                   21367222.4774
 -38538192.30146 -28328501.99243  24987291.0474                   24987296.3364
 -93320908.03546 -72674390.31243  24145911.2894                   24145913.9184
 -37367697.52048 -29104667.88346  20968439.5004                   20968438.0474
 -70665647.43747 -55019849.83244  22998805.8754                   22998805.2774
 -14418080.96948 -10823169.76245  22982199.8444                   22982200.7734
 -62161370.82848 -48423977.55546  20913384.8674                   20913380.8834
 11  8 29  0 23  0.0000000  0  7G12G10G17G05G04G25G02
 -41069106.79748 -31454765.45746  20967732.9144                   20967730.5944
 -52854101.08648 -41144491.07446  21358760.5314                   21358758.9454
 -93349244.57846 -72696470.81643  24140519.1024                   24140521.7934
 -37519101.55548 -29222644.99646  20939628.4224                   20939626.5354
 -70678137.17647 -55029582.13744  22996428.2114                   22996428.2704
 -14590276.16448 -10957347.80545  22949431.9384                   22949433.1334
 -62237463.89148 -48483270.83646  20898904.8284                   20898900.9924
 11  8 29  0 23 30.0000000  0  7G12G10G17G05G04G25G02
 -41184534.70748 -31544709.27746  20945767.7194                   20945765.2384
 -52897969.69947 -41178674.40246  21350412.6174                   21350410.8634
 -93377340.41446 -72718363.75043  24135173.3984                   24135175.1604
 -37669957.03548 -29340194.68046  20910921.4304                   20910920.1174
 -70690569.46147 -55039269.68044  22994063.1724                   22994062.7974
 -14762045.24247 -11091193.80145  22916744.9064                   22916746.2814
 -62313316.93048 -48542377.10246  20884470.4384                   20884466.6724
 11  8 29  0 24  0.0000000  0  7G12G10G17G05G04G25G02
 -41299350.26648 -31634175.95346  20923919.1414                   20923916.6994
 -52941234.52047 -41212387.25846  21342179.1644                   21342178.2234
 -93405196.77346 -72740070.05543  24129872.9454                   24129873.7234
 -37820263.52048 -29457316.56246  20882318.9384                   20882317.2974
 -70702946.86347 -55048914.45744  22991707.6094                   22991707.6094
 -14933386.87948 -11224706.73445  22884139.8914                   22884141.1994
 -62388932.51648 -48601298.32046  20870081.2344                   20870077.3714
 11  8 29  0 24 30.0000000  0  7G12G10G17G05G04G25G02
 -41413545.34048 -31723159.12146  20902188.4844                   20902186.4344
 -52983890.61347 -41245625.78546  21334061.8134                   21334060.7034
 -93432806.37946 -72761584.10243  24124619.8834                   24124619.1564
 -37970011.66448 -29574003.37946  20853822.7274                   20853821.5084
 -70715262.95747 -55058511.44944  22989363.9924                   22989364.0234
 -15104291.42248 -11357879.07045  22851617.7664                   22851618.9734
 -62464304.78548 -48660029.94146  20855738.2194                   20855734.5514
 11  8 29  0 25  0.0000000  0  7G12G10G17G05G04G25G02
 -41527119.66448 -31811658.57846  20880575.8444                   20880573.5944
 -53025939.99247 -41278391.53546  21326060.4844                   21326059.3524
 -93460169.58846 -72782906.17143  24119411.7584                   24119412.5274
 -38119200.21148 -29690254.14846  20825433.1414                   20825431.6914
 -70727519.66847 -55068062.19944  22987031.5474                   22987031.8834
 -15274756.89547 -11490709.27346  22819179.3834                   22819180.3284
 -62539435.18048 -48718573.09846  20841441.4534                   20841437.5664
 11  8 29  0 25 30.0000000  0  7G12G10G17G05G04G25G02
 -41640072.54748 -31899673.80946  20859081.7114                   20859079.3954
 -53067385.66048 -41310686.86345  21318173.6884                   21318172.2154
 -93487286.62346 -72804036.43443  24114252.0004                   24114253.0354
 -38267828.07448 -29806068.02046  20797150.2424                   20797148.6564
 -70739718.98047 -55077568.19144  22984710.3284                   22984710.6644
 -15444781.46947 -11623195.92645  22786824.5004                   22786825.5904
 -62614325.41048 -48776929.11746  20827190.5004                   20827186.4694
 11  8 29  0 26  0.0000000  0  7G12G10G17G05G04G25G02
 -41752404.53148 -31987205.23046  20837705.6414                   20837703.2274
 -53108230.74648 -41342514.20346  21310400.8204                   21310399.5314
 -93514159.18046 -72824976.18444  24109138.2034                   24109139.5514
 -38415895.15248 -29921444.93046  20768973.9614                   20768972.6764
 -70751863.09047 -55087031.20344  22982399.5004                   22982399.4304
 -15614363.87147 -11755338.02345  22754554.5704                   22754555.1334
 -62688978.22348 -48835100.13346  20812984.3834                   20812980.4304
 11  8 29  0 26 30.0000000  0  7G12G10G17G05G04G25G02
 -41864111.39548 -32074249.53547  20816448.5394                   20816446.3554
 -53148473.89548 -41373872.50045  21302742.7274                   21302741.4804
 -93540783.65647 -72845722.60944  24104072.4534                   24104073.9844
 -38563395.98048 -30036380.59046  20740905.3834                   20740904.1024
 -70763949.73447 -55096449.44944  22980099.9924                   22980099.8484
 -15783498.25048 -11887131.02345  22722368.7344                   22722369.7624
 -62763390.97348 -48893084.08646  20798824.4454                   20798820.4024
 11  8 29  0 27  0.0000000  0  7G12G10G17G05G04G25G02
 -41975195.22348 -32160808.36746  20795309.8834                   20795307.7344
 -53188120.41048 -41404765.90646  21295198.5084                   21295196.9774
 -93567162.91047 -72866277.96544  24099051.7814                   24099053.6174
 -38710331.89548 -30150876.06646  20712944.4614                   20712943.2704
 -70775983.33647 -55105826.32444  22977809.5944                   22977809.9184
 -15952185.26248 -12018575.41845  22690269.1724                   22690270.1684
 -62837568.06648 -48950884.41046  20784708.6564                   20784704.8554
 11  8 29  0 27 30.0000000  0  7G12G10G17G05G04G25G02
 -42085655.10548 -32246880.99646  20774290.2734                   20774287.8794
 -53227172.04348 -41435195.76645  21287767.1334                   21287766.0394
 -93593296.46947 -72886641.87144  24094079.0084                   24094080.6454
 -38856700.75048 -30264929.68046  20685091.1724                   20685089.8404
 -70787964.46547 -55115162.33244  22975529.6254                   22975529.5904
 -16120422.30947 -12149669.20345  22658254.1954                   22658255.9534
 -62911510.37148 -49008501.78546  20770637.9534                   20770633.8204
 11  8 29  0 28  0.0000000  0  7G12G10G17G05G04G25G02
 -42195490.21548 -32332466.80547  20753389.5394                   20753387.1684
 -53265631.05948 -41465163.83245  21280448.6254                   21280447.6604
 -93619184.27747 -72906814.30144  24089153.1024                   24089154.6454
 -39002501.36348 -30378540.50046  20657346.3984                   20657344.7664
 -70799894.37547 -55124458.42644  22973259.4924                   22973259.1884
 -16288206.93448 -12280410.44945  22626326.3204                   22626327.3364
 -62985219.14848 -49065937.18746  20756611.8054                   20756607.7734
 11  8 29  0 28 30.0000000  0  7G12G10G17G05G04G25G02
 -42304696.85248 -32417562.89846  20732607.6414                   20732605.5784
 -53303496.61348 -41494669.46545  21273243.1334                   21273241.7234
 -93644823.84447 -72926793.26644  24084274.1174                   24084275.6644
 -39147729.15248 -30491704.97346  20629710.3444                   20629708.4774
 -70811771.80147 -55133713.64144  22970999.6644                   22970999.2194
 -16455534.03547 -12410795.18045  22594484.7114                   22594485.9654
 -63058692.72748 -49123189.33646  20742630.0164                   20742626.0784
 11  8 29  0 29  0.0000000  0  7G12G10G17G05G04G25G02
 -42413278.64548 -32502172.09046  20711945.2584                   20711942.8914
 -53340774.49248 -41523717.16445  21266149.1564                   21266148.0784
 -93670218.93047 -72946581.74244  24079441.9534                   24079443.3204
 -39292386.18048 -30604424.68446  20602183.1174                   20602180.9844
 -70823601.12947 -55142931.35544  22968748.8674                   22968747.9534
 -16622404.81648 -12540824.33646  22562730.6414                   22562731.5554
 -63131935.97348 -49180261.99646  20728692.3444                   20728688.4414
 11  8 29  0 29 30.0000000  0  7G12G10G17G05G04G25G02
 -42521234.14848 -32586293.27346  20691402.2894                   20691400.1054
 -53377467.03148 -41552308.76645  21259167.2114                   21259165.8874
 -93695368.98847 -72966179.27044  24074655.5394                   24074657.7384
 -39436470.36748 -30716698.03146  20574764.3134                   20574762.8054
 -70835383.34047 -55152112.35544  22966506.4614                   22966506.3754
 -16788816.70348 -12670495.93045  22531063.4454                   22531064.2304
 -63204949.91448 -49237155.98046  20714798.4844                   20714794.2154
 11  8 29  0 30  0.0000000  0  7G12G10G17G05G04G25G02
 -42628567.69148 -32669929.80946  20670977.2974                   20670975.1844
 -53413581.71548 -41580450.08645  21252294.4304                   21252293.5204
 -93720279.06647 -72985589.75444  24069915.3674                   24069917.6214
 -39579985.41048 -30828527.88746  20547454.3444                   20547452.7894
 -70847124.70747 -55161261.53544  22964271.9694                   22964272.1374
 -16954772.59048 -12799812.18745  22499482.3914                   22499483.9494
 -63277740.87548 -49293876.20746  20700946.5474                   20700943.0434
 11  8 29  0 30 30.0000000  0  7G12G10G17G05G04G25G02
 -41159851.85948 -31525475.91846  20950464.4534                   20950462.4534
 -51873695.96548 -40380539.11745  21545325.2114                   21545323.6454
 -92169525.25846 -71777210.18744  24365013.7734                   24365016.2624
 -38147502.07048 -29712307.05946  20820046.9774                   20820045.1764
 -69283402.75847 -53942776.96544  23261838.2664                   23261838.1564
 -15544841.17648 -11701164.32445  22767784.1804                   22767784.8594
 -61774884.13748 -48122819.00446  20986930.7344                   20986926.5164
 11  8 29  0 31  0.0000000  0  7G12G10G17G05G04G25G02
 -41265931.51648 -31608135.40246  20930278.5944                   20930276.0474
 -51908653.00848 -40407778.37945  21538673.4844                   21538671.1764
 -92193947.66446 -71796240.64544  24360366.9064                   24360368.8914
 -38289866.94948 -29823240.69146  20792956.1804                   20792954.4264
 -69295057.68747 -53951858.80144  23259620.4614                   23259620.1884
 -15709869.73448 -11829758.00045  22736379.9774                   22736380.7344
 -61847223.86748 -48179187.62946  20973164.7974                   20973160.8014
 11  8 29  0 31 30.0000000  0  7G12G10G17G05G04G25G02
 -41371386.53548 -31690308.14846  20910210.8524                   20910208.5474
 -51943037.28148 -40434571.33245  21532130.0554                   21532128.5124
 -92218128.87146 -71815083.16444  24355764.4454                   24355767.5044
 -38431656.92248 -29933726.33647  20765974.2504                   20765972.7034
 -69306673.55147 -53960910.21544  23257410.1564                   23257409.7074
 -15874433.61748 -11957989.59446  22705064.4614                   22705065.7154
 -61919342.55948 -48235384.00846  20959441.2344                   20959437.3094
 11  8 29  0 32  0.0000000  0  7G12G10G17G05G04G25G02
 -41476216.07448 -31771993.51246  20890262.4774                   20890260.4884
 -51976851.32047 -40460919.94145  21525695.6254                   21525693.8014
 -92242069.26646 -71833738.06643  24351209.1644                   24351211.3524
 -38572870.64848 -30043762.97747  20739102.2194                   20739100.5784
 -69318251.67246 -53969932.18444  23255207.1414                   23255207.0204
 -16038530.89148 -12085857.59846  22673837.5314                   22673838.7504
 -61991241.45348 -48291409.11746  20945759.1644                   20945755.1884
 11  8 29  0 32 30.0000000  0  7G12G10G17G05G04G25G02
 -41580415.93748 -31853188.21946  20870433.8284                   20870431.7034
 -52010093.49648 -40486822.94945  21519369.9774                   21519368.3914
 -92265764.89146 -71852202.25443  24346700.5164                   24346702.0004
 -38713503.10948 -30153346.67646  20712340.5554                   20712338.8674
 -69329789.46146 -53978922.72344  23253011.0234                   23253011.3754
 -16202155.41847 -12213357.21946  22642701.2194                   22642702.2974
 -62062918.29748 -48347261.20746  20932119.7344                   20932115.7424
 11  8 29  0 33  0.0000000  0  7G12G10G17G05G04G25G02
 -41683984.35548 -31933890.88746  20850725.8364                   20850723.3204
 -52042765.02048 -40512281.29746  21513152.7894                   21513151.3324
 -92289214.55946 -71870474.83243  24342238.1414                   24342240.0044
 -38853551.32848 -30262475.11346  20685690.3284                   20685688.9064
 -69341286.53946 -53987881.55544  23250823.5394                   23250824.0044
 -16365303.66048 -12340485.71146  22611654.9224                   22611656.1054
 -62134372.43448 -48402939.76646  20918522.5314                   20918518.6454
 11  8 29  0 33 30.0000000  0  7G12G10G17G05G04G25G02
 -41786921.54348 -32014101.69946  20831137.2894                   20831135.3094
 -52074868.93748 -40537297.34845  21507043.5314                   21507041.8874
 -92312419.39146 -71888556.56643  24337821.9064                   24337824.2504
 -38993014.66448 -30371147.80547  20659151.3754                   20659149.9024
 -69352744.96946 -53996810.24644  23248643.4064                   23248643.7384
 -16527974.11748 -12467241.90246  22580700.1094                   22580700.5274
 -62205605.73448 -48458446.24646  20904967.6094                   20904962.9734
 11  8 29  0 34  0.0000000  0  7G12G10G17G05G04G25G02
 -41889226.20748 -32093819.62546  20811669.1954                   20811667.1024
 -52106406.82848 -40561872.34445  21501042.1644                   21501040.0004
 -92335378.58646 -71906446.93043  24333452.3754                   24333455.4494
 -39131891.31648 -30479363.33646  20632724.0314                   20632722.1214
 -69364164.90247 -54005708.94144  23246470.4614                   23246470.8404
 -16690163.73448 -12593623.41445  22549836.6954                   22549836.8954
 -62276618.83648 -48513781.14546  20891454.0704                   20891449.2934
 11  8 29  0 34 30.0000000  0  7G12G10G17G05G04G25G02
 -41990902.57048 -32173047.95746  20792320.8834                   20792318.9964
 -52137385.78548 -40586011.80945  21495146.5634                   21495145.2814
 -92358096.85946 -71924149.48442  24329130.4694                   24329131.7114
 -39270184.39848 -30587124.13746  20606407.7034                   20606405.7194
 -69375551.94147 -54014582.02344  23244304.0474                   23244304.3054
 -16851874.89148 -12719632.10545  22519063.6564                   22519064.1644
 -62347417.22348 -48568948.73446  20877981.6334                   20877977.3444
 11  8 29  0 35  0.0000000  0  7G12G10G17G05G04G25G02
 -42091948.93448 -32251785.38746  20773092.4304                   20773090.1174
 -52167806.47348 -40609716.26645  21489357.7664                   21489356.4104
 -92380572.85946 -71941663.27743  24324853.0474                   24324854.2584
 -39407891.45748 -30694428.29346  20580202.9774                   20580200.7704
 -69386905.73447 -54023429.20344  23242142.8444                   23242142.6134
 -17013103.99647 -12845265.16045  22488382.8834                   22488383.7194
 -62418000.96148 -48623949.05946  20864549.9304                   20864545.3834
 11  8 29  0 35 30.0000000  0  7G12G10G17G05G04G25G02
 -42192364.42248 -32330031.23846  20753983.9844                   20753982.2034
 -52197671.05948 -40632987.39545  21483674.6804                   21483673.5634
 -92402806.03946 -71958987.86342  24320621.3674                   24320623.8164
 -39545010.23048 -30801274.04746  20554109.8754                   20554107.9924
 -69398226.58247 -54032250.69544  23239988.2974                   23239988.3444
 -17173848.08248 -12970520.27745  22457794.1024                   22457794.9024
 -62488370.51248 -48678782.48846  20851158.9064                   20851154.5084
 11  8 29  0 36  0.0000000  0  7G12G10G17G05G04G25G02
 -42292146.20348 -32407783.28146  20734996.2424                   20734994.2154
 -52226979.94147 -40655825.50445  21478097.6254                   21478096.2194
 -92424794.55946 -71976121.79742  24316437.6484                   24316439.6804
 -39681537.71548 -30907659.04746  20528129.4774                   20528127.6454
 -69409513.68047 -54041045.89144  23237840.3984                   23237840.9064
 -17334103.07047 -13095394.26645  22427298.5704                   22427299.8164
 -62558524.90248 -48733448.25846  20837809.1174                   20837804.7584
 11  8 29  0 36 30.0000000  0  7G12G10G17G05G04G25G02
 -42391297.57048 -32485044.09046  20716128.5004                   20716126.4064
 -52255738.75848 -40678234.99245  21472625.1804                   21472623.9264
 -92446541.62946 -71993067.59443  24312299.6094                   24312301.8984
 -39817475.45748 -31013584.51646  20502261.1484                   20502259.5124
 -69420771.06646 -54049817.93444  23235699.1884                   23235699.3284
 -17493869.98048 -13219887.93745  22396895.6884                   22396896.5704
 -62628468.52348 -48787949.79346  20824499.2734                   20824495.1804
 11  8 29  0 37  0.0000000  0  7G12G10G17G05G04G25G02
 -42489815.70748 -32561811.46946  20697381.0084                   20697379.0084
 -52283947.35548 -40700215.73845  21467257.4774                   21467256.0204
 -92468045.23447 -72009823.60243  24308208.1334                   24308210.2384
 -39952819.97348 -31119047.73046  20476506.0784                   20476504.5164
 -69431997.17646 -54058565.58244  23233562.7034                   23233563.3054
 -17653143.92247 -13343997.44945  22366587.2194                   22366588.0704
 -62698199.74648 -48842285.82446  20811229.7274                   20811225.4064
 11  8 29  0 37 30.0000000  0  7G12G10G17G05G04G25G02
 -42587704.08248 -32638088.12946  20678753.5314                   20678751.5124
 -52311612.53948 -40721773.03545  21461992.7584                   21461991.2584
 -92489309.13347 -72026392.89143  24304161.9304                   24304163.6484
 -40087574.17248 -31224050.94946  20450863.3444                   20450861.6054
 -69443197.16847 -54067292.90644  23231430.7664                   23231432.6914
 -17811926.86747 -13467724.38745  22336371.2814                   22336372.4804
 -62767723.90648 -48896460.49646  20797999.7114                   20797995.4774
 11  8 29  0 38  0.0000000  0  8G12G10G29G17G05G04G25G02
 -42684969.26648 -32713879.18446  20660244.5004                   20660242.3834
 -52338743.19948 -40742913.82045  21456830.0004                   21456828.6644
   5770698.93415                  24486461.984
 -92510340.28147 -72042780.78544  24300160.0944                   24300162.0354
 -40221742.98048 -31328598.03547  20425331.5784                   20425330.3594
 -69454378.32847 -54076005.55544  23229304.0474                   23229304.2774
 -17970223.23447 -13591072.14845  22306249.0004                   22306250.4384
 -62837048.56648 -48950479.70746  20784807.6954                   20784804.1334
 11  8 29  0 38 30.0000000  0  7G12G10G17G05G04G25G02
 -42781610.12948 -32789183.74646  20641854.1094                   20641852.0704
 -52365340.95348 -40763639.36745  21451768.6724                   21451767.4924
 -92531137.92247 -72058986.71144  24296202.0944                   24296204.1954
 -40355324.85548 -31432687.75847  20399911.8284                   20399910.2194
 -69465540.90247 -54084703.70744  23227179.2274                   23227180.1024
 -18128029.89547 -13714038.34845  22276219.1024                   22276219.8984
 -62906174.10948 -49004343.77346  20771653.5704                   20771649.7424
 11  8 29  0 39  0.0000000  0  7G12G10G17G05G04G25G02
 -41302200.01248 -31636396.64546  20923376.8834                   20923374.6484
 -50815984.23048 -39556348.42645  21746601.3754                   21746599.9964
 -90976278.28147 -70847407.75444  24592081.8444                   24592084.2584
 -38912890.91048 -30308713.20747  20674397.9224                   20674396.6524
 -67901262.17646 -52865785.27044  23524851.7274                   23524852.6564
 -16709916.30547 -12609014.71545  22546076.9774                   22546077.7814
 -61399676.12948 -47830449.23446  21058330.6174                   21058326.6024
 11  8 29  0 39 30.0000000  0  8G12G10G29G17G05G04G25G02
 -41397587.36348 -31710724.45346  20905225.2344                   20905223.5394
 -50841519.54348 -39576246.09045  21741741.9924
  21741741.0474    7711268.02014  24687754.234
 -90996605.39547 -70863247.04744  24588213.7274                   24588215.3554
 -39045291.16448 -30411882.19147  20649202.8754                   20649201.5164
 -67912386.40247 -52874453.57444  23522734.9384                   23522735.0864
 -16866733.23047 -12731209.68445  22516235.9304                   22516236.8204
 -61468402.15648 -47884001.98046  21045252.3674                   21045248.3754
 11  8 29  0 40  0.0000000  0  8G12G10G29G17G05G04G25G02
 -41492347.90648 -31784563.83246  20887192.4844                   20887190.9844
 -50866527.25048 -39595732.63345  21736983.5314
  21736982.1884    7538657.230 4  24654906.313
 -91016697.15647 -70878902.99244  24584389.8134                   24584392.1884
 -39177099.05548 -30514589.59847  20624120.5944                   20624119.3524
 -67923492.65647 -52883107.87544  23520621.8524                   23520622.3054
 -17023052.02047 -12853016.47345  22486489.2344                   22486490.0704
 -61536930.03548 -47937400.32046  21032211.8284                   21032208.5124
 11  8 29  0 40 30.0000000  0  8G12G10G29G17G05G04G25G02
 -41586480.72748 -31857914.07846  20869280.2814                   20869278.0594
 -50891009.71148 -39614809.88745  21732324.3834
  21732323.7034    7366012.977 5  24622051.625
 -91036553.79747 -70894375.72743  24580611.5314                   24580612.9304
 -39308312.93748 -30616834.14147  20599151.1884                   20599149.6484
 -67934581.43046 -52891748.53544  23518511.4384                   23518512.4384
 -17178870.19147 -12974433.18044  22456838.0314                   22456838.7894
 -61605260.26648 -47990644.64846  21019209.1414                   21019205.3364
 11  8 29  0 41  0.0000000  0  7G12G10G29G05G04G25G02
 -41679983.66448 -31930773.51646  20851486.8524                   20851484.4734
 -50914966.80148 -39633477.76645  21727765.3914
  21727764.3714    7193337.99615  24589192.672
 -39438929.26248 -30718613.05547  20574295.7114                   20574294.0704
 -67945651.29747 -52900374.44144  23516405.6024                   23516405.6134
 -17334183.23447 -13095456.28544  22427283.2504                   22427284.5394
 -61673391.89848 -48043734.22346  21006244.2424                   21006240.5514
 11  8 29  0 41 30.0000000  0  7G12G10G29G05G04G25G02
 -41772855.87948 -32003141.47746  20833813.8754                   20833811.7814
 -50938401.03548 -39651738.22345  21723306.5554
  21723304.9224                   24556327.500
 -39568946.38748 -30819925.05147  20549554.5314                   20549552.8244
 -67956702.49646 -52908985.83644  23514302.0234                   23514302.4304
 -17488988.32847 -13216083.58244  22397824.5084                   22397825.6604
 -61741324.99648 -48096669.08246  20993316.7894                   20993313.3134
 11  8 29  0 42  0.0000000  0  7G12G10G29G05G04G25G02
 -41865097.04348 -32075017.71146  20816260.8364                   20816258.6024
 -50961314.36748 -39669592.77745  21718946.0864
  21718944.5664    6847901.51615  24523458.430
 -39698363.16048 -30920769.24647  20524927.0784                   20524925.5124
 -67967735.46946 -52917583.02744  23512202.5634                   23512202.5354
 -17643283.29747 -13336313.36744  22368463.1804                   22368464.0744
 -61809060.46948 -48149449.96946  20980426.8594                   20980422.6454
 11  8 29  0 42 30.0000000  0  7G12G10G29G05G04G25G02
 -41956702.76248 -32146398.79746  20798828.9924                   20798826.9774
 -50983704.81248 -39687039.87945  21714685.2034
  21714683.9344    6675145.406 5  24490584.164
 -39827174.14548 -31021141.39147  20500415.5704                   20500413.4574
 -67978746.80946 -52926163.37144  23510107.3134                   23510106.8364
 -17797061.46147 -13456140.45344  22339199.9774                   22339200.4494
 -61876595.07848 -48202074.33246  20967575.7194                   20967571.8324
 11  8 29  0 43  0.0000000  0  7G12G10G29G05G04G25G02
 -42047672.42248 -32217284.25046  20781518.1564                   20781516.3834
 -51005574.98848 -39704081.57845  21710523.1254
  21710522.0354    6502366.688 5  24457705.281
 -39955378.14148 -31121040.55947  20476018.5784                   20476016.9224
 -67989737.14847 -52934727.31244  23508016.1954                   23508016.1134
 -17950320.69547 -13575563.19144  22310035.5084                   22310036.1524
 -61943929.27048 -48254542.51246  20954762.7114                   20954758.9304
 11  8 29  0 43 30.0000000  0  7G12G10G29G05G04G25G02
 -42138007.51648 -32287675.24646  20764327.7194                   20764325.7664
 -51026928.68748 -39720720.83645  21706459.5234
  21706458.8834    6329565.008 5  24424822.570
 -40082975.27348 -31220466.85547  20451737.9454                   20451736.2154
 -68000708.43447 -52943276.44544  23505928.4534                   23505929.3164
 -18103060.05547 -13694580.84444  22280970.1564                   22280971.5634
 -62011065.37948 -48306856.33646  20941986.8594                   20941982.9534
 11  8 29  0 44  0.0000000  0  7G12G10G29G05G04G25G02
 -42227708.80948 -32357572.37546  20747258.0474                   20747256.0274
 -51047769.06648 -39736960.10245  21702494.2194
  21702492.6914    6156740.188 6  24391934.992
 -40209965.27748 -31319420.05947  20427572.7194                   20427570.9144
 -68011661.84847 -52951811.62144  23503844.0704                   23503844.7034
 -18255278.05547 -13813192.22344  22252004.7274                   22252005.3914
 -62078005.02348 -48359017.07846  20929248.7814                   20929244.9024
 11  8 29  0 44 30.0000000  0  7G12G10G29G05G04G25G02
 -42316775.35248 -32426974.88746  20730309.3984                   20730307.7384
 -51068097.76648 -39752800.65645  21698625.2584
  21698624.0904    5983893.824 5  24359043.039
 -40336346.37548 -31417898.79347  20403522.9534                   20403521.7424
 -68022597.79347 -52960333.18444  23501763.1414                   23501763.6214
 -18406971.96547 -13931395.22344  22223138.3524                   22223138.4614
 -62144748.35248 -48411024.84846  20916548.0704                   20916543.6844
 11  8 29  0 45  0.0000000  0  7G12G10G29G05G04G25G02
 -42405211.89848 -32495886.50046  20713480.8364                   20713478.6174
 -51087922.23848 -39768248.31645  21694853.5704
  21694851.2584    5811022.086 6  24326146.844
 -40462122.44148 -31515906.07847  20379588.5864                   20379586.8484
 -68033521.64547 -52968845.33644  23499684.1954                   23499684.6764
 -18558144.39146 -14049191.90644  22194370.6884                   22194371.2814
 -62211301.08648 -48462884.10946  20903883.3754                   20903879.5164
 11  8 29  0 45 30.0000000  0  7G12G10G29G05G04G25G02
 -42493016.03948 -32564305.33246  20696772.0864                   20696769.8164
 -51107242.65648 -39783303.18045  21691176.6724
  21691175.3054    5638128.113 5  24293245.461
 -40587290.02748 -31613439.21947  20355769.6484                   20355768.4414
 -68044431.17247 -52977346.31244  23497608.7894                   23497609.4064
 -18708790.73847 -14166578.63744  22165703.8524                   22165704.6094
 -62277661.56648 -48514593.57446  20891255.0784                   20891250.9884
 11  8 29  0 46  0.0000000  0  7G12G10G29G05G04G25G02
 -42580193.01248 -32632235.45746  20680183.0004                   20680180.8284
 -51126066.62148 -39797971.21545  21687594.6094
  21687593.7504    5465207.227 6  24260339.258
 -40711853.35248 -31710501.51247  20332066.0864                   20332064.6254
 -68055332.67647 -52985841.07844  23495534.8914                   23495534.3984
 -18858914.25447 -14283558.01644  22137136.2814                   22137136.1294
 -62343835.97348 -48566158.04746  20878662.7894                   20878658.5824
 11  8 29  0 46 30.0000000  0  7G12G10G29G05G04G25G02
 -42666745.12548 -32699678.66846  20663712.4454                   20663710.4024
 -51144398.94148 -39812256.14145  21684106.0784
  21684105.2774    5292258.371 5  24227428.852
 -40835813.53948 -31807093.82447  20308477.2504                   20308475.6454
 -68066228.77047 -52994331.60544  23493460.6094                   23493460.9384
 -19008514.98046 -14400130.01244  22108667.6334                   22108668.9774
 -62409827.21148 -48617579.78946  20866105.3134                   20866100.5784
 11  8 29  0 47  0.0000000  0  7G12G10G29G05G04G25G02
 -42752670.72748 -32766633.70346  20647361.6094                   20647359.4224
 -51162240.82848 -39826158.91845  21680710.8364                   21680710.5124
   5119283.75446   6037294.02052  24194513.0394                   24194512.9224
 -40959168.35248 -31903214.41447  20285003.6724                   20285002.1724
 -68077119.02047 -53002817.59844  23491388.1024                   23491388.8324
 -19157589.44546 -14516291.96144  22080299.6954                   22080300.3444
 -62475634.86348 -48668858.47346  20853582.1644                   20853578.3874
 11  8 29  0 47 30.0000000  0  7G12G10G29G05G04G25G02
 -41262547.94948 -31605499.10246  20930922.3054                   20930920.0784
 -49604174.70348 -38612081.43045  21977201.2114                   21977200.3244
   6521709.34045   7130093.22742  24461385.6094                   24461385.3404
 -39506493.87948 -30771260.23047  20561438.2344                   20561436.6334
 -66512583.96947 -51783699.44543  23789109.6804                   23789109.6214
 -17730711.35546 -13404438.91044  22351825.9844                   22351826.8444
 -60965838.19548 -47492393.53546  21140887.3204                   21140883.3364
 11  8 29  0 48  0.0000000  0  7G12G10G29G05G04G25G02
 -41347224.18048 -31671480.59046  20914809.2584                   20914807.1564
 -49621046.23448 -38625228.07045  21973990.6724                   21973990.0474
   6348682.67246   6995267.37142  24428459.4924                   24428460.6294
 -39628638.64548 -30866437.92647  20538195.1724                   20538193.1174
 -66523466.75047 -51792179.61343  23787037.6484                   23787038.3554
 -17878730.19146 -13519778.24644  22323658.4224                   22323659.8164
 -61031283.91048 -47543390.19546  21128433.0944                   21128429.3244
 11  8 29  0 48 30.0000000  0  7G12G10G29G05G04G25G02
 -41431277.99648 -31736977.09446  20898814.4304                   20898811.9884
 -49637438.55948 -38638001.32445  21970871.2504                   21970870.2774
   6175629.28546   6860420.63743  24395528.3984                   24395528.4024
 -39750179.16848 -30961144.78147  20515066.5234                   20515064.2074
 -66534348.57046 -51800659.03543  23784967.0004                   23784968.7624
 -18026220.14846 -13634705.50044  22295592.5394                   22295593.1684
 -61096551.85548 -47594248.33246  21116012.9774                   21116008.9264
 11  8 29  0 49  0.0000000  0  7G12G10G29G05G04G25G02
 -41514707.68048 -31801987.24246  20882938.0554                   20882936.2974
 -49653352.30148 -38650401.64545  21967843.0394                   21967842.0124
   6002552.18046   6725555.41443  24362593.3834                   24362593.3914
 -39871112.45748 -31055378.48047  20492053.6024                   20492051.5554
 -66545228.27047 -51809136.77343  23782896.7814                   23782898.8364
 -18173177.27347 -13749217.55944  22267627.4774                   22267627.9304
 -61161640.95748 -47644967.10246  21103627.1644                   21103623.2774
 11  8 29  0 49 30.0000000  0  7G12G10G29G05G04G25G02
 -41597513.86348 -31866511.55946  20867180.6094                   20867178.2704
 -49668790.64148 -38662431.52345  21964904.9924                   21964904.4614
   5829451.65646   6590671.97743  24329652.7894                   24329653.3874
 -39991437.97348 -31149138.58647  20469156.2974                   20469154.4694
 -66556106.82847 -51817613.65643  23780826.6484                   23780828.6254
 -18319600.02047 -13863313.21544  22239764.0164                   22239764.4024
 -61226552.44548 -47695547.47746  21091274.8444                   21091270.7074
 11  8 29  0 50  0.0000000  0  7G12G10G29G05G04G25G02
 -41679699.57048 -31930552.37946  20851541.1804                   20851539.3484
 -49683758.89148 -38674095.10945  21962056.7344                   21962056.2424
   5656325.79346   6455768.73843  24296707.5164                   24296707.8794
 -40111158.06248 -31242426.93047  20446374.2274                   20446372.3134
 -66566987.68446 -51826092.31243  23778756.4774                   23778758.1254
 -18465489.22747 -13976993.12544  22212002.3674                   22212002.5274
 -61291290.16048 -47745992.44146  21078955.5944                   21078951.8054
 11  8 29  0 50 30.0000000  0  7G12G10G29G05G04G25G02
 -41761261.69948 -31994107.29346  20836020.5314                   20836018.6644
 -49698256.50848 -38685391.96545  21959297.9774                   21959297.0394
   5483178.57446   6320848.87943  24263758.9144                   24263759.0234
 -40230268.99648 -31335240.60947  20423708.6174                   20423706.6414
 -66577868.32447 -51834570.79743  23776686.4384                   23776687.2464
 -18610839.86347 -14090253.37544  22184342.6484                   22184343.4414
 -61355851.59048 -47796300.05146  21066669.9144                   21066666.1174
 11  8 29  0 51  0.0000000  0  7G12G10G29G05G04G25G02
 -41842202.33648 -32057177.91846  20820617.7584                   20820615.7194
 -49712287.52748 -38696325.24245  21956627.4774                   21956627.3674
   5310009.58246   6185912.03543  24230806.0314                   24230805.5164
 -40348771.56648 -31427580.23447  20401158.1414                   20401155.9184
 -66588750.62147 -51843050.57043  23774615.9534                   23774615.9414
 -18755651.55547 -14203093.67244  22156786.4224                   22156787.3554
 -61420238.92648 -47846472.01246  21054417.6024                   21054413.7464
 11  8 29  0 51 30.0000000  0  7G12G10G29G05G04G25G02
 -41922524.79748 -32119766.86346  20805333.0944                   20805331.1414
 -49725858.19548 -38706899.79745  21954045.6334                   21954044.5314
   5136816.40246   6050956.34443  24197847.7814                   24197847.4344
 -40466668.11748 -31519447.64547  20378723.0634                   20378721.6094
 -66599638.30947 -51851534.54344  23772543.9304                   23772544.3364
 -18899925.54347 -14315514.95745  22129332.0864                   22129333.4024
 -61484456.26648 -47896511.48846  21042197.2974                   21042193.1644
 11  8 29  0 52  0.0000000  0  7G12G10G29G05G04G25G02
 -42002228.66048 -32181873.77046  20790165.8914                   20790163.7894
 -49738969.87948 -38717116.70745  21951550.9224                   21951549.5704
   4963600.64846   5915983.05943  24164886.6094                   24164886.1724
 -40583957.30548 -31610841.78547  20356403.8914                   20356402.0084
 -66610531.24247 -51860022.59044  23770471.2344                   23770471.8674
 -19043659.10547 -14427515.16045  22101980.6024                   22101980.5984
 -61548503.48848 -47946418.41846  21030009.3134                   21030005.4304
 11  8 29  0 52 30.0000000  0  7G12G10G29G05G04G25G02
 -42081318.57848 -32243502.28546  20775115.6254                   20775113.7584
 -49751630.06247 -38726981.79745  21949141.1884                   21949140.1454
   4790358.90646   5780989.54343  24131919.9694                   24131920.0554
 -40700643.01248 -31701765.67247  20334199.2194                   20334197.2464
 -66621434.56647 -51868518.72743  23768396.3914                   23768397.2504
 -19186854.87147 -14539096.27745  22074730.9304                   22074731.5004
 -61612386.05148 -47996197.03146  21017853.1564                   21017849.2074
 11  8 29  0 53  0.0000000  0  7G12G10G29G05G04G25G02
 -42159793.27048 -32304651.40246  20760182.4694                   20760180.6024
 -49763839.36348 -38736495.55145  21946817.7344                   21946816.7384
   4617094.10946   5645978.05943  24098948.7034                   24098948.1884
 -40816722.53548 -31792217.21547  20312109.6954                   20312107.5394
 -66632346.53947 -51877021.57844  23766320.3984                   23766320.6844
 -19329509.03547 -14650255.38745  22047584.6254                   22047585.9064
 -61676102.62548 -48045846.30546  21005727.9844                   21005724.4144
 11  8 29  0 53 30.0000000  0  7G12G10G29G05G04G25G02
 -42237653.17648 -32365321.46946  20745366.5004                   20745364.2034
 -49775600.30948 -38745659.94945  21944579.9534                   21944578.9614
   4443807.59046   5510949.64543  24065973.7034                   24065972.8794
 -40932195.09448 -31882195.80147  20290136.0394                   20290133.9964
 -66643267.65647 -51885531.55943  23764241.6024                   23764242.0664
 -19471619.53547 -14760990.84845  22020541.9614                   22020542.9344
 -61739653.84848 -48095366.74246  20993635.0704                   20993631.3794
 11  8 29  0 54  0.0000000  0  7G12G10G29G05G04G25G02
 -42314899.00048 -32425513.02346  20730666.8834                   20730664.7034
 -49786916.56248 -38754477.82045  21942426.5864                   21942425.8244
   4270499.12946   5375904.16843  24032994.0004                   24032993.9064
 -41047061.15248 -31971701.78547  20268277.7114                   20268275.4414
 -66654199.38747 -51894049.82443  23762161.8364                   23762161.9304
 -19613185.51247 -14871302.00045  21993603.5004                   21993603.9024
 -61803041.57848 -48144759.77746  20981572.4384                   20981568.7774
 11  8 29  0 54 30.0000000  0  7G12G10G29G05G04G25G02
 -42391534.85548 -32485229.27046  20716083.5234                   20716081.7304
 -49797793.62147 -38762953.49245  21940356.6254                   21940355.8404
   4097166.76246   5240840.04343  24000009.4844                   24000009.5824
 -41161323.14848 -32060737.06647  20246534.5634                   20246532.4964
 -66665144.94147 -51902578.86743  23760078.6414                   23760078.9774
 -19754207.98447 -14981189.63345  21966767.6334                   21966767.8954
 -61866269.38748 -48194028.21146  20969540.9384                   20969536.7704
 11  8 29  0 55  0.0000000  0  7G12G10G29G05G04G25G02
 -42467558.53548 -32544468.50446  20701616.7894                   20701614.2624
 -49808231.80147 -38771087.14845  21938370.3134                   21938369.5044
   3923814.12946   5105760.13743  23967022.0394                   23967020.8984
 -41274977.93448 -32149299.20347  20224906.6094                   20224904.8444
 -66676102.30947 -51911117.07043  23757993.0704                   23757994.2624
 -19894682.70347 -15090650.45745  21940036.2504                   21940036.4774
 -61929335.02048 -48243170.26246  20957539.8834                   20957535.7234
 11  8 29  0 55 30.0000000  0  7G12G10G29G05G04G25G02
 -42542974.83248 -32603234.45746  20687265.3054                   20687263.3444
 -49818238.76647 -38778884.83245  21936466.0394                   21936465.4574
   3750437.51646   4970661.52044  23934029.4454                   23934028.4144
 -41388029.97348 -32237391.66847  20203393.8284                   20203391.8484
 -66687077.03947 -51919668.82043  23755904.7344                   23755906.2894
 -20034612.85947 -15199686.95345  21913408.6724                   21913409.4884
 -61992244.49648 -48292190.63746  20945568.3524                   20945563.9304
 11  8 29  0 56  0.0000000  0  7G12G10G29G05G04G25G02
 -42617783.22348 -32661526.71546  20673029.7274                   20673027.9884
 -49827815.60247 -38786347.32445  21934643.9774                   21934642.3404
   3577039.33646   4835546.09844  23901033.2194                   23901031.6724
 -41500477.40648 -32325013.00447  20181995.5394                   20181993.9804
 -66698067.88746 -51928233.13743  23753813.4614                   23753814.4804
 -20173995.20347 -15308296.58245  21886884.8914                   21886885.4804
 -62054997.14848 -48341088.82446  20933626.9924                   20933623.2384
 11  8 29  0 56 30.0000000  0  7G12G10G29G05G04G25G02
 -41116563.57448 -31491745.17246  20958702.5704                   20958700.4804
 -48261546.42647 -37565877.85245  22232695.1174                   22232693.8244
   4979044.57047   5928017.72744  24167825.7194                   24167824.7854
 -40036897.82848 -31184561.35547  20460505.4844                   20460503.3054
 -65133656.99646 -50709211.69943  24051511.1024                   24051511.7424
 -18737405.20747 -14188875.79345  22160259.1954                   22160259.7034
 -60542173.40248 -47162265.12946  21221508.0234                   21221504.0044
 11  8 29  0 57  0.0000000  0  7G12G10G29G05G04G25G02
 -41190158.96948 -31549092.23846  20944697.7424                   20944695.8324
 -48270271.93047 -37572676.96945  22231034.8834                   22231032.8164
   4805605.44947   5792870.38744  24134820.7664                   24134820.1294
 -40148135.59448 -31271240.10247  20439337.4844                   20439335.7584
 -65144682.80146 -50717803.25043  24049413.1174                   24049414.1134
 -18875687.78547 -14296628.45345  22133944.1094                   22133945.0124
 -60604615.47348 -47210921.29346  21209625.6254                   21209621.5234
 11  8 29  0 57 30.0000000  0  7G12G10G29G05G04G25G02
 -41263150.62548 -31605968.86746  20930807.7734                   20930805.7504
 -48278577.84447 -37579149.12145  22229454.1954                   22229452.7894
   4632145.52347   5657706.85943  24101812.9694                   24101811.9064
 -40258769.75048 -31357448.49647  20418284.4774                   20418282.6684
 -65155728.35946 -50726410.19943  24047311.6024                   24047312.0594
 -19013419.60247 -14403951.94545  22107734.5084                   22107735.8164
 -60666904.92248 -47259458.51646  21197772.2194                   21197768.1994
 11  8 29  0 58  0.0000000  0  7G12G10G29G05G04G25G02
 -41335536.89848 -31662373.76246  20917033.1484                   20917030.9654
 -48286464.94548 -37585294.94145  22227953.7424                   22227952.1334
   4458668.15247   5522529.71543  24068800.8204                   24068800.1844
 -40368798.14148 -31443184.87547  20397346.6414                   20397344.7704
 -65166792.14146 -50735031.35943  24045205.6724                   24045207.1174
 -19150597.07447 -14510843.45745  22081630.5004                   22081631.8714
 -60729040.58248 -47307875.91846  21185948.4064                   21185944.1454
 11  8 29  0 58 30.0000000  0  7G12G10G29G05G04G25G02
 -41407324.00048 -31718311.77046  20903372.7274                   20903370.1254
 -48293941.38748 -37591120.75445  22226531.1484                   22226529.6954
   4285168.10247   5387334.89143  24035784.4924                   24035784.3364
 -40478225.84448 -31528453.18747  20376523.4774                   20376521.6684
 -65177880.21546 -50743671.45343  24043095.9774                   24043096.3914
 -19287224.21548 -14617306.15645  22055632.3204                   22055632.8984
 -60791028.84048 -47356178.46546  21174152.3444                   21174148.1724
 11  8 29  0 59  0.0000000  0  7G12G10G29G05G04G25G02
 -41478510.96548 -31773782.14546  20889826.2114                   20889824.1884
 -48301007.91047 -37596627.15645  22225186.2894                   22225185.2894
   4111649.05147   5252125.27743  24002765.3364                   24002764.3874
 -40587050.27048 -31613251.40247  20355814.6644                   20355812.6454
 -65188991.06246 -50752329.27343  24040981.3754                   24040982.3754
 -19423297.27347 -14723337.09845  22029737.7034                   22029738.1134
 -60852868.32048 -47404365.07846  21162384.6254                   21162380.4184
 11  8 29  0 59 30.0000000  0  7G12G10G29G05G04G25G02
 -41549100.52348 -31828787.00446  20876393.4774                   20876391.1804
 -48307669.10947 -37601817.72345  22223918.8984                   22223917.3954
   3938110.13347   5116900.16443  23969741.8984                   23969741.1804
 -40695273.28948 -31697580.98847  20335220.4064                   20335218.6684
 -65200126.50446 -50761006.28143  24038862.5944                   24038863.1374
 -19558816.37547 -14828936.37945  22003949.2194                   22003949.8984
 -60914561.15648 -47452437.42246  21150645.1174                   21150640.8484
 11  8 29  1  0  0.0000000  0  7G12G10G29G05G04G25G02
 -41619093.43748 -31883326.96146  20863074.2034                   20863072.1134
 -48313928.31247 -37606695.04345  22222727.4844                   22222725.8054
   3764551.78947   4981659.91843  23936714.9144                   23936714.4064
 -40802895.16048 -31781442.15247  20314740.6254                   20314738.4534
 -65211287.96146 -50769703.54743  24036738.7114                   24036739.4414
 -19693780.69147 -14934103.36745  21978266.4844                   21978267.1884
 -60976109.04748 -47500396.80946  21138932.2194                   21138928.5204
 11  8 29  1  0 30.0000000  0  7G12G10G29G05G04G25G02
 -41688489.00048 -31937401.44546  20849868.5784                   20849866.3714
 -48319786.67647 -37611260.01645  22221612.2034                   22221611.6414
   3590977.32447   4846407.11743  23903684.3674                   23903684.0594
 -40909913.62548 -31864833.11747  20294375.7814                   20294373.5824
 -65222473.74246 -50778419.78144  24034610.1484                   24034611.1564
 -19828186.68047 -15038835.28945  21952689.8524                   21952690.7584
 -61037510.64548 -47548242.19946  21127248.0944                   21127244.2194
 11  8 29  1  1  0.0000000  0  7G12G10G29G05G04G25G02
 -41757287.81248 -31991010.93446  20836776.5704                   20836774.6564
 -48325246.54747 -37615514.48445  22220573.4144                   22220572.0514
   3417387.70747   4711142.50444  23870651.6564                   23870650.9494
 -41016328.40648 -31947753.69547  20274125.3834                   20274123.4694
 -65233683.91046 -50787155.03144  24032477.8754                   24032478.1374
 -19962032.64147 -15143130.81245  21927219.6254                   21927220.3524
 -61098766.49248 -47595974.02346  21115591.4924                   21115587.4384
 11  8 29  1  1 30.0000000  0  7G12G10G29G05G04G25G02
 -41825493.71148 -32044158.39846  20823797.5314                   20823795.4304
 -48330313.80147 -37619463.01245  22219609.0554                   22219608.1254
   3243781.01647   4575864.57444  23837615.6484                   23837615.5664
 -41122142.59448 -32030206.27347  20253989.9844                   20253987.7544
 -65244922.02746 -50795912.01244  24030338.6484                   24030339.7584
 -20095320.05147 -15246991.10945  21901855.8594                   21901856.8914
 -61159879.86348 -47643594.84046  21103962.0554                   21103958.1024
 11  8 29  1  2  0.0000000  0  7G12G10G29G05G04G25G02
 -41893105.60948 -32096843.01246  20810931.6484                   20810929.5944
 -48334989.46147 -37623106.41445  22218719.3134                   22218718.8714
   3070160.36747   4440575.77344  23804576.3444                   23804576.1644
 -41227354.00848 -32112189.15647  20233968.8364                   20233967.1254
 -65256186.65246 -50804689.68043  24028194.4304                   24028196.1954
 -20228045.78147 -15350413.75845  21876598.8834                   21876599.5084
 -61220850.14848 -47691104.15646  21092360.1254                   21092356.1684
 11  8 29  1  2 30.0000000  0  7G12G10G29G05G04G25G02
 -41960126.94148 -32149067.42246  20798177.6644                   20798175.5204
 -48339278.57847 -37626448.60545  22217903.6024                   22217902.1684
   2896524.66447   4305275.23844  23771534.5234                   23771534.4494
 -41331965.32448 -32193704.43447  20214061.8444                   20214060.0514
 -65267480.55946 -50813490.14543  24026046.1414                   24026046.3914
 -20360210.60247 -15453399.32045  21851448.8914                   21851449.9494
 -61281680.43448 -47738504.38346  21080784.2274                   21080780.5234
 11  8 29  1  3  0.0000000  0  7G12G10G29G05G04G25G02
 -42026555.30948 -32200829.78546  20785537.1724                   20785534.8674
 -48343180.99247 -37629489.46545  22217161.2504                   22217159.9344
   2722877.64147   4169965.87944  23738490.6334                   23738490.1914
 -41435973.10948 -32274749.42647  20194269.8054                   20194267.8324
 -65278800.93746 -50822311.27343  24023891.4144                   24023891.4924
 -20491810.09447 -15555944.33245  21826406.6804                   21826407.5314
 -61342368.02348 -47785793.41446  21069235.8754                   21069231.8794
 11  8 29  1  3 30.0000000  0  7G12G10G29G05G04G25G02
 -42092395.75448 -32252134.03546  20773007.6484                   20773006.2194
 -48346703.30947 -37632234.14845  22216490.7584                   22216489.4574
   2549216.96147   4034645.89144  23705444.0704                   23705443.9264
 -41539381.10948 -32355327.05947  20174591.6334                   20174589.8714
 -65290152.15646 -50831156.41843  24021731.5234                   24021731.9304
 -20622846.60547 -15658050.68045  21801470.6564                   21801471.9734
 -61402917.48448 -47832974.81246  21057713.5554                   21057709.5434
 11  8 29  1  4  0.0000000  0  7G12G10G29G05G04G25G02
 -42157648.99648 -32302980.71946  20760590.6644                   20760588.5234
 -48349848.19147 -37634684.73845  22215892.5784                   22215891.2194
   2375544.23847   3899316.52344  23672395.0554                   23672395.2544
 -41642188.75448 -32435436.89547  20155027.9924                   20155026.5864
 -65301534.00846 -50840025.39543  24019565.1954                   24019566.6484
 -20753318.43047 -15759717.02345  21776643.0634                   21776643.9184
 -61463329.07848 -47880048.75846  21046217.3204                   21046213.0984
 11  8 29  1  4 30.0000000  0  7G12G10G29G05G04G25G02
 -42222317.67248 -32353371.89846  20748284.7194                   20748282.5944
 -48352620.18047 -37636844.73845  22215364.6804                   22215363.6684
   2201858.41047   3763976.94944  23639344.6024                   23639343.7464
 -41744398.00448 -32515080.43747  20135578.4614                   20135576.7074
 -65312948.64146 -50848919.94543  24017393.3364                   24017394.3594
 -20883225.99247 -15860943.70745  21751921.9224                   21751924.0594
 -61523605.31648 -47927017.25446  21034747.1954                   21034743.6414
 11  8 29  1  5  0.0000000  0  8G12G10G29G26G05G04G25G02
 -40710980.14848 -31175706.30946  21035882.5474                   21035880.1564
 -46779601.70747 -36411116.07445  22514699.7974                   22514699.2344
   3603587.50847   4856233.41444  23906084.0164                   23906083.2734
  12385301.46556   9686722.86353  24973935.8524                   24973939.7194
 -40270585.34448 -31366654.96147  20416035.6884                   20416033.5704
 -63748975.65246 -49630239.69943  24315007.2194                   24315007.9184
 -19437143.17647 -14734125.89845  22027102.0164                   22027103.7814
 -60008324.36348 -46746278.84446  21323096.0314                   21323091.8874
 11  8 29  1  5 30.0000000  0  8G12G10G29G26G05G04G25G02
 -40774489.01648 -31225193.76646  21023797.4454                   21023795.3954
 -46781642.89547 -36412706.65245  22514311.4844                   22514310.6484
   3429873.39546   4720871.82443  23873027.1484                   23873027.7424
  12203550.30946   9545098.77043  24939350.3754                   24939353.3954
 -40371604.50848 -31445371.16847  20396812.5164                   20396810.3674
 -63760463.37946 -49639191.17643  24312820.6484                   24312822.6724
 -19565924.58647 -14834475.04745  22002596.2734                   22002597.4614
 -60068337.95748 -46793042.67646  21311676.0784                   21311671.7704
 11  8 29  1  6  0.0000000  0  8G12G10G29G26G05G04G25G02
 -40837419.65248 -31274230.64546  21011822.0004                   21011819.7424
 -46783322.86747 -36414015.74244  22513991.6094                   22513990.8134
   3256146.60947   4585500.34044  23839967.8524                   23839967.8164
  12021678.00446   9403380.24243  24904740.7194                   24904743.8714
 -40472028.82448 -31523623.85547  20377702.6094                   20377700.1214
 -63771988.19946 -49648171.53543  24310627.9924                   24310629.9654
 -19694140.94947 -14934383.90244  21978197.4304                   21978198.1844
 -60128221.34048 -46839705.04746  21300279.9534                   21300276.0944
 11  8 29  1  6 30.0000000  0  8G12G10G29G26G05G04G25G02
 -40899778.89548 -31322822.28146  20999955.2274                   20999953.3164
 -46784650.04747 -36415049.92645  22513739.3054                   22513738.6334
   3082402.80547   4450115.60244  23806905.7034                   23806905.2424
  11839681.55946   9261565.04743  24870108.1254                   24870110.2274
 -40571863.98448 -31601417.45747  20358704.1564                   20358702.2894
 -63783555.83246 -49657185.26243  24308427.0554                   24308428.4414
 -19821796.56647 -15033855.82445  21953905.2814                   21953905.7664
 -60187980.46548 -46886270.57846  21288908.5864                   21288904.1374
 11  8 29  1  7  0.0000000  0  8G12G10G29G26G05G04G25G02
 -40961566.28548 -31370968.29746  20988197.7504                   20988195.7774
 -46785625.92247 -36415810.37545  22513553.4304                   22513552.2074
   2908645.11347   4314720.07844  23773841.1724                   23773840.3484
  11657565.25046   9119656.39142  24835452.2894                   24835454.5984
 -40671108.46948 -31678750.79347  20339819.0004                   20339816.5594
 -63795165.14546 -49666231.50443  24306217.8914                   24306218.5514
 -19948888.65647 -15132888.60545  21929720.4774                   21929721.4924
 -60247614.66448 -46932738.78546  21277560.4454                   21277555.9494
 11  8 29  1  7 30.0000000  0  8G12G10G29G26G05G04G25G02
 -41022781.20748 -31418668.23846  20976548.7664                   20976546.8134
 -46786251.52747 -36416297.87545  22513434.5164                   22513434.2894
   2734876.03547   4179315.68444  23740773.8984                   23740772.9924
  11475333.80146   8977658.10542  24800774.9144                   24800776.8404
 -40769761.03948 -31755622.89547  20321045.6724                   20321044.0044
 -63806814.91046 -49675309.27343  24304001.2814                   24304001.6024
 -20075414.35547 -15231480.04745  21905643.4774                   21905644.6954
 -60307122.86747 -46979108.81246  21266236.0784                   21266232.1254
 11  8 29  1  8  0.0000000  0  8G12G10G29G26G05G04G25G02
 -41083425.39148 -31465923.43446  20965008.3984                   20965006.8794
 -46786530.03947 -36416514.91444  22513381.7734                   22513380.5554
   2561096.60247   4043903.23444  23707704.5164                   23707703.5784
  11292989.61746   8835571.91842  24766075.1724                   24766077.9734
 -40867821.87148 -31832033.90647  20302385.1804                   20302383.0864
 -63818505.59846 -49684418.93043  24301775.9304                   24301777.4884
 -20201372.86348 -15329629.51245  21881674.5554                   21881675.3054
 -60366505.94948 -47025381.33646  21254935.7504                   21254931.4414
 11  8 29  1  8 30.0000000  0  8G12G10G29G26G05G04G25G02
 -41143498.09048 -31512733.33646  20953577.5634                   20953575.1884
 -46786462.19147 -36416462.06244  22513394.3834                   22513393.2464
   2387310.17647   3908485.31344  23674633.6954                   23674633.4734
  11110537.84046   8693401.78942  24731355.8284                   24731357.8094
 -40965289.31248 -31907982.53547  20283837.9844                   20283835.8914
 -63830235.44146 -49693559.03943  24299544.8834                   24299545.5984
 -20326760.89147 -15427334.47345  21857814.0474                   21857814.7424
 -60425762.60948 -47071555.35546  21243659.8674                   21243655.7344
 11  8 29  1  9  0.0000000  0  8G12G10G29G26G05G04G25G02
 -41203000.63748 -31559098.96946  20942254.1954                   20942252.1454
 -46786051.20347 -36416141.84045  22513472.9614                   22513472.3524
   2213517.50847   3773062.52744  23641562.3524                   23641561.0394
  10927980.69546   8551149.66042  24696617.1414                   24696619.1764
 -41062164.07448 -31983469.33647  20265403.2734                   20265401.2304
 -63842005.25846 -49702730.33243  24297304.1884                   24297305.8984
 -20451577.69548 -15524594.32845  21834062.4694                   21834062.8954
 -60484893.37948 -47117631.27746  21232407.3674                   21232403.9804
 11  8 29  1  9 30.0000000  0  8G12G10G29G26G05G04G25G02
 -41261934.63748 -31605021.59046  20931039.7114                   20931037.3484
 -46785300.18047 -36415556.64544  22513615.8134                   22513615.0204
   2039719.51647   3637635.57844  23608489.5164                   23608488.3794
  10745321.13346   8408817.69942  24661857.0704                   24661859.5984
 -41158446.52348 -32058494.58247  20247080.9064                   20247079.2734
 -63853815.35247 -49711932.98843  24295057.0864                   24295057.8244
 -20575822.25447 -15621408.25845  21810418.9144                   21810420.7424
 -60543899.22748 -47163609.85246  21221178.9614                   21221176.1844
 11  8 29  1 10  0.0000000  0  8G12G10G29G26G05G04G25G02
 -41320301.08648 -31650501.96546  20919933.0474                   20919930.4574
 -46784211.61347 -36414708.43444  22513822.4144                   22513822.1334
   1865918.02047   3502205.89544  23575416.3364                   23575415.2074
  10562562.34846   8266408.44943  24627080.0634                   24627082.0004
 -41254136.53948 -32133058.20347  20228872.1414                   20228870.0084
 -63865665.48047 -49721166.87943  24292802.4614                   24292803.2424
 -20699493.12548 -15717775.14845  21786885.4384                   21786886.1994
 -60602780.49648 -47209491.35246  21209974.5004                   21209971.0664
 11  8 29  1 10 30.0000000  0  8G12G10G29G26G05G04G25G02
 -41378102.27348 -31695541.87546  20908933.8134                   20908931.8554
 -46782789.71547 -36413600.46944  22514093.6094                   22514092.3874
   1692113.01647   3366773.50844  23542341.9384                   23542341.3484
  10379705.89545   8123923.11342  24592281.6724                   24592285.3054
 -41349235.68448 -32207161.40247  20210774.9304                   20210773.0594
 -63877557.41047 -49730433.30543  24290539.8914                   24290540.4614
 -20822590.39547 -15813695.08245  21763460.5554                   21763461.3594
 -60661538.71548 -47255276.98046  21198793.2894                   21198789.5984
 11  8 29  1 11  0.0000000  0  8G12G10G29G26G05G04G25G02
 -41435342.14148 -31740144.39146  20898041.2274                   20898039.1024
 -46781039.77747 -36412236.90244  22514426.5164                   22514426.2114
   1518303.28547   3231337.40244  23509267.8204                   23509266.1724
  10196752.71946   7981362.46143  24557467.6884                   24557470.7384
 -41443746.88748 -32280806.46147  20192790.3134                   20192788.4184
 -63889493.70347 -49739734.34043  24288267.9224                   24288268.3244
 -20945115.55148 -15909169.21945  21740145.1644                   21740146.0044
 -60720177.37548 -47300969.45746  21187634.7894                   21187630.8094
 11  8 29  1 11 30.0000000  0  8G12G10G29G26G05G04G25G02
 -41492021.30948 -31784309.99246  20887255.4844                   20887253.8284
 -46778963.93047 -36410619.37945  22514821.0944                   22514820.6644
   1344490.92247   3095899.25044  23476191.8364                   23476191.0784
  10013705.84046   7838728.73043  24522635.4454                   24522637.6914
 -41537669.82048 -32353993.13347  20174917.2424                   20174915.1294
 -63901473.94147 -49749069.62143  24285988.2424                   24285987.9494
 -21067066.87548 -16004196.21946  21716938.7894                   21716939.4534
 -60778696.04747 -47346568.43046  21176498.7734                   21176495.3524
 11  8 29  1 12  0.0000000  0  8G12G10G29G26G05G04G25G02
 -41548138.80948 -31828037.93446  20876576.4924                   20876574.6094
 -46776562.81647 -36408748.38744  22515277.8674                   22515277.3714
   1170679.60547   2960461.91844  23443116.4614                   23443115.7934
   9830570.78546   7696026.30143  24487785.9454                   24487787.9844
 -41631002.52348 -32426719.89147  20157156.7424                   20157154.8364
 -63913496.02347 -49758437.46544  24283701.1094                   24283701.4344
 -21188441.01248 -16098773.45746  21693841.8524                   21693842.7074
 -60837092.76647 -47392072.37146  21165386.1174                   21165382.9064
 11  8 29  1 12 30.0000000  0  8G12G10G29G26G05G04G25G02
 -41603698.17648 -31871330.95746  20866004.4694                   20866002.6804
 -46773841.43047 -36406627.85944  22515795.9224                   22515795.6254
    996868.39147   2825024.64145  23410041.6804                   23410040.5944
   9647348.34046   7553255.75443  24452919.1884                   24452921.7114
 -41723747.52748 -32498988.69147  20139507.8984                   20139505.6134
 -63925562.32447 -49767839.80943  24281404.7424                   24281405.7624
 -21309239.16448 -16192901.87146  21670854.7734                   21670855.9264
 -60895370.73047 -47437483.77046  21154296.3594                   21154292.3244
 11  8 29  1 13  0.0000000  0  8G12G10G29G26G05G04G25G02
 -41658697.28548 -31914187.44146  20855538.1334                   20855536.7154
 -46770798.83247 -36404257.04344  22516375.5704                   22516374.5704
    823062.50047   2689591.52044  23376967.3674                   23376966.0704
   9464045.50446   7410422.57843  24418037.4454                   24418040.3244
 -41815901.51248 -32570796.96547  20121971.4064                   20121969.4534
 -63937669.12947 -49777273.69143  24279101.0084                   24279101.9264
 -21429456.38748 -16286577.61346  21647977.9534                   21647978.6644
 -60953526.18048 -47482799.70746  21143229.7194                   21143225.9144
 11  8 29  1 13 30.0000000  0  8G12G10G29G26G05G04G25G02
 -41713145.72348 -31956614.83646  20845177.2114                   20845175.2704
 -46767446.06647 -36401644.51244  22517013.5314                   22517012.4104
    649254.85947   2554157.01645  23343892.6804                   23343891.6644
   9280656.94146   7267522.56343  24383139.7894                   24383142.4494
 -41907473.03148 -32642151.37147  20104546.1484                   20104543.9804
 -63949824.93047 -49786745.76643  24276786.7584                   24276789.0824
 -21549100.07848 -16379806.44146  21625210.3754                   21625211.3054
 -61011567.82448 -47528026.97746  21132184.9384                   21132180.8134
 11  8 29  1 14  0.0000000  0  8G12G10G29G26G05G04G25G02
 -40191620.26248 -30771010.61346  21134713.3524                   21134711.8554
 -45188363.31647 -35171190.45344  22817502.8834                   22817501.6094
   2050875.46547   3646328.93845  23610611.6414                   23610611.0634
  10672614.44146   8352164.98043  24648020.2504                   24648023.1414
 -40423037.06248 -31485447.99647  20387024.7734                   20387023.0704
 -62386606.87146 -48568653.78543  24574257.4454                   24574259.4024
 -20092742.50048 -15244982.33646  21902346.5004                   21902346.3834
 -59494071.58248 -46345562.37546  21420954.8284                   21420950.7774
 11  8 29  1 14 30.0000000  0  8G12G10G29G26G05G04G25G02
 -40244963.71548 -30812576.93746  21124562.4844                   21124561.1094
 -45184391.21147 -35168095.31644  22818258.6254                   22818258.1174
   1877076.31647   3510901.05945  23577539.6954                   23577538.8674
  10489070.77047   8209144.14144  24613093.8674                   24613096.2774
 -40513437.74248 -31555890.05547  20369822.1174                   20369820.1644
 -62398853.80146 -48578196.85543  24571927.5234                   24571928.9024
 -20211228.79748 -15337309.32846  21879799.1334                   21879799.6844
 -59551880.25448 -46390608.08646  21409954.1334                   21409950.5984
 11  8 29  1 15  0.0000000  0  8G12G10G29G26G05G04G25G02
 -40297757.87948 -30853715.24246  21114516.3204                   21114514.4304
 -45180114.31647 -35164762.72744  22819072.6724                   22819071.2894
   1703282.89147   3375477.62945  23544467.7664                   23544466.4494
  10305453.43447   8066065.90643  24578152.2584                   24578154.5044
 -40603254.45348 -31625877.07847  20352730.8364                   20352728.1374
 -62411147.11746 -48587776.12743  24569587.8444                   24569589.0234
 -20329135.75848 -15429184.86746  21857362.0634                   21857363.2934
 -59609573.46548 -46435563.84046  21398976.1724                   21398972.5864
 11  8 29  1 15 30.0000000  0  8G12G10G29G26G05G04G25G02
 -40350003.32048 -30894425.98046  21104574.3914                   21104572.5164
 -45175534.83647 -35161194.30944  22819944.3444                   22819943.1724
   1529497.33647   3240060.32845  23511397.2664                   23511396.2424
  10121766.60947   7922933.50044  24543197.5554                   24543199.5594
 -40692487.08248 -31695408.96547  20335750.1564                   20335748.0864
 -62423486.50446 -48597391.27343  24567239.3984                   24567240.6884
 -20446461.56248 -15520607.56646  21835035.6644                   21835036.7504
 -59667151.16048 -46480429.56646  21388018.8204                   21388015.1604
 11  8 29  1 16  0.0000000  0  8G12G10G29G26G05G04G25G02
 -40401702.48048 -30934711.05946  21094736.6334                   21094734.2774
 -45170656.54347 -35157393.07444  22820872.2974                   22820872.1094
   1355720.14547   3104649.53945  23478328.8984                   23478327.6994
   9938012.04747   7779748.33643  24508229.7814                   24508230.9264
 -40781137.09048 -31764486.87147  20318880.5554                   20318878.1024
 -62435872.42646 -48607042.71142  24564882.8364                   24564883.9144
 -20563206.38348 -15611577.54346  21812819.9454                   21812820.6994
 -59724614.41448 -46525206.12546  21377084.0554                   21377080.2544
 11  8 29  1 16 30.0000000  0  8G12G10G29G26G05G04G25G02
 -40452854.89148 -30974570.09046  21085002.1804                   21085000.5904
 -45165479.89147 -35153359.35944  22821857.5084                   22821856.7894
   1181954.60247   2969247.83245  23445261.8134                   23445261.0314
   9754195.28947   7636514.71943  24473250.2734                   24473250.8204
 -40869202.97748 -31833109.60547  20302122.0314                   20302119.9844
 -62448303.48846 -48616729.30142  24562516.8204                   24562518.6994
 -20679367.28148 -15702092.51646  21790715.1174                   21790715.5274
 -59781961.86348 -46569892.46546  21366171.4144                   21366167.1954
 11  8 29  1 17  0.0000000  0  8G12G10G29G26G05G04G25G02
 -40503467.64148 -31014008.61746  21075371.0394                   21075369.3524
 -45160013.96947 -35149100.23044  22822897.8284                   22822897.3014
   1008196.54747   2833851.95745  23412197.0554                   23412195.9774
   9570313.46146   7493230.34443  24438257.7584                   24438258.7974
 -40956690.94148 -31901282.02747  20285473.6564                   20285471.6254
 -62460785.05946 -48626455.25842  24560142.5864                   24560144.0634
 -20794949.20348 -15792156.34446  21768720.8204                   21768721.6024
 -59839199.57848 -46614493.30146  21355279.8674                   21355275.0124
 11  8 29  1 17 30.0000000  0  8G12G10G29G26G05G04G25G02
 -40553539.51648 -31053025.67246  21065842.6024                   21065841.0004
 -45154258.14147 -35144615.19544  22823993.3524                   22823992.3444
    834451.05147   2698465.86345  23379134.0234                   23379133.8364
   9386372.69546   7349900.05943  24403254.8674                   24403256.6524
 -41043598.23448 -31969001.97347  20268935.8284                   20268933.8714
 -62473314.11346 -48636218.28942  24557758.7974                   24557759.9414
 -20909948.04348 -15881765.80946  21746837.2664                   21746837.7194
 -59896324.85248 -46659006.50446  21344408.6414                   21344405.2194
 11  8 29  1 18  0.0000000  0  8G12G10G29G26G05G04G25G02
 -40603073.47348 -31091623.57846  21056416.3284                   21056414.8094
 -45148216.54347 -35139907.48044  22825142.9844                   22825141.9534
    660717.67246   2563089.21944  23346073.5164                   23346072.8324
   9202374.96146   7206525.43042  24368241.1564                   24368242.1994
 -41129927.27048 -32036271.32047  20252508.1414                   20252506.1844
 -62485892.57846 -48646019.67642  24555364.4454                   24555365.9924
 -21024364.71948 -15970921.63346  21725064.0634                   21725065.1214
 -59953339.62548 -46703433.59846  21333559.3054                   21333555.8324
 11  8 29  1 18 30.0000000  0  8G12G10G29G26G05G04G25G02
 -40652073.75448 -31129805.63746  21047092.5234                   21047090.6214
 -45141894.73047 -35134981.41444  22826346.2344                   22826344.9304
    486995.64846   2427721.44144  23313014.6094                   23313014.8954
   9018320.80546   7063106.76642  24333216.8444                   24333218.0084
 -41215680.98848 -32103092.38347  20236189.3444                   20236187.3284
 -62498522.750 6                  24552960.602
 -21138200.85948 -16059625.09446  21703401.8524                   21703403.3714
 -60010246.57048 -46747776.66446  21322730.0314                   21322726.6724
 11  8 29  1 19  0.0000000  0  8G12G10G29G26G05G04G25G02
 -40700539.21548 -31167570.95746  21037869.8364                   21037868.0434
 -45135292.90647 -35129837.17644  22827602.2274                   22827601.6684
    313288.91846   2292365.59444  23279960.0314                   23279959.6764
   8834215.59846   6919648.35942  24298182.7894                   24298183.8444
 -41300857.85248 -32169463.94147  20219980.7424                   20219978.6094
 -62511202.547 6                  24550547.938
 -21251453.40248 -16147873.80946  21681850.7034                   21681851.5044
 -60067043.87147 -46792034.29746  21311922.1804                   21311918.4264
 11  8 29  1 19 30.0000000  0  8G12G10G29G26G05G04G25G02
 -40748471.12148 -31204920.52346  21028748.6484                   21028746.8134
 -45128413.47347 -35124476.62544  22828911.2274                   22828910.3404
    139599.46946   2157023.21944  23246908.2584                   23246907.2934
   8650063.35946   6776153.29342  24263140.4144                   24263141.2704
 -41385458.02748 -32235386.12547  20203881.7584                   20203879.7074
 -62523931.371 6                  24548126.211
 -21364121.12148 -16235666.79746  21660410.8834                   21660410.8364
 -60123731.29348 -46836206.30946  21301134.6724                   21301130.9654
 11  8 29  1 20  0.0000000  0  8G12G10G29G26G05G04G25G02
 -40795872.10248 -31241856.38346  21019728.6564                   21019726.5314
 -45121259.84847 -35118902.40244  22830272.7504                   22830271.2934
    -34072.21946   2021694.68044  23213859.7974                   23213858.3754
   8465866.25846   6632623.29342  24228088.2344                   24228089.8244
 -41469482.92648 -32300860.05947  20187892.3524                   20187890.0634
 -62536709.81646 -48655339.69553  24545694.4774                   24545695.3594
 -21476204.08248 -16323004.13346  21639082.0084                   21639082.1844
 -60180310.06648 -46880293.67246  21290367.9224                   21290364.7114
 11  8 29  1 20 30.0000000  0  8G12G10G29G26G05G04G25G02
 -40842745.69948 -31278381.28146  21010809.2734                   21010807.1764
 -45113837.02047 -35113118.42644  22831685.3524                   22831683.8754
   -207726.57846   1886379.65644  23180814.8444                   23180812.9494
   8281625.55546   6489059.31642  24193028.2194                   24193031.1764
 -41552935.50048 -32365888.01647  20172011.9534                   20172009.7234
 -62549540.18747 -48665337.43443  24543253.3674                   24543254.7034
 -21587703.66048 -16409886.89146  21617864.3674                   21617864.9804
 -60236782.50048 -46924298.17646  21279621.9304                   21279617.7854
 11  8 29  1 21  0.0000000  0  8G12G10G29G26G05G04G25G02
 -40889093.33248 -31314496.32446  21001989.2814                   21001987.5864
 -45106147.60247 -35107126.70344  22833148.5474                   22833147.4454
   -381361.54746   1751079.73444  23147772.1334                   23147771.7814
   8097344.94947   6345464.21143  24157960.6564                   24157962.9614
 -41635815.93448 -32430470.16047  20156240.3914                   20156238.0044
 -62562421.96546 -48675375.15243  24540801.6724                   24540803.5274
 -21698618.66448 -16496314.13346  21596757.7584                   21596758.6254
 -60293148.41048 -46968219.67646  21268895.9064                   21268891.5664
 11  8 29  1 21 30.0000000  0  8G12G10G29G26G05G04G25G02
 -40934914.83248 -31350201.38346  20993269.5084                   20993268.1334
 -45098192.30947 -35100927.82444  22834662.5634                   22834661.7504
   -554973.73446   1615797.57044  23114734.7034                   23114734.3164
   7913029.23847   6201841.75443  24122887.5084                   24122888.9184
 -41718123.56648 -32494605.96947  20140577.6884                   20140575.6524
 -62575353.52346 -48685451.71943  24538341.1804                   24538342.4694
 -21808947.04748 -16582284.26246  21575763.0394                   21575763.8444
 -60349406.51648 -47012057.17646  21258190.1804                   21258186.0784
 11  8 29  1 22  0.0000000  0  7G12G10G29G26G05G25G02
 -40980212.74248 -31385498.44946  20984649.9384                   20984647.9304
 -45089974.20747 -35094524.16844  22836226.2114                   22836225.7624
   -728562.04746   1480534.01244  23081702.2424                   23081701.5744
   7728681.54347   6058194.35243  24087806.7734                   24087808.4064
 -41799859.28148 -32558296.12547  20125023.7504                   20125021.4964
 -21918688.44948 -16667797.02346  21554880.1024                   21554880.8094
 -60405557.48848 -47055811.17646  21247504.9844                   21247501.3484
 11  8 29  1 22 30.0000000  0  7G12G10G29G26G05G25G02
 -39449566.64548 -30192787.20346  21275922.0314                   21275920.4384
 -43506076.23047 -33860318.00844  23137632.6254                   23137631.3594
    673301.32846   2572895.14844  23348468.2974                   23348467.3404
   9119731.16847   7142129.30543  24352514.3054                   24352516.0234
 -40305600.68748 -31393938.75847  20409371.6254                   20409369.8984
 -20452418.52348 -15525249.01246  21833901.9064                   21833902.5164
 -58886179.82048 -45871880.51646  21536632.7734                   21536629.6334
 11  8 29  1 23  0.0000000  0  7G12G10G29G26G05G25G02
 -39493821.36348 -30227271.40246  21267500.4774                   21267498.5984
 -43497339.91047 -33853510.54344  23139294.5634                   23139293.2234
    499766.83246   2437673.53544  23315445.1564                   23315444.2814
   8935329.81647   6998440.11343  24317424.0474                   24317425.6134
 -40386194.24648 -31456738.90647  20394035.5234                   20394033.1174
 -20560983.32848 -15609844.94546  21813242.7114                   21813243.3164
 -58942116.65248 -45915467.64846  21525988.2344                   21525984.6604
 11  8 29  1 23 30.0000000  0  7G12G10G29G26G05G25G02
 -39537550.90248 -30261346.37546  21259179.0704                   21259177.5434
 -43488342.55546 -33846499.66444  23141006.7814                   23141005.5704
    326267.57447   2302479.37544  23282429.9924                   23282428.8444
   8750912.74647   6854738.67244  24282330.1414                   24282331.2544
 -40466211.92248 -31519090.31647  20378808.5634                   20378806.0554
 -20668952.89548 -15693977.05546  21792696.6484                   21792697.6254
 -58997940.64148 -45958966.87546  21515365.6564                   21515361.7584
 11  8 29  1 24  0.0000000  0  7G12G10G29G26G05G25G02
 -39580760.21548 -30295015.97746  21250956.5394                   21250954.9384
 -43479090.11747 -33839290.02044  23142767.3204                   23142766.6134
    152802.25847   2167311.66044  23249420.5084                   23249419.8444
   8566480.21547   6711025.12543  24247233.2114                   24247234.5394
 -40545657.54348 -31580995.96947  20363690.3524                   20363688.2114
 -20776329.85948 -15777647.40646  21772263.5864                   21772264.4024
 -59053655.12548 -46002380.76246  21504763.0474                   21504759.7194
 11  8 29  1 24 30.0000000  0  7G12G10G29G26G05G25G02
 -39623450.28148 -30328280.97746  21242833.0554                   21242831.4184
 -43469584.53947 -33831883.12544  23144576.2894                   23144575.4924
    -20626.45347   2032172.47344  23216417.1724                   23216416.9454
   8382036.38747   6567302.79343  24212135.5784                   24212135.2344
 -40624531.23048 -31642455.96547  20348681.4844                   20348679.0944
 -20883112.78148 -15860854.89146  21751943.6724                   21751944.2584
 -59109259.55148 -46045708.89846  21494181.8524                   21494178.4574
 11  8 29  1 25  0.0000000  0  7G12G10G29G26G05G25G02
 -39665626.55548 -30361145.61346  21234807.3984                   21234805.9804
 -43459831.57847 -33824283.47344  23146432.0314                   23146431.3594
   -194020.64147   1897060.15244  23183421.3524                   23183420.9064
   8197581.27747   6423571.67244  24177034.0314                   24177034.9454
 -40702837.28148 -31703473.65247  20333780.0634                   20333777.9774
 -20989304.63348 -15943601.78546  21731735.8984                   21731736.1684
 -59164757.47748 -46088954.03946  21483621.4304                   21483617.3054
 11  8 29  1 25 30.0000000  0  7G12G10G29G26G05G25G02
 -39707292.87548 -30393612.87946  21226878.6094                   21226876.9414
 -43449836.45347 -33816495.12144  23148333.8444                   23148333.2894
   -367380.56247   1761974.55144  23150432.3524                   23150431.8404
   8013115.69946   6279832.43043  24141931.0864                   24141932.3244
 -40780579.03548 -31764051.62547  20318986.4454                   20318984.7304
 -21094907.32848 -16025889.61346  21711640.2194                   21711640.8594
 -59220151.47348 -46132118.20346  21473079.9304                   21473075.9774
 11  8 29  1 26  0.0000000  0  7G12G10G29G26G05G25G02
 -39748448.35248 -30425682.09446  21219046.7894                   21219044.9804
 -43439598.84047 -33808517.79744  23150282.5234                   23150281.4804
   -540701.30947   1626919.46144  23117450.5864                   23117449.7464
   7828646.18447   6136090.13343  24106827.3674                   24106829.2034
 -40857754.11748 -31824188.03147  20304300.4534                   20304298.4104
 -21199917.24648 -16107715.52046  21691657.5164                   21691657.9844
 -59275438.92648 -46175199.35246  21462559.3054                   21462555.4304
 11  8 29  1 26 30.0000000  0  7G12G10G29G26G05G25G02
 -39789098.20748 -30457357.32046  21211311.3984                   21211309.6174
 -43429125.12947 -33800356.51244  23152275.3984                   23152275.0084
   -713985.18447   1491893.09444  23084475.3444                   23084474.8954
   7644172.67646   5992344.69943  24071723.4844                   24071724.5314
 -40934367.45748 -31883886.71947  20289721.1644                   20289718.9924
 -21304337.62948 -16189082.05546  21671786.7194                   21671787.5164
 -59330623.50848 -46218200.33246  21452058.0944                   21452054.5004
 11  8 29  1 27  0.0000000  0  7G12G10G29G26G05G25G02
 -39829248.10548 -30488642.98046  21203671.2274                   21203669.3834
 -43418421.71547 -33792016.22343  23154312.4614                   23154311.5944
   -887234.06647   1356893.99644  23051507.3914                   23051506.6024
   7459694.52046   5848595.60943  24036618.5234                   24036618.5394
 -41010423.54348 -31943151.17247  20275248.1414                   20275245.9104
 -21408171.98048 -16269991.95346  21652028.0474                   21652028.6914
 -59385709.10548 -46261124.18046  21441575.3984                   21441571.8874
 11  8 29  1 27 30.0000000  0  7G12G10G29G26G05G25G02
 -39868900.43748 -30519540.93046  21196125.5784                   21196123.3554
 -43407491.29347 -33783499.06244  23156392.5234                   23156391.8094
  -1060446.35947   1221923.43044  23018546.5004                   23018545.3834
   7275215.15646   5704845.61743  24001513.2814                   24001513.4964
 -41085923.41848 -32001982.21947  20260881.1954                   20260879.2624
 -21511419.94948 -16350444.93046  21632380.3594                   21632380.9064
 -59440696.00848 -46303971.11746  21431112.0164                   21431108.6644
 11  8 29  1 28  0.0000000  0  7G12G10G29G26G05G25G02
 -39908053.21548 -30550049.61346  21188674.9224                   21188673.4144
 -43396332.92247 -33774804.26244  23158516.1724                   23158514.8874
  -1233616.33647   1086985.83644  22985593.3054                   22985592.0234
   7090741.65646   5561100.18043  23966409.2584                   23966409.3594
 -41160864.52348 -32060377.86747  20246620.4064                   20246618.5274
 -21614077.41448 -16430437.79346  21612845.4614                   21612845.7274
 -59495580.61348 -46346738.35246  21420667.7664                   21420663.8284
 11  8 29  1 28 30.0000000  0  7G12G10G29G26G05G25G02
 -39946709.62148 -30580171.50446  21181318.8444                   21181317.0394
 -43384950.98447 -33765935.25844  23160682.0234                   23160680.8284
  -1406744.00847    952081.18444  22952648.2894                   22952646.5704
   6906276.05546   5417360.87143  23931306.3054                   23931306.4184
 -41235249.47748 -32118340.15247  20232465.3444                   20232463.0864
 -21716145.72748 -16509971.57446  21593422.3674                   21593423.0434
 -59550364.75848 -46389427.30146  21410242.6884                   21410238.8524
 11  8 29  1 29  0.0000000  0  7G12G10G29G26G05G25G02
 -39984873.34848 -30609909.49646  21174056.7974                   21174054.9144
 -43373349.29347 -33756895.01243  23162889.0394                   23162888.4344
  -1579829.15247    817209.68844  22919711.0314                   22919710.1414
   6721820.21146   5273629.18443  23896205.1484                   23896205.5944
 -41309080.68748 -32175870.94147  20218415.6094                   20218413.2544
 -21817626.11348 -16589047.21546  21574111.4614                   21574112.0164
 -59605049.88348 -46432039.09446  21399836.5554                   21399832.8244
 11  8 29  1 29 30.0000000  0  7G12G10G29G26G05G25G02
 -40022548.85248 -30639267.05546  21166887.3594                   21166885.7584
 -43361532.87147 -33747687.43444  23165138.4694                   23165137.2034
  -1752872.10547    682371.05544  22886782.3914                   22886780.8674
   6537375.34046   5129906.03543  23861106.8054                   23861107.4414
 -41382361.56648 -32232972.91447  20204470.7114                   20204469.0434
 -21918520.51248 -16667666.24246  21554912.0944                   21554912.9144
 -59659638.91048 -46474576.01246  21389448.8054                   21389444.3874
 11  8 29  1 30  0.0000000  0  7G12G10G29G26G05G25G02
 -40059738.34048 -30668245.91446  21159810.1024                   21159808.7504
 -43349504.38747 -33738314.62944  23167427.0234                   23167426.4494
  -1925871.12147    547566.65645  22853861.5474                   22853860.0394
   6352944.71946   4986193.98443  23826010.7974                   23826011.4534
 -41455093.30148 -32289646.97747  20190630.3204                   20190628.0434
 -22018828.78548 -16745828.55146  21535824.1094                   21535824.7934
 -59714131.81248 -46517038.01646  21379079.2504                   21379074.9614
 11  8 29  1 30 30.0000000  0  7G12G10G29G26G05G25G02
 -40096445.97748 -30696849.29346  21152825.4384                   21152823.8554
 -43337269.05947 -33728780.63344  23169756.1644                   23169754.6884
  -2098826.78947    412796.06344  22820948.3914                   22820947.5204
   6168529.53546   4842493.97343  23790917.8284                   23790917.4804
 -41527279.43048 -32345895.88747  20176893.5634                   20176891.5824
 -22118553.15248 -16823535.85546  21516847.1174                   21516847.8054
 -59768530.73848 -46559426.78946  21368727.0164                   21368723.2194
 11  8 29  1 31  0.0000000  0  7G12G10G29G26G05G25G02
 -40132669.94548 -30725075.79346  21145932.1174                   21145930.3324
 -43324825.75847 -33719084.57844  23172123.9144                   23172122.3054
  -2271733.50847    278063.59844  22788046.0234                   22788044.9184
   5984136.89546   4698811.50043  23755828.0864                   23755829.0594
 -41598917.13748 -32401717.46147  20163261.5004                   20163259.3134
 -22217689.57448 -16900785.03146  21497982.1174                   21497982.8984
 -59822832.27348 -46601739.68446  21358393.7894                   21358390.0234
 11  8 29  1 31 30.0000000  0  7G12G10G29G26G05G25G02
 -38592992.53148 -29525327.19546  21438922.8834                   21438920.7304
 -41736758.77747 -32481629.79744  23474322.8674                   23474321.4654
   -869165.05147   1370974.12545  23054945.8284                   23054945.3014
   7375195.05546   5782753.04343  24020538.1884                   24020539.0354
 -40094586.79748 -31229511.98047  20449525.8984                   20449523.7274
 -20740816.01648 -15749974.48846  21779021.8204                   21779022.2384
 -58301616.14148 -45416376.47746  21647871.8984                   21647867.7974
 11  8 29  1 32  0.0000000  0  7G12G10G29G26G05G25G02
 -38628258.51648 -29552807.21946  21432211.8204                   21432210.3054
 -41723910.48447 -32471618.14844  23476768.0164                   23476766.4734
  -1041971.47747   1236319.79745  23022061.6414                   23022060.8954
   7190855.22347   5639111.73043  23985458.7734                   23985459.6914
 -40165134.41848 -31284484.13347  20436101.3444                   20436099.0084
 -20838779.18448 -15826309.43046  21760379.9614                   21760380.6374
 -58355726.37548 -45458540.29746  21637574.8754                   21637571.1884
 11  8 29  1 32 30.0000000  0  7G12G10G29G26G05G25G02
 -38663047.37548 -29579915.45746  21425592.0234                   21425590.0594
 -41710862.48447 -32461450.89144  23479250.8524                   23479249.5124
  -1214723.89147   1101707.56645  22989188.0084                   22989187.0474
   7006548.03947   5495495.84044  23950386.3284                   23950387.3164
 -40235137.81648 -31339032.21947  20422780.0314                   20422777.9064
 -20936154.50848 -15902186.29746  21741849.9844                   21741850.7304
 -58409740.10248 -45500628.90646  21627296.5634                   21627292.6844
 11  8 29  1 33  0.0000000  0  7G12G10G29G26G05G25G02
 -38697362.77048 -29606654.75446  21419061.7344                   21419059.8914
 -41697618.60547 -32451131.00444  23481770.8284                   23481770.6724
  -1387421.57447    967137.99245  22956324.4454                   22956323.7624
   6822275.89846   5351907.29343  23915320.7034                   23915321.6884
 -40304599.19148 -31393157.95747  20409562.0164                   20409559.8554
 -21032942.98848 -15977605.89546  21723431.9454                   21723432.7274
 -58463658.57048 -45542643.29746  21617036.3674                   21617032.0784
 11  8 29  1 33 30.0000000  0  7G12G10G29G26G05G25G02
 -38731206.42648 -29633026.44946  21412621.9144                   21412620.0664
 -41684181.53547 -32440660.56643  23484327.2584                   23484326.8284
  -1560062.78547    832612.43045  22923472.3284                   22923471.1604
   6638042.30146   5208348.77343  23880262.1094                   23880263.2974
 -40373520.10948 -31446862.54747  20396446.9924                   20396444.3754
 -21129144.81248 -16052568.35246  21705125.2424                   21705126.0984
 -58517481.86748 -45584583.52046  21606793.9454                   21606790.0164
 11  8 29  1 34  0.0000000  0  7G12G10G29G26G05G25G02
 -38764583.85548 -29659034.87546  21406270.1414                   21406268.6484
 -41670556.82847 -32430043.91044  23486920.7274                   23486919.9184
  -1732648.39547    698130.19145  22890630.4454                   22890629.2974
   6453847.64546   5064820.59444  23845210.9384                   23845212.2584
 -40441904.54748 -31500149.10247  20383433.8754                   20383431.7074
 -21224762.83648 -16127075.89546  21686929.8984                   21686930.5354
 -58571212.91048 -45626451.86346  21596569.2584                   21596565.4574
 11  8 29  1 34 30.0000000  0  7G12G10G29G26G05G25G02
 -38797495.06247 -29684679.99646  21400007.2034                   21400005.5514
 -41656745.56647 -32419281.89143  23489548.2114                   23489547.6684
  -1905174.71547    563694.13745  22857799.7814                   22857798.6214
   6269697.41846   4921327.04344  23810168.1414                   23810169.4654
 -40509752.28148 -31553017.45347  20370522.7274                   20370520.4574
 -21319795.30548 -16201127.17646  21668845.6334                   21668846.1254
 -58624850.18048 -45668247.13346  21586362.0474                   21586358.2304
 11  8 29  1 35  0.0000000  0  7G12G10G29G26G05G25G02
 -38829944.97748 -29709965.67246  21393832.2894                   21393830.4924
 -41642752.11347 -32408377.91043  23492211.1254                   23492210.6764
  -2077642.00447    429304.09844  22824979.7344                   22824978.6914
   6085593.15646   4777869.29744  23775133.4454                   23775135.0164
 -40577066.35948 -31605469.96547  20357713.5234                   20357711.1454
 -21414244.16448 -16274723.68046  21650872.5004                   21650873.0234
 -58678395.64148 -45709970.86346  21576173.0164                   21576169.4884
 11  8 29  1 35 30.0000000  0  7G12G10G29G26G05G25G02
 -38861933.99647 -29734892.19146  21387745.3284                   21387743.8754
 -41628577.90247 -32397333.08643  23494908.9694                   23494907.7854
  -2250047.28547    294962.34845  22792172.3204                   22792171.3134
   5901539.53146   4634451.03144  23740109.6564                   23740110.3674
 -40643846.96948 -31657506.79347  20345005.0554                   20345002.7384
 -21508108.38748 -16347864.61746  21633010.7664                   21633011.7304
 -58731848.26648 -45751622.25446  21566001.2274                   21565997.3754
 11  8 29  1 36  0.0000000  0  7G12G10G29G26G05G25G02
 -38893462.43748 -29759459.83646  21381745.6414                   21381744.3134
 -41614223.63747 -32386147.96143  23497640.1644                   23497639.5744
  -2422386.76647    160671.89145  22759377.3054                   22759375.6644
   5717541.99646   4491076.46544  23705095.9144                   23705097.1644
 -40710093.52348 -31709127.47747  20332399.0234                   20332396.6844
 -21601386.10548 -16420548.56646  21615260.9694                   21615261.7234
 -58785206.25048 -45793199.90246  21555847.6174                   21555843.8014
 11  8 29  1 36 30.0000000  0  8G12G10G29G26G05G15G25G02
 -38924536.28148 -29783673.25446  21375832.3444                   21375830.7814
 -41599695.47747 -32374827.35243  23500405.4844                   23500403.8484
  -2594661.73447     26431.70345  22726594.3834                   22726593.1724
   5533600.49246   4347745.55144  23670093.0704                   23670093.4574
 -40775810.94948 -31760335.84447  20319893.3364                   20319890.9024
  17110916.75856  13369137.58253  24587009.5004                   24587011.8134
 -21694081.07448 -16492778.40246  21597621.4774                   21597622.3014
 -58838472.98448 -45834706.44946  21545711.2664                   21545707.1604
 11  8 29  1 37  0.0000000  0  8G12G10G29G26G05G15G25G02
 -38955160.87148 -29807536.59446  21370004.7894                   21370002.7854
 -41584998.85247 -32363375.47343  23503201.2114                   23503200.5004
  -2766873.51247   -107759.25045  22693823.3524                   22693821.7384
   5349715.64146   4204458.77044  23635100.6254                   23635101.2894
 -40841003.86748 -31811135.49647  20307487.8444                   20307484.7934
  16928596.46146  13227070.07043  24552314.3914                   24552316.8164
 -21786196.46948 -16564556.62146  21580092.4064                   21580093.2194
 -58891651.74648 -45876144.44146  21535591.5784                   21535587.2274
 11  8 29  1 37 30.0000000  0  8G12G10G29G26G05G15G25G02
 -38985338.12147 -29831051.37146  21364262.3754                   21364260.6484
 -41570136.28547 -32351794.25843  23506030.0234                   23506028.9224
  -2939020.02747   -241899.34845  22661065.1254                   22661063.3364
   5165891.18846   4061219.05944  23600119.7894                   23600121.1764
 -40905673.04748 -31861527.04347  20295181.2504                   20295178.7704
  16746147.63746  13084902.40643  24517595.5474                   24517597.4734
 -21877732.19548 -16635883.14546  21562673.8834                   21562674.8134
 -58944742.22348 -45917513.64846  21525488.8674                   21525484.9304
 11  8 29  1 38  0.0000000  0  8G12G10G29G26G05G15G25G02
 -39015070.22748 -29854219.26646  21358604.2424                   21358603.0004
 -41555110.83647 -32340086.13743  23508889.6174                   23508888.0864
  -3111099.38347   -375987.11745  22628319.4774                   22628318.0354
   4982130.55946   3918029.08644  23565151.3674                   23565151.7114
 -40969820.22348 -31911511.84447  20282974.6094                   20282972.4654
  16563572.78946  12942636.58243  24482852.5084                   24482854.9384
 -21968688.59048 -16706758.24646  21545365.5084                   21545366.0864
 -58997744.71948 -45958814.28546  21515402.7424                   21515399.1374
 11  8 29  1 38 30.0000000  0  8G12G10G29G26G05G15G25G02
 -39044362.50847 -29877044.45346  21353030.6954                   21353029.1994
 -41539927.33647 -32328254.88343  23511778.3134                   23511777.5474
  -3283112.28148   -510023.10245  22595586.6414                   22595584.8914
   4798434.85947   3774889.69144  23530195.2114                   23530196.0044
 -41033449.56648 -31961093.13747  20270866.2424                   20270864.1564
  16380871.67646  12800272.36743  24448086.5234                   24448088.4384
 -22059068.58248 -16777184.21146  21528166.6954                   21528166.8404
 -59050661.96948 -46000048.51646  21505332.8204                   21505328.9344
 11  8 29  1 39  0.0000000  0  8G12G10G29G26G05G15G25G02
 -39073215.13748 -29899527.01246  21347539.6024                   21347537.8484
 -41524586.35247 -32316300.88343  23514697.4144                   23514696.9344
  -3455054.60247   -644004.08645  22562866.8204                   22562865.4184
   4614809.69547   3631805.26644  23495252.8594                   23495253.4844
 -41096560.55148 -32010270.51247  20258856.5634                   20258854.2934
  16198049.35246  12657813.66043  24413296.2814                   24413298.7774
 -22148870.20348 -16847159.48446  21511077.8444                   21511079.1094
 -59103491.50448 -46041214.39546  21495280.2504                   21495275.9654
 11  8 29  1 39 30.0000000  0  8G12G10G29G26G05G15G25G02
 -39101631.66448 -29921669.77746  21342132.3834                   21342130.5864
 -41509091.55547 -32304227.04343  23517646.2344                   23517645.4064
  -3626925.53148   -777929.43745  22530160.9614                   22530159.4804
   4431257.55547   3488777.73444  23460324.0164                   23460325.2154
 -41159155.81248 -32059046.01647  20246945.1724                   20246942.7774
  16015107.03546  12515261.37142  24378483.2734                   24378483.7274
 -22238095.09448 -16916685.38746  21494098.7424                   21494099.4694
 -59156235.00048 -46082313.23446  21485243.4064                   21485239.2424
 11  8 29  1 40  0.0000000  0  8G12G10G29G26G05G15G25G02
 -37554190.78148 -28715871.71546  21636600.4924                   21636598.9304
 -39918023.57047 -31064433.81643  23820416.2424                   23820415.8834
  -2223294.85547    315808.78145  22797263.2114                   22797261.5044
   5823210.45747   4573416.47344  23725204.1564                   23725204.8324
 -39645812.04748 -30879817.09847  20534924.8284                   20534922.1374
  17407476.00046  13600224.45742  24643441.1954                   24643441.5744
 -20751318.07048 -15758157.84446  21777023.3204                   21777024.3284
 -57633468.00448 -44895741.55946  21775016.2974                   21775012.2074
 11  8 29  1 40 30.0000000  0  8G12G10G29G26G05G15G25G02
 -37581737.71948 -28737336.87146  21631358.4144                   21631356.7344
 -39902225.14547 -31052123.40243  23823422.4844                   23823422.6564
  -2395013.21947    182002.30945  22764585.8134                   22764584.8634
   5639818.96547   4430514.11744  23690305.2974                   23690306.2424
 -39707376.10548 -30927789.07047  20523209.6174                   20523207.1724
  17224305.46946  13457494.49242  24608584.8754                   24608585.6804
 -20839386.42248 -15826782.54746  21760264.4224                   21760265.0164
 -57686034.73448 -44936702.65646  21765013.1564                   21765008.8914
 11  8 29  1 41  0.0000000  0  8G12G10G29G26G05G15G25G02
 -37608850.59048 -28758463.79746  21626198.7974                   21626197.4924
 -39886275.62147 -31039695.26243  23826458.0164                   23826457.6644
  -2566649.18047     48260.04345  22731924.3984                   22731923.3094
   5456516.25847   4287680.95344  23655424.1414                   23655424.2584
 -39768423.89848 -30975358.76247  20511592.7274                   20511590.2504
  17041028.02746  13314681.25443  24573708.2504                   24573709.0124
 -20926873.90248 -15894954.62146  21743616.2424                   21743616.8484
 -57738510.48847 -44977592.86346  21755026.8594                   21755023.4264
 11  8 29  1 41 30.0000000  0  8G12G10G29G26G05G15G25G02
 -37635535.86748 -28779257.53546  21621120.9694                   21621119.1994
 -39870181.66847 -31027154.57043  23829520.2894                   23829519.9884
  -2738204.94147    -85419.74245  22699278.8364                   22699277.2384
   5273301.83647   4144916.57043  23620558.8984                   23620559.4964
 -39828961.21948 -31022530.69147  20500072.8594                   20500070.4414
  16857642.44946  13171783.69143  24538810.7034                   24538811.3284
 -21013785.09048 -15962677.64846  21727077.6724                   21727078.5514
 -57790899.08648 -45018415.15646  21745057.6484                   21745054.4804
 11  8 29  1 42  0.0000000  0  8G12G10G29G26G05G15G25G02
 -37661795.95348 -28799719.94146  21616123.4924                   21616122.5944
 -39853946.10247 -31014503.54343  23832610.0234                   23832609.5314
  -2909678.68047   -219035.58245  22666648.4064                   22666647.2114
   5090179.28947   4002223.79743  23585711.8754                   23585711.5474
 -39888989.49648 -31069305.96547  20488649.8984                   20488647.3404
  16674150.60946  13028803.33643  24503892.7344                   24503893.6914
 -21100120.60948 -16029952.09846  21710649.0474                   21710649.3524
 -57843200.66848 -45059169.64546  21735105.5394                   21735101.8914
 11  8 29  1 42 30.0000000  0  8G12G10G29G26G05G15G25G02
 -37687634.37547 -28819853.77746  21611206.5864                   21611205.4184
 -39837572.10547 -31001744.62943  23835725.9304                   23835725.2074
  -3081069.21147   -352586.59445  22634033.6484                   22634032.0044
   4907151.30147   3859604.68444  23550882.9454                   23550882.4614
 -39948511.21948 -31115686.52047  20477323.1254                   20477320.7544
  16490554.62546  12885741.85243  24468955.8444                   24468956.2504
 -21185881.64848 -16096778.89846  21694328.4844                   21694329.2074
 -57895415.92247 -45099856.87146  21725169.3914                   21725165.3014
 11  8 29  1 43  0.0000000  0  8G12G10G29G26G05G15G25G02
 -37713052.55948 -28839660.15646  21606370.0784                   21606368.6094
 -39821061.22347 -30988879.05943  23838868.6954                   23838866.7194
  -3252373.54747   -486070.45345  22601435.6484                   22601433.8794
   4724222.31647   3717062.72744  23516072.5004                   23516072.2894
 -40007527.16048 -31161672.95347  20466092.7274                   20466090.6214
  16306858.09047  12742601.98044  24433998.9694                   24433999.7774
 -21271067.92248 -16163157.83246  21678118.1174                   21678119.1294
 -57947544.21147 -45140476.33245  21715249.2814                   21715245.5634
 11  8 29  1 43 30.0000000  0  8G12G10G29G26G05G15G25G02
 -37738050.68047 -28859139.22346  21601613.3914                   21601611.7114
 -39804413.36747 -30975906.75443  23842036.2344                   23842034.8284
  -3423587.13347   -619483.58645  22568854.8284                   22568853.7154
   4541398.76247   3574602.93444  23481282.2424                   23481283.1334
 -40066036.65648 -31207264.76247  20454959.0004                   20454956.4144
  16123066.22347  12599387.82444  24399025.0784                   24399024.9654
 -21355677.42648 -16229087.32846  21662017.8754                   21662018.5554
 -57999582.89148 -45181025.97345  21705346.8914                   21705343.4494
 11  8 29  1 44  0.0000000  0  8G12G10G29G26G05G15G25G02
 -37762629.64147 -28878291.65646  21596935.7114                   21596934.2154
 -39787630.37947 -30962829.14543  23845230.4304                   23845228.9964
  -3594707.00447   -752823.68445  22536291.5084                   22536290.3794
   4358685.24647   3432228.86344  23446513.5394                   23446513.0664
 -40124040.01248 -31252462.16847  20443921.1724                   20443918.8404
  15939182.89847  12456102.36744  24364032.7194                   24364033.5044
 -21439709.43748 -16294566.83646  21646026.6024                   21646027.5554
 -58051530.39847 -45221504.55946  21695461.3594                   21695457.9774
 11  8 29  1 44 30.0000000  0  8G12G10G29G26G05G15G25G02
 -37786799.08647 -28897124.99646  21592336.6334                   21592335.1724
 -39770721.53947 -30949653.48043  23848447.0704                   23848446.7814
  -3765737.67647   -886094.28145  22503745.7734                   22503744.1134
   4176078.47747   3289937.98444  23411764.0944                   23411764.2464
 -40181545.83648 -31297271.89547  20432977.9144                   20432975.2974
  15755203.97347  12312742.43444  24329022.1724                   24329024.3794
 -21523171.52748 -16359602.23846  21630144.6484                   21630145.3524
 -58103394.28947 -45261917.98445  21685592.1884                   21685588.4574
 11  8 29  1 45  0.0000000  0  8G12G10G29G26G05G15G25G02
 -37810558.35947 -28915638.73446  21587815.3914                   21587813.4734
 -39753685.98446 -30936379.07443  23851689.2734                   23851688.5744
  -3936674.11747  -1019291.46145  22471217.6724                   22471215.7424
   3993585.00447   3147735.38744  23377036.3524                   23377036.6884
 -40238552.85948 -31341692.95347  20422130.2504                   20422127.4694
  15571135.03147  12169312.34844  24293994.4064                   24293996.3874
 -21606061.14548 -16424191.54746  21614371.2344                   21614371.5744
 -58155171.00847 -45302263.48046  21675739.4614                   21675735.5204
 11  8 29  1 45 30.0000000  0  8G12G10G29G26G05G15G25G02
 -37833909.02047 -28933834.06646  21583372.1174                   21583370.3244
 -39736525.55947 -30923007.35243  23854954.5314                   23854954.0124
  -4107513.38347  -1152412.94145  22438708.0554                   22438706.4024
   3811209.92246   3005625.03144  23342331.1724                   23342332.5744
 -40295061.64848 -31385725.77047  20411376.6414                   20411374.5394
  15386979.86346  12025815.02044  24258951.1724                   24258952.5634
 -21688377.94148 -16488334.50046  21598706.5314                   21598707.3244
 -58206859.28947 -45342540.06646  21665903.4534                   21665899.7974
 11  8 29  1 46  0.0000000  0  8G12G10G29G26G05G15G25G02
 -37856854.88347 -28951713.96546  21579005.5004                   21579004.0434
 -39719243.89147 -30909541.16443  23858242.9224                   23858242.9264
  -4278254.61747  -1285458.02345  22406216.6174                   22406215.1604
   3628955.46546   2863608.68044  23307648.7274                   23307650.2854
 -40351075.13748 -31429372.63746  20400717.6174                   20400715.2034
  15202740.10946  11882251.78943  24223891.0554                   24223892.7424
 -21770123.78148 -16552032.54746  21583151.1414                   21583152.1484
 -58258460.85547 -45382749.08646  21656083.9384                   21656080.4414
 11  8 29  1 46 30.0000000  0  8G12G10G29G26G05G15G25G02
 -37879397.87148 -28969279.94546  21574715.7664                   21574714.3404
 -39701843.18447 -30895982.20743  23861554.3284                   23861554.4614
  -4448895.30147  -1418424.74645  22373745.0864                   22373742.9614
   3446825.63747   2721689.44544  23272990.9304                   23272991.5904
 -40406594.65248 -31472634.59047  20390152.7894                   20390150.1094
  15018418.83646  11738625.05543  24188815.4694                   24188817.1254
 -21851298.92648 -16615285.90246  21567703.8134                   21567705.3554
 -58309975.09847 -45422890.05546  21646281.1884                   21646277.5984
 11  8 29  1 47  0.0000000  0  8G12G10G29G26G05G15G25G02
 -37901541.07447 -28986534.41046  21570502.3134                   21570500.8404
 -39684325.74247 -30882332.33243  23864888.6884                   23864888.4184
  -4619433.53947  -1551311.63745  22341292.3364                   22341290.5554
   3264824.23447   2579870.27744  23238357.6174                   23238357.4494
 -40461622.32448 -31515513.28946  20379681.4064                   20379678.9304
  14834018.23846  11594936.52343  24153725.7114                   24153726.6024
 -21931904.31248 -16678095.28546  21552365.2664                   21552366.2234
 -58361401.73047 -45462962.74645  21636494.8834                   21636491.2274
 11  8 29  1 47 30.0000000  0  8G12G10G29G26G05G15G25G02
 -37923286.93047 -29003479.25846  21566364.2814                   21566362.9494
 -39666694.31646 -30868593.61743  23868243.5394                   23868243.3094
  -4789867.51247  -1684117.28945  22308859.7894                   22308858.0744
   3082954.48447   2438153.68444  23203749.2344                   23203749.0434
 -40516160.02748 -31558010.20346  20369303.3674                   20369300.6024
  14649541.28946  11451188.48843  24118621.0084                   24118620.5234
 -22011940.79748 -16740461.36746  21537134.7894                   21537135.4964
 -58412741.13748 -45502967.47346  21626725.8834                   21626721.8014
 11  8 29  1 48  0.0000000  0  8G12G10G29G26G05G15G25G02
 -37944638.84447 -29020117.13346  21562300.8594                   21562299.6564
 -39648951.78546 -30854768.29743  23871620.3054                   23871619.4414
  -4960195.49647  -1816840.37945  22276447.2584                   22276445.8134
   2901219.68047   2296542.25444  23169165.9614                   23169165.8404
 -40570209.76648 -31600126.86747  20359017.9064                   20359015.4024
  14464990.29747  11307382.68443  24083501.5634                   24083500.2464
 -22091409.57448 -16802385.09846  21522012.6094                   21522013.4964
 -58463993.72347 -45542904.55946  21616972.2584                   21616968.8324
 11  8 29  1 48 30.0000000  0  8G12G10G29G26G05G15G25G02
 -37965597.25848 -29036448.38346  21558312.4694                   21558310.7704
 -39631099.15246 -30840857.23843  23875016.6564                   23875017.5084
  -5130413.33647  -1949477.60945  22244056.2034                   22244055.0314
   2719625.43047   2155040.34444  23134610.0474                   23134609.8914
 -40623771.58648 -31641863.34447  20348825.3364                   20348822.6454
  14280370.10946  11163522.97743  24048369.8364                   24048368.0044
 -22170309.60248 -16863865.64846  21506998.5634                   21506999.0204
 -58515157.61347 -45582772.52746  21607236.2194                   21607232.5474
 11  8 29  1 49  0.0000000  0  8G12G10G29G26G05G15G25G02
 -36410745.76647 -27824875.81646  21854191.1024                   21854189.5204
 -38037720.93446 -29599263.88743  24178226.5234                   24178226.5234
  -3725095.39547   -854424.63345  22511479.1254                   22511477.9694
   4113599.59847   3241254.08644  23399873.7584                   23399873.7814
 -39101427.30548 -30455621.04746  20638518.1254                   20638515.2974
  15671107.23046  12247214.50843  24313018.3054                   24313018.0084
 -20673220.94148 -15697303.06246  21791884.8284                   21791885.5824
 -56990812.49647 -44394971.12946  21897309.4064                   21897305.7194
 11  8 29  1 49 30.0000000  0  8G12G10G29G26G05G15G25G02
 -36430931.35548 -27840604.87546  21850350.0004                   21850348.1604
 -38019661.39546 -29585191.61743  24181663.5474                   24181664.1214
  -3895093.53147   -986890.66445  22479129.5944                   22479128.5824
   3932290.87947   3099974.66444  23365372.1254                   23365372.6174
 -39154025.52048 -30496606.66846  20628508.6484                   20628505.9734
  15486349.57847  12103247.73443  24277859.9614                   24277858.9184
 -20750992.57848 -15757904.35246  21777085.1024                   21777085.8954
 -57041804.85248 -44434705.42646  21887605.8984                   21887601.9064
 11  8 29  1 50  0.0000000  0  8G12G10G29G26G05G15G25G02
 -36450733.52348 -27856035.17646  21846581.9694                   21846580.1484
 -38001500.33646 -29571040.23043  24185119.3984                   24185119.7894
  -4064977.19147  -1119267.50445  22446801.7894                   22446800.4694
   3751132.14147   2958812.09044  23330898.3594                   23330899.4144
 -39206142.76248 -30537217.50046  20618591.2274                   20618588.5164
  15301529.39147  11959232.19143  24242689.3834                   24242687.7544
 -20828199.60548 -15818065.68446  21762393.5474                   21762394.1994
 -57092709.77047 -44474371.60546  21877919.3054                   21877915.3674
 11  8 29  1 50 30.0000000  0  8G12G10G29G26G05G15G25G02
 -36470155.17647 -27871168.96146  21842886.1564                   21842884.5004
 -37983241.16846 -29556812.39543  24188594.4694                   24188593.8324
  -4234744.96547  -1251554.04745  22414495.6954                   22414494.6764
   3570126.07047   2817768.51244  23296453.8914                   23296454.4924
 -39257782.17248 -30577455.99646  20608764.5474                   20608762.4884
  15116648.07047  11815168.99643  24207507.6884                   24207505.1914
 -20904843.92248 -15877788.52746  21747808.4384                   21747809.1564
 -57143528.12947 -44513970.30946  21868248.5704                   21868245.2544
 11  8 29  1 51  0.0000000  0  8G12G10G29G26G05G15G25G02
 -36489198.97747 -27886008.30546  21839262.0004                   21839260.2464
 -37964886.07446 -29542509.77743  24192087.5784                   24192086.4144
  -4404394.44947  -1383748.43045  22382212.4454                   22382211.1844
   3389276.77747   2676847.06644  23262039.3914                   23262039.4494
 -39308945.12948 -30617323.22347  20599028.5084                   20599025.9104
  14931708.80547  11671060.64544  24172313.9064                   24172313.5744
 -20980926.12948 -15937073.37946  21733330.1024                   21733330.6294
 -57194259.55947 -44553501.27345  21858594.8134                   21858590.9964
 11  8 29  1 51 30.0000000  0  8G12G10G29G26G05G15G25G02
 -36507870.23847 -27900557.35246  21835708.9844                   21835707.1914
 -37946439.90246 -29528136.20343  24195597.4534                   24195596.5864
  -4573926.04747  -1515850.94545  22349952.1094                   22349950.5314
   3208585.21547   2536048.53544  23227655.1954                   23227654.3484
 -39359636.41048 -30656822.91846  20589382.2584                   20589379.6454
  14746711.90247  11526907.38744  24137110.2274                   24137110.1764
 -21056449.75048 -15995922.97745  21718958.6884                   21718959.0204
 -57244906.53548 -44592966.45346  21848956.9224                   21848953.1054
 11  8 29  1 52  0.0000000  0  8G12G10G29G26G05G15G25G02
 -36526170.40647 -27914817.23446  21832226.4694                   21832224.9304
 -37927904.22346 -29513692.89843  24199124.3594                   24199124.3834
  -4743336.89147  -1647859.37945  22317714.2274                   22317712.7664
   3028056.12947   2395376.61344  23193301.4144                   23193300.6374
 -39409856.75448 -30695955.65247  20579825.5394                   20579822.7464
  14561661.20747  11382712.19944  24101896.0784                   24101896.7854
 -21131414.93748 -16054337.41446  21704692.9304                   21704693.7544
 -57295467.84447 -44632364.87145  21839335.6254                   21839331.7974
 11  8 29  1 52 30.0000000  0  8G12G10G29G26G05G15G25G02
 -36544102.17247 -27928790.06646  21828814.3444                   21828813.1604
 -37909281.87546 -29499182.03143  24202668.8594                   24202667.8244
  -4912624.94547  -1779772.11345  22285499.7114                   22285498.0314
   2847692.82447   2254833.88344  23158979.9694                   23158979.0004
 -39459608.51648 -30734723.26247  20570358.2274                   20570355.7034
  14376559.07047  11238476.92644  24066672.7194                   24066673.4454
 -21205822.88348 -16112317.65246  21690534.0004                   21690534.6214
 -57345943.74247 -44671696.74245  21829730.4384                   21829726.2774
 11  8 29  1 53  0.0000000  0  8G12G10G29G26G05G15G25G02
 -36561668.77347 -27942478.35246  21825471.5394                   21825470.2774
 -37890574.82846 -29484605.18743  24206228.0704                   24206228.1454
  -5081787.56247  -1911587.11745  22253308.8594                   22253307.4964
   2667499.83247   2114423.87544  23124689.8834                   23124689.1994
 -39508893.13348 -30773126.84847  20560979.8134                   20560977.1684
  14191409.01647  11094204.32044  24031439.2114                   24031440.6954
 -21279674.04748 -16169864.03146  21676480.5234                   21676481.1214
 -57396333.66448 -44710961.63345  21820141.2664                   21820137.3954
 11  8 29  1 53 30.0000000  0  8G12G10G29G26G05G15G25G02
 -36578870.19147 -27955882.07446  21822198.2584                   21822196.5354
 -37871783.15646 -29469962.37143  24209804.1564                   24209804.3244
  -5250820.34447  -2043300.94545  22221142.9694                   22221141.7344
   2487482.80547   1974150.96144  23090433.3054                   23090432.8134
 -39557710.35248 -30811166.23846  20551690.2894                   20551687.4344
  14006215.82047  10949898.12944  23996197.4774                   23996199.1564
 -21352967.35548 -16226975.69946  21662533.3674                   21662534.0594
 -57446635.04747 -44750157.52045  21810569.3754                   21810565.9264
 11  8 29  1 54  0.0000000  0  8G12G10G29G26G05G15G25G02
 -36595711.71148 -27969005.35245  21818993.4844                   21818991.3714
 -37852911.80946 -29455257.46143  24213396.0474                   24213395.4104
  -5419723.92647  -2174914.08245  22189002.1334                   22189000.2034
   2307642.48447   1834015.71544  23056210.5554                   23056209.9774
 -39606064.81648 -30848845.03946  20542488.5394                   20542486.2344
  13820979.64547  10805558.41044  23960948.7894                   23960949.2734
 -21425706.72748 -16283655.74646  21648691.4844                   21648692.2734
 -57496850.72347 -44789286.61345  21801013.8204                   21801009.7234
 11  8 29  1 54 30.0000000  0  8G12G10G29G26G05G15G25G02
 -36612196.94547 -27981851.00846  21815856.2504                   21815854.9654
 -37833964.16846 -29440493.11743  24217001.3594                   24217001.1094
  -5588497.18047  -2306425.66445  22156885.3284                   22156883.9264
   2127981.98447   1694020.62144  23022022.1414                   23022022.3244
 -39653959.49648 -30886165.56646  20533374.5084                   20533371.6214
  13635702.41046  10661186.73844  23925691.3444                   23925692.1454
 -21497894.21948 -16339905.75846  21634954.8754                   21634955.3874
 -57546981.31248 -44828349.41445  21791474.0784                   21791470.6294
 11  8 29  1 55  0.0000000  0  8G12G10G29G26G05G15G25G02
 -36628327.75047 -27994420.46946  21812786.8594                   21812785.4844
 -37814941.05146 -29425669.92643  24220621.3914                   24220621.0864
  -5757136.32847  -2437832.76645  22124794.5394                   22124792.8714
   1948506.32447   1554169.55144  22987869.3674                   22987869.3714
 -39701395.03548 -30923128.32046  20524347.7974                   20524345.5204
  13450388.16847  10516786.21144  23890427.3524                   23890427.5394
 -21569529.44148 -16395725.42246  21621322.7974                   21621323.8134
 -57597025.66447 -44867345.02346  21781951.0704                   21781947.3324
 11  8 29  1 55 30.0000000  0  8G12G10G29G26G05G15G25G02
 -36644109.67647 -28006718.09046  21809783.4924                   21809782.0274
 -37795847.77346 -29410792.12543  24224254.9064                   24224254.9304
  -5925641.80547  -2569135.68045  22092728.9384                   22092727.7114
   1769216.55547   1414463.32844  22953752.0084                   22953751.4304
 -39748376.02048 -30959736.87546  20515407.6024                   20515405.1914
  13265037.50846  10372357.27744  23855155.6884                   23855155.9494
 -21640616.27348 -16451117.77746  21607795.6484                   21607796.2234
 -57646985.84448 -44906275.03945  21772444.2504                   21772440.3404
 11  8 29  1 56  0.0000000  0  8G12G10G29G26G05G15G25G02
 -36659543.86348 -28018744.74646  21806846.5704                   21806845.1454
 -37776685.52746 -29395860.52043  24227900.8524                   24227900.4304
  -6094010.14547  -2700331.77345  22060689.3914                   22060687.6724
   1590117.90647   1274906.03944  22919669.8674                   22919670.2584
 -39794903.27748 -30995991.87946  20506554.0554                   20506551.1214
  13079654.39846  10227903.10244  23819878.7814                   23819878.4184
 -21711154.68748 -16506082.77346  21594372.6564                   21594373.5124
 -57696860.61748 -44945138.50845  21762952.8284                   21762948.8714
 11  8 29  1 56 30.0000000  0  8G12G10G29G26G05G15G25G02
 -36674633.81648 -28030503.16046  21803975.2504                   21803973.4184
 -37757457.37146 -29380877.58243  24231559.3444                   24231559.4264
  -6262240.39547  -2831420.22745  22028676.0634                   22028674.5784
   1411212.88347   1135499.59044  22885626.1484                   22885625.0904
 -39840979.74648 -31031895.62546  20497785.8364                   20497783.1954
  12894240.87946  10083425.20743  23784595.1484                   23784594.7894
 -21781146.66048 -16560621.99646  21581053.5084                   21581054.5204
 -57746650.71948 -44983935.99245  21753478.1884                   21753474.2934
 11  8 29  1 57  0.0000000  0  8G12G10G29G26G05G15G25G02
 -36689383.18048 -28041996.18446  21801168.5944                   21801166.7384
 -37738166.27746 -29365845.60543  24235230.9694                   24235229.9964
  -6430330.77747  -2962399.70745  21996689.4924                   21996687.9384
   1232504.81647    996246.66444  22851618.6954                   22851617.9774
 -39886607.95748 -31067450.07847  20489102.9534                   20489100.1884
  12708799.00046   9938925.22343  23749305.7974                   23749306.2274
 -21850594.21548 -16614737.00046  21567837.9614                   21567838.9144
 -57796356.58648 -45022667.84445  21744019.8204                   21744015.8094
 11  8 29  1 57 30.0000000  0  8G12G10G29G26G05G15G25G02
 -36703789.61748 -28053222.00446  21798427.0944                   21798425.1644
 -37718809.79346 -29350762.72743  24238914.6254                   24238913.0204
  -6598274.27747  -3093264.73045  21964730.5084                   21964729.3094
   1054002.02747    857153.66444  22817650.8834                   22817649.5044
 -39931785.39548 -31102653.26646  20480506.3594                   20480503.7704
  12523336.54746   9794409.21943  23714013.4224                   23714013.7624
 -21919493.60548 -16668424.85946  21554727.2894                   21554727.6564
 -57845973.25448 -45061330.19145  21734577.8204                   21734574.1334
 11  8 29  1 58  0.0000000  0  8G12G10G29G26G05G15G25G02
 -35142441.19948 -26836586.89145  22095541.3524                   22095540.1994
 -36123976.16846 -28108035.28143  24542401.1644                   24542400.9884
  -5190648.09847  -1996413.10245  22232593.3524                   22232591.8244
   2451129.16847   1945824.24244  23083514.6484                   23083513.3954
 -38401097.66448 -29909909.58246  20771786.3834                   20771783.8954
  13913277.51246  10877480.22344  23978511.4844                   23978510.1844
 -20412429.18448 -15494088.96546  21841512.2114                   21841512.7704
 -56320083.98848 -43872325.57845  22024944.9614                   22024941.2384
 11  8 29  1 58 30.0000000  0  8G12G10G29G26G05G15G25G02
 -35156178.59448 -26847291.35545  22092927.2814                   22092925.9454
 -36104503.94146 -28092862.14543  24546106.7114                   24546106.7034
  -5358298.98847  -2127050.12545  22200690.5634                   22200688.5474
   2273040.19947   1807053.70345  23049625.1884                   23049625.1134
 -38445387.43748 -29944421.09446  20763358.0704                   20763355.5234
  13727774.48446  10732932.54344  23943211.0004                   23943210.0904
 -20480244.49248 -15546932.09846  21828607.2894                   21828607.5044
 -56369529.64548 -43910854.66445  22015535.7504                   22015532.3834
 11  8 29  1 59  0.0000000  0  8G12G10G29G26G05G15G25G02
 -35169583.57848 -26857736.81645  22090376.6414                   22090375.2304
 -36084974.21546 -28077644.20743  24549822.9224                   24549822.6564
  -5525797.43447  -2257568.35245  22168816.5314                   22168814.3284
   2095166.92247   1668451.23044  23015777.8204                   23015777.1564
 -38489233.71548 -29978587.01646  20755014.4694                   20755012.4184
  13542258.62946  10588374.86744  23907908.4384                   23907908.2074
 -20547516.70348 -15599352.02046  21815805.6644                   21815806.1604
 -56418886.47748 -43949314.55945  22006143.5004                   22006139.6054
 11  8 29  1 59 30.0000000  0  8G12G10G29G26G05G15G25G02
 -35182665.11348 -26867930.23046  22087887.4774                   22087885.7854
 -36065396.30146 -28062388.72343  24553548.5004                   24553549.3634
  -5693148.05547  -2387971.38745  22136970.5864                   22136968.9454
   1917506.07847   1530014.26245  22981970.0474                   22981969.3094
 -38532645.57048 -30012414.43446  20746753.4844                   20746751.5784
  13356725.78147  10443803.96944  23872602.6024                   23872602.8324
 -20614254.16848 -15651355.24646  21803106.0394                   21803106.8754
 -56468161.51648 -43987710.70745  21996766.6644                   21996763.0004
 11  8 29  2  0  0.0000000  0  8G12G10G29G26G05G15G25G02
 -35195420.43748 -26877869.45746  22085460.3834                   22085458.6914
 -36045766.62146 -28047092.93743  24557284.5314                   24557284.7034
  -5860342.61347  -2518252.80545  22105154.4614                   22105152.6644
   1740067.03947   1391750.16445  22948205.1024                   22948204.0744
 -38575619.07848 -30045900.28146  20738575.7664                   20738573.4384
  13171184.48847  10299226.45744  23837295.5864                   23837295.0744
 -20680452.47748 -15702938.35946  21790508.9924                   21790509.2704
 -56517348.20748 -44026038.01245  21987406.9454                   21987402.8054
 11  8 29  2  0 30.0000000  0  8G12G10G29G26G05G15G25G02
 -35207852.53948 -26887556.80945  22083093.9304                   22083092.7344
 -36026087.73846 -28031758.77043  24561029.3284                   24561029.3794
  -6027379.46947  -2648411.35545  22073368.7974                   22073366.5944
   1562853.29347   1253661.60545  22914481.9384                   22914481.5784
 -38618156.86748 -30079046.61346  20730481.3204                   20730478.8634
  12985637.67647  10154644.64544  23801986.6954                   23801987.2344
 -20746113.28548 -15754102.63746  21778014.0944                   21778015.0704
 -56566447.15248 -44064296.95345  21978063.8204                   21978060.2774
 11  8 29  2  1  0.0000000  0  8G12G10G29G26G05G15G25G02
 -35219962.74647 -26896993.35245  22080789.8134                   22080788.7814
 -36006360.51646 -28016386.95743  24564782.2344                   24564783.5434
  -6194254.71547  -2778443.97345  22041613.2344                   22041611.4694
   1385870.16047   1115752.74244  22880802.4844                   22880802.7624
 -38660259.62548 -30111853.95746  20722469.2814                   20722466.6884
  12800089.61747  10010061.87944  23766678.0314                   23766678.5554
 -20811236.56248 -15804848.03946  21765621.4694                   21765622.7304
 -56615456.14148 -44102485.77345  21968737.8674                   21968734.4384
 11  8 29  2  1 30.0000000  0  8G12G10G29G26G05G15G25G02
 -35231756.77748 -26906183.50846  22078545.1024                   22078543.7624
 -35986589.95745 -28000981.34442  24568545.5784                   24568545.5314
  -6360968.92247  -2908351.09845  22009888.1644                   22009886.4774
   1209118.42247    978024.19144  22847167.8134                   22847167.5704
 -38701932.20348 -30144326.09047  20714539.5704                   20714536.7704
  12614540.41047   9865478.21944  23731369.6094                   23731369.3094
 -20875826.65648 -15855177.96146  21753330.7114                   21753331.8404
 -56664378.38748 -44140607.01245  21959427.8524                   21959424.5004
 11  8 29  2  2  0.0000000  0  8G12G10G29G26G05G15G25G02
 -35243236.03148 -26915128.39146  22076361.4224                   22076359.5124
 -35966776.55946 -27985542.35542  24572314.3914                   24572316.9064
  -6527517.87547  -3038129.44945  21978195.1414                   21978193.6414
   1032603.87147    840480.45344  22813577.7584                   22813578.3364
 -38743174.73048 -30176463.12947  20706691.1254                   20706688.5634
  12428994.97747   9720897.50044  23696061.1094                   23696060.7814
 -20939883.11748 -15905092.09446  21741141.0944                   21741142.1844
 -56713211.50447 -44178658.79745  21950135.2344                   21950131.5004
 11  8 29  2  2 30.0000000  0  7G12G29G26G05G15G25G02
 -35254406.29748 -26923832.50445  22074235.6414                   22074233.5904
  -6693902.78547  -3167779.95745  21946533.3284                   21946531.7704
    856326.84847    703121.79744  22780033.8284                   22780032.5634
 -38783992.82048 -30208269.42646  20698923.5084                   20698921.0044
  12243452.98847   9576319.49644  23660753.2974                   23660753.3444
 -21003410.60548 -15954594.05146  21729052.2894                   21729052.9104
 -56761958.58248 -44216643.52345  21940858.4774                   21940855.4534
 11  8 29  2  3  0.0000000  0  7G12G29G26G05G15G25G02
 -35265270.32048 -26932298.01645  22072168.1174                   22072166.8094
  -6860120.55947  -3297300.26645  21914903.1564                   21914901.0904
    680291.46147    565951.44544  22746535.2194                   22746534.5664
 -38824388.50048 -30239746.58646  20691236.4454                   20691234.0314
  12057917.49246   9431746.54344  23625446.5004                   23625446.8324
 -21066410.49248 -16003684.85546  21717063.6174                   21717064.7114
 -56810619.00047 -44254560.74245  21931599.0784                   21931595.3054
 11  8 29  2  3 30.0000000  0  7G12G29G26G05G15G25G02
 -35275829.50447 -26940525.96545  22070159.0164                   22070157.7584
  -7026168.03147  -3426687.85545  21883305.0084                   21883303.7234
    504502.77047    428973.30944  22713084.2664                   22713082.7934
 -38864362.40648 -30270895.09046  20683629.6644                   20683627.1914
  11872393.43047   9287182.48044  23590142.4064                   23590141.8204
 -21128882.86748 -16052364.62146  21705175.8204                   21705176.5204
 -56859191.08248 -44292409.14145  21922356.1804                   21922352.5004
 11  8 29  2  4  0.0000000  0  7G12G29G26G05G15G25G02
 -35286082.66048 -26948515.45345  22068207.8834                   22068206.5084
  -7192038.52748  -3555937.54345  21851740.7194                   21851739.1564
    328968.88747    292193.74644  22679681.3674                   22679679.6764
 -38903912.52048 -30301713.36347  20676103.8524                   20676101.3284
  11686887.25847   9142632.38344  23554841.9064                   23554841.3404
 -21190825.10948 -16100631.30146  21693388.2814                   21693389.2704
 -56907670.43048 -44330185.27745  21913130.7734                   21913127.1724
 11  8 29  2  4 30.0000000  0  7G12G29G26G05G15G25G02
 -35296030.50447 -26956267.03545  22066314.8524                   22066313.1954
  -7357727.76648  -3685045.99646  21820211.4844                   21820209.7114
    153695.55547    155617.19144  22646327.6024                   22646326.9804
 -38943038.96148 -30332201.49646  20668658.2034                   20668655.8204
  11501404.07447   8998100.18044  23519545.8524                   23519544.8094
 -21252236.77048 -16148484.55146  21681701.8674                   21681702.7504
 -56956054.89548 -44367887.46145  21903924.0704                   21903920.2154
 11  8 29  2  5  0.0000000  0  8G12G21G29G26G05G15G25G02
 -35305676.52047 -26963783.41845  22064479.0864                   22064477.2934
  21882421.41456  17079794.87153  25074789.3134                   25074788.6024
  -7523233.94547  -3814011.80946  21788716.5864                   21788715.1094
    -21313.99247     19246.19144  22613024.1254                   22613022.9344
 -38981744.74248 -30362361.84846  20661292.7974                   20661290.4144
  11315946.60947   8853588.02044  23484254.1334                   23484253.6684
 -21313120.08248 -16195926.07846  21670115.8834                   21670116.8054
 -57004344.66447 -44405515.84846  21894734.4224                   21894731.4924
 11  8 29  2  5 30.0000000  0  8G12G21G29G26G05G15G25G02
 -35315028.73048 -26971070.87545  22062699.9614                   22062698.4574
  21737774.82046  16967083.29743  25047263.1484                   25047263.9844
  -7688559.91048  -3942837.19546  21757256.4534                   21757254.0904
   -196061.32047   -116920.50444  22579770.0864                   22579769.7624
 -39020036.82448 -30392199.83646  20654005.7114                   20654003.2934
  11130512.78547   8709094.23044  23448967.2114                   23448966.8444
 -21373481.72748 -16242961.12546  21658629.7504                   21658630.5044
 -57052544.45747 -44443074.10545  21885562.1954                   21885559.0204
 11  8 29  2  6  0.0000000  0  8G12G21G29G26G05G15G25G02
 -35324092.68448 -26978133.72345  22060975.2114                   22060973.2344
  21593130.75046  16854373.73842  25019738.7344                   25019738.9024
  -7853705.66448  -4071522.15646  21725829.6484                   21725827.9804
   -370545.12547   -252881.84844  22546566.7194                   22546566.2384
 -39057920.13348 -30421719.29746  20646797.1564                   20646794.7344
  10945102.97347   8564619.19944  23413684.6334                   23413684.4344
 -21433325.96548 -16289592.99246  21647241.7664                   21647242.5354
 -57100656.57048 -44480564.06645  21876407.1564                   21876403.5234
 11  8 29  2  6 30.0000000  0  8G12G21G29G26G05G15G25G02
 -33757456.05147 -25757377.93445  22359095.7814                   22359094.0354
  23023908.07846  17969265.21143  25292007.1884                   25292005.9534
  -6443248.67647  -2972464.71546  21994230.5314                   21994228.7504
   1030659.14847    838965.69144  22813207.8134                   22813206.6334
 -37519980.90648 -29223325.09446  20939456.8524                   20939454.9964
  12335141.21547   9647765.98444  23678200.7974                   23678199.9304
 -19917237.40648 -15108225.28946  21935743.6024                   21935744.4694
 -55573264.19948 -43290388.19145  22167059.8054                   22167056.8834
 11  8 29  2  7  0.0000000  0  8G12G21G29G26G05G15G25G02
 -33765960.66448 -25764004.94145  22357477.4614                   22357475.8874
  22879258.40646  17856551.18842  25264479.7894                   25264480.1604
  -6608035.73848  -3100870.19146  21962872.8134                   21962871.1294
    856705.42647    703417.38745  22780105.2504                   22780104.2774
 -37557061.96148 -29252219.43046  20932400.8444                   20932398.3594
  12149779.70347   9503328.55944  23642927.1094                   23642927.1644
 -19976060.07048 -15154061.13746  21924550.3594                   21924551.3634
 -55621208.59048 -43327747.46145  22157936.8914                   22157932.9964
 11  8 29  2  7 30.0000000  0  8G12G21G29G26G05G15G25G02
 -33774187.02347 -25770415.14545  22355911.9614                   22355910.3984
  22734607.93446  17743836.61342  25236954.2664                   25236954.7854
  -6772637.15647  -3229131.00046  21931550.2664                   21931548.3594
    683024.93847    568082.00845  22747055.7584                   22747054.0744
 -37593742.55148 -29280801.71546  20925420.9144                   20925418.5314
  11964449.86347   9358915.82444  23607659.6024                   23607659.2584
 -20034371.89548 -15199498.94546  21913454.2114                   21913454.7624
 -55669065.93448 -43365038.92245  22148829.7034                   22148825.6454
 11  8 29  2  8  0.0000000  0  8G12G21G29G26G05G15G25G02
 -33782138.10547 -25776610.83245  22354399.1094                   22354397.3014
  22589956.76646  17631121.46143  25209428.5164                   25209428.2234
  -6937050.12948  -3357244.99246  21900263.7274                   21900261.6334
    509621.85547    432962.79345  22714058.2344                   22714056.2424
 -37630024.16448 -29309073.09846  20918516.4304                   20918514.0124
  11779154.99247   9214530.31644  23572399.8594                   23572398.5354
 -20092174.10548 -15244539.64146  21902454.4694                   21902455.3754
 -55716835.68448 -43402262.10545  22139739.2344                   22139735.2704
 11  8 29  2  8 30.0000000  0  8G12G21G29G26G05G15G25G02
 -33789815.88347 -25782593.54345  22352937.7894                   22352936.4104
  22445304.77046  17518405.65643  25181902.0784                   25181901.6994
  -7101271.90248  -3485209.97746  21869012.9694                   21869011.2034
    336500.76647    298063.31645  22681113.7734                   22681112.6024
 -37665908.86348 -29337035.20346  20911687.6884                   20911685.5164
  11593898.73047   9070174.86744  23537145.7814                   23537145.5164
 -20149467.91048 -15289184.18046  21891551.7894                   21891552.8204
 -55764516.70748 -43439416.15645  22130665.8674                   22130662.7544
 11  8 29  2  9  0.0000000  0  8G12G21G29G26G05G15G25G02
 -33797221.35947 -25788364.07045  22351528.5944                   22351527.8324
  22300653.60546  17405690.51643  25154375.5474                   25154375.3094
  -7265297.91047  -3613022.42246  21837799.8364                   21837798.2584
    163667.25847    163387.91845  22648224.5554                   22648223.4694
 -37701396.85948 -29364688.18446  20904934.7274                   20904932.9964
  11408686.43047   8925853.72344  23501899.8984                   23501900.8204
 -20206252.90648 -15333432.24646  21880746.0084                   21880747.3634
 -55812106.48448 -43476499.09445  22121609.7034                   22121606.3754
 11  8 29  2  9 30.0000000  0  8G12G21G29G26G05G15G25G02
 -33804358.25447 -25793925.30945  22350170.8674                   22350170.1764
  22156002.03946  17292975.06643  25126848.7734                   25126849.0274
  -7429126.35248  -3740680.91046  21806624.2274                   21806622.6334
     -8875.37547     28939.16844  22615390.5704                   22615389.6724
 -37736490.80548 -29392034.11746  20898256.4064                   20898254.1414
  11223520.31347   8781568.50844  23466664.7194                   23466664.0314
 -20262531.61747 -15377285.79746  21870036.4384                   21870037.4924
 -55859605.52348 -43513511.32845  22112571.2194                   22112567.3634
 11  8 29  2 10  0.0000000  0  8G12G21G29G26G05G15G25G02
 -33811229.40247 -25799279.46545  22348862.8444                   22348862.5084
  22011348.89546  17180258.39843  25099322.9694                   25099322.1954
  -7592755.69548  -3868184.26646  21775486.7974                   21775485.0904
   -181124.20747   -105280.64145  22582612.0474                   22582611.7704
 -37771193.69148 -29419075.32846  20891652.6804                   20891650.5164
  11038402.30947   8637320.79344  23431437.5394                   23431437.7544
 -20318306.57448 -15420746.81246  21859422.8444                   21859423.8404
 -55907014.23848 -43550453.19145  22103549.4774                   22103546.1484
 11  8 29  2 10 30.0000000  0  8G12G21G29G26G05G15G25G02
 -33817839.36347 -25804430.10545  22347605.3524                   22347604.3954
  21866692.97346  17067539.57843  25071795.0004                   25071795.5234
  -7756183.90648  -3995530.91046  21744387.5864                   21744385.1454
   -353075.92647   -239268.94145  22549891.2274                   22549890.1844
 -37805508.42248 -29445814.08246  20885123.0314                   20885120.6374
  10853335.16847   8493112.72744  23396220.5004                   23396220.8794
 -20373580.09848 -15463817.11346  21848904.6804                   21848906.1994
 -55954333.00047 -43587324.95345  22094544.9774                   22094541.4414
 11  8 29  2 11  0.0000000  0  8G12G21G29G26G05G15G25G02
 -33824191.07047 -25809379.50445  22346396.7894                   22346395.0394
  21722033.60946  16954818.03143  25044267.4694                   25044267.2194
  -7919408.58648  -4122718.95746  21713326.5394                   21713324.7934
   -524727.19147   -373023.12145  22517226.5784                   22517226.2854
 -37839437.34848 -29472252.20346  20878666.4534                   20878664.2624
  10668322.17647   8348946.83644  23361013.9454                   23361013.4804
 -20428354.37548 -15506498.38346  21838481.6414                   21838482.6844
 -56001561.12548 -43624126.10545  22085557.7734                   22085553.9884
 11  8 29  2 11 30.0000000  0  8G12G21G29G26G05G15G25G02
 -33830288.57047 -25814130.82845  22345236.7034                   22345235.0664
  21577368.92246  16842092.36342  25016738.4454                   25016738.3164
  -8082429.40648  -4249748.14846  21682304.3984                   21682303.3204
   -696075.35547   -506541.12145  22484620.4774                   22484619.6254
 -37872984.39848 -29498392.77346  20872282.7114                   20872280.2344
  10483364.57447   8204824.12544  23325817.6724                   23325817.0204
 -20482632.51648 -15548793.06646  21828153.0234                   21828153.7234
 -56048699.98848 -43660857.68745  22076587.4614                   22076583.5904
 11  8 29  2 12  0.0000000  0  8G12G21G29G26G05G15G25G02
 -33836133.59047 -25818685.41845  22344124.0234                   22344122.7384
  21432699.94946  16729363.32843  24989208.7584                   24989209.1844
  -8245242.35248  -4376615.34046  21651321.8364                   21651320.7304
   -867115.61347   -639819.17245  22452072.9224                   22452071.8834
 -37906150.39548 -29524236.40646  20865971.4384                   20865968.8984
  10298467.03947   8060748.23844  23290633.1564                   23290631.6724
 -20536415.26648 -15590701.73046  21817918.2114                   21817919.4304
 -56095747.91447 -43697518.41845  22067634.5704                   22067630.8054
 11  8 29  2 12 30.0000000  0  8G12G21G29G26G05G15G25G02
 -33841729.95747 -25823046.24645  22343059.3444                   22343058.0044
  21288025.15646  16616629.80942  24961678.1334                   24961678.4774
  -8407845.93048  -4503319.41046  21620380.3444                   21620378.5274
  -1037844.94547   -772854.96945  22419583.7664                   22419582.9844
 -37938938.30148 -29549785.42246  20859731.9384                   20859729.5044
  10113631.82847   7916720.90644  23255459.6174                   23255459.2624
 -20589705.22748 -15632226.37546  21807777.6724                   21807778.1954
 -56142705.58648 -43734108.81245  22058699.2114                   22058695.7034
 11  8 29  2 13  0.0000000  0  8G12G21G29G26G05G15G25G02
 -33847079.70747 -25827214.89545  22342040.9844                   22342040.4344
  21143344.66446  16503891.84843  24934146.0394                   24934146.5594
  -8570236.83248  -4629857.76246  21589478.2114                   21589476.3244
  -1208258.85947   -905644.95345  22387155.1334                   22387154.2504
 -37971349.94148 -29575041.25846  20853564.3444                   20853561.6524
   9928862.44547   7772744.84844  23220299.0004                   23220298.7624
 -20642503.70748 -15673368.07446  21797730.7734                   21797731.2624
 -56189571.78547 -43770627.93445  22049780.4694                   22049776.9024
 11  8 29  2 13 30.0000000  0  8G12G21G29G26G05G15G25G02
 -33852188.90647 -25831196.10245  22341069.0394                   22341068.3914
  20998655.69546  16391147.28543  24906612.3284                   24906612.9454
  -8732415.26248  -4756230.54346  21558616.5704                   21558614.7974
  -1378356.31647  -1038188.37145  22354786.4064                   22354785.5274
 -38003390.16848 -29600007.66846  20847467.3984                   20847464.5784
   9744159.82047   7628820.79744  23185151.1414                   23185150.7344
 -20694815.10248 -15714130.23046  21787776.0234                   21787776.3634
 -56236348.44148 -43807077.28145  22040878.7424                   22040875.6294
 11  8 29  2 14  0.0000000  0  8G12G21G29G26G05G15G25G02
 -33857057.78948 -25834990.06645  22340142.9844                   22340141.4024
  20853959.97346  16278397.46543  24879077.7194                   24879077.6374
  -8894376.42248  -4882434.01246  21527796.0554                   21527794.6804
  -1548131.18747  -1170480.42245  22322479.2274                   22322478.6484
 -38035059.21948 -29624684.85946  20841440.7504                   20841438.6094
   9559529.02347   7484952.72344  23150017.4924                   23150016.6054
 -20746639.20348 -15754512.64846  21777914.1564                   21777914.5904
 -56283033.15247 -43843454.98045  22031995.5084                   22031992.0864
 11  8 29  2 14 30.0000000  0  8G12G21G29G26G05G15G25G02
 -33861688.80148 -25838598.67245  22339261.1954                   22339260.3554
  20709257.62946  16165642.47343  24851542.2194                   24851541.3014
  -9056117.27048  -5008465.81646  21497017.9304                   21497016.0004
  -1717578.90647  -1302517.55145  22290234.3284                   22290233.4884
 -38066358.21548 -29649073.69146  20835484.6644                   20835482.4614
   9374974.07047   7341143.73444  23114897.5864                   23114896.5824
 -20797977.25848 -15794516.32046  21768144.5004                   21768145.5704
 -56329624.46548 -43879759.90645  22023129.6884                   22023126.1724
 11  8 29  2 15  0.0000000  0  8G12G21G29G26G05G15G25G02
 -33866088.53547 -25842027.07045  22338424.0234                   22338422.7344
  20564544.48446  16052879.08643  24824004.2584                   24824003.7774
  -9217639.18048  -5134327.02746  21466281.4614                   21466279.9224
  -1886699.83647  -1434300.05545  22258052.1414                   22258051.0554
 -38097293.64148 -29673179.22346  20829598.0314                   20829595.7624
   9190493.98847   7197393.12144  23079792.8984                   23079791.7034
 -20848835.04348 -15834145.78546  21758466.8364                   21758467.8054
 -56376126.00447 -43915994.89145  22014280.6644                   22014276.5354
 11  8 29  2 15 30.0000000  0  8G12G21G29G26G05G15G25G02
 -32294837.56647 -24617675.67645  22637422.3834   22637422.0944   21995247.20746
  17167712.51643                  25096257.8984                   25096257.1764
  -7803511.93048  -4032409.66446  21735380.9224                   21735379.0354
   -480061.96147   -338218.53145  22525726.2344                   22525724.7584
 -36552444.18748 -28469400.43446  21123573.2664                   21123571.2034
  10581520.65647   8281310.07044  23344495.5944                   23344494.8444
 -19323790.48848 -14645799.41046  22048673.2664                   22048674.0124
 -54847113.50847 -42724556.60945  22305242.1724                   22305238.4304
 11  8 29  2 16  0.0000000  0  8G12G21G29G26G05G15G25G02
 -32298778.21147 -24620746.31645  22636673.0234   22636672.0274   21850516.50446
  17054935.46543                  25068716.3594                   25068715.5784
  -7964582.74248  -4157919.35946  21704730.1254                   21704728.2974
   -648511.98847   -469478.24245  22493671.0944                   22493670.1374
 -36582653.40648 -28492940.09446  21117824.6254                   21117822.4534
  10397205.89547   8137688.24644  23309422.6024                   23309419.8714
 -19373688.11348 -14684680.70346  22039178.3914                   22039178.8914
 -54893428.80147 -42760646.46145  22296428.8444                   22296425.1724
 11  8 29  2 16 30.0000000  0  8G12G21G29G26G05G15G25G02
 -32302494.94947 -24623642.49245  22635965.9534   22635964.6414   21705775.50446
  16942150.37943                  25041172.7584                   25041172.9694
  -8125425.68748  -4283251.48846  21674122.5704                   21674121.3164
   -816622.28947   -600473.23045  22461681.0944                   22461679.6994
 -36612504.28548 -28516200.51646  21112143.8984                   21112141.7934
  10212977.23447   7994133.52344  23274364.0554                   23274363.0634
 -19423110.02048 -14723191.28146  22029773.4694                   22029774.0044
 -54939651.76247 -42796664.35545  22287632.3674                   22287629.4454
 11  8 29  2 17  0.0000000  0  8G12G21G29G26G05G15G25G02
 -32305989.53548 -24626365.57445  22635300.6804   22635299.7464   21561024.37546
  16829357.40643                  25013627.8134                   25013627.4344
  -8286037.03948  -4408403.15646  21643559.3754                   21643557.5864
   -984387.95747   -731199.67245  22429756.1564                   22429754.8914
 -36641997.88348 -28539182.55146  21106531.8364                   21106529.5234
  10028839.02347   7850649.27044  23239323.4924                   23239322.3634
 -19472056.94948 -14761331.77746  22020459.0634                   22020460.1174
 -54985780.27347 -42832608.64145  22278854.4384                   22278851.3324
 11  8 29  2 17 30.0000000  0  8G12G21G29G26G05G15G25G02
 -32309266.46147 -24628919.05145  22634677.2194   22634676.2034   21416261.22746
  16716555.05543                  24986079.8444                   24986079.8364
  -8446415.91848  -4533373.68046  21613040.3524                   21613038.3834
  -1151806.60947   -861655.72345  22397897.3834                   22397895.8054
 -36671138.06648 -28561889.19146  21100986.6954                   21100984.3094
   9844792.90247   7707236.76644  23204300.9064                   23204299.5204
 -19520532.69947 -14799105.10946  22011234.2034                   22011235.1334
 -55031815.66447 -42868480.37945  22270094.2274                   22270090.8874
 11  8 29  2 18  0.0000000  0  8G12G21G29G26G05G15G25G02
 -32312326.59447 -24631303.59445  22634094.9614   22634093.8914   21271488.04346
  16603744.88743                  24958531.2504                   24958530.1764
  -8606557.73048  -4658159.47346  21582566.3134                   21582564.3164
  -1318872.38747   -991836.80145  22366105.5084                   22366104.2384
 -36699924.81648 -28584320.43446  21095508.4454                   21095506.0824
   9660844.27047   7563900.23844  23169296.2274                   23169294.6174
 -19568536.98848 -14836511.07446  22002099.7584                   22002100.4224
 -55077755.39147 -42904277.57445  22261352.5704                   22261349.0314
 11  8 29  2 18 30.0000000  0  8G12G21G29G26G05G15G25G02
 -32315174.97747 -24633523.13345  22633553.3674   22633551.6844   21126702.07046
  16490924.74643                  24930978.5004                   24930978.1334
  -8766462.12548  -4782760.25846  21552137.2504                   21552135.6804
  -1485583.94147  -1121741.84845  22334381.0234                   22334380.3204
 -36728363.03148 -28606480.07846  21090097.0084                   21090094.6134
   9476994.07847   7420640.41844  23134311.2034                   23134310.1994
 -19616074.20748 -14873553.07046  21993053.3444                   21993054.3874
 -55123601.03548 -42940001.46945  22252628.2504                   22252624.7734
 11  8 29  2 19  0.0000000  0  8G12G21G29G26G05G15G25G02
 -32317815.29347 -24635580.54345  22633051.0554   22633049.2194   20981902.37947
  16378093.92643                  24903423.9694                   24903423.4184
  -8926126.92648  -4907174.36746  21521754.0784                   21521751.8364
  -1651937.82847  -1251368.21145  22302724.9774                   22302723.7504
 -36756455.20748 -28628370.09446  21084750.9774                   21084749.0554
   9293245.14547   7277459.50444  23099345.3444                   23099344.1214
 -19663146.86748 -14910233.07046  21984095.8594                   21984097.1294
 -55169352.60948 -42975652.07845  22243922.2194                   22243918.1524
 11  8 29  2 19 30.0000000  0  8G12G21G29G26G05G15G25G02
 -32320249.72747 -24637477.53945  22632587.1174   22632585.6564   20837088.66847
  16265252.19143                  24875867.3674                   24875866.3164
  -9085549.57848  -5031399.77046  21491416.8524                   21491415.3914
  -1817930.38347  -1380713.00045  22271137.9774                   22271136.3914
 -36784203.84848 -28649992.40646  21079471.1644                   21079468.3164
   9109600.54347   7134359.89544  23064398.8524                   23064398.0514
 -19709757.18048 -14946552.80546  21975226.4304                   21975227.3754
 -55215009.79347 -43011229.11345  22235233.7344                   22235229.8054
 11  8 29  2 20  0.0000000  0  8G12G21G29G26G05G15G25G02
 -32322483.20747 -24639217.93445  22632162.4224   22632161.6484   20692259.31647
  16152398.24643                  24848307.3754                   24848305.7734
  -9244729.07448  -5155435.71146  21461126.0474                   21461124.2624
  -1983559.15647  -1509774.34045  22239619.9064                   22239618.7774
 -36811612.39548 -28671349.72346  21074254.9144                   21074252.7344
   8926062.23847   6991343.11744  23029472.4614                   23029471.7114
 -19755908.50848 -14982514.89846  21966444.2584                   21966444.8754
 -55260573.37948 -43046733.21945  22226563.2974                   22226559.8204
 11  8 29  2 20 30.0000000  0  8G12G21G29G26G05G15G25G02
 -32324516.28947 -24640802.17245  22631775.7034   22631774.1484   20547415.68047
  16039533.20743                  24820743.5554                   24820743.5984
  -9403660.72348  -5279278.52046  21430882.1564                   21430880.4924
  -2148818.27747  -1638547.63345  22208171.9304                   22208171.0554
 -36838680.96148 -28692442.12146  21069104.0084                   21069102.1764
   8742635.44547   6848413.22344  22994567.0704                   22994566.2304
 -19801600.89548 -15018119.36746  21957748.7664                   21957750.1054
 -55306040.47347 -43082162.11745  22217911.3054                   22217907.8444
 11  8 29  2 21  0.0000000  0  8G12G21G29G26G05G15G25G02
 -32326349.84047 -24642230.92645  22631426.2114   22631425.0784   20402559.81646
  15926658.67643                  24793178.9614                   24793178.1054
  -9562339.49648  -5402924.28146  21400687.0004                   21400684.9064
  -2313701.76647  -1767028.20745  22176795.6484                   22176794.6524
 -36865409.54748 -28713269.59046  21064018.1334                   21064015.4224
   8559325.63747   6705574.48444  22959683.9844                   22959683.2464
 -19846834.25048 -15053366.16446  21949141.8284                   21949142.3134
 -55351408.61748 -43117513.92645  22209277.3594                   22209274.2734
 11  8 29  2 21 30.0000000  0  8G12G21G29G26G05G15G25G02
 -32327994.88747 -24643512.79345  22631113.6334   22631111.6994   20257682.90646
  15813767.72343                  24765609.3054                   24765608.0704
  -9720771.35948  -5526377.64546  21370538.1564                   21370536.1804
  -2478214.41447  -1895219.84445  22145489.3834                   22145488.9304
 -36891808.99648 -28733840.59446  21058994.4064                   21058991.8834
   8376127.96547   6562823.09445  22924822.6024                   22924821.8594
 -19891619.14148 -15088263.49246  21940619.1724                   21940620.3914
 -55396685.39548 -43152794.52745  22200661.9144                   22200658.5474
 11  8 29  2 22  0.0000000  0  8G12G21G29G26G05G15G25G02
 -32329448.68047 -24644645.63345  22630837.6804   22630835.3954   20112790.62147
  15700864.82842                  24738036.8984                   24738035.5864
  -9878948.10548  -5649632.21546  21340438.0314                   21340435.9774
  -2642346.45347  -2023114.88345  22114256.5394                   22114255.3014
 -36917875.41848 -28754152.09446  21054034.0004                   21054031.4104
   8193051.36747   6420166.04345  22889984.0234                   22889983.5044
 -19935951.82048 -15122808.43046  21932182.6484                   21932184.0634
 -55441864.34847 -43187998.92645  22192065.0474                   22192061.0664
 11  8 29  2 22 30.0000000  0  8G12G21G29G26G05G15G25G02
 -32330714.60547 -24645632.07445  22630596.1024   22630594.7854   19967881.93847
  15587949.14143                  24710461.7194                   24710460.1334
 -10036867.55548  -5772686.29346  21310387.0084                   21310385.4614
  -2806094.69947  -2150710.86345  22083096.5004                   22083095.0664
 -36943612.04748 -28774206.61746  21049136.4844                   21049134.1454
   8010098.39847   6277605.32445  22855170.2584                   22855168.5124
 -19979835.02048 -15157003.11746  21923832.3914                   21923833.3364
 -55486945.71948 -43223127.28545  22183486.4844                   22183482.4384
 11  8 29  2 23  0.0000000  0  8G12G21G29G26G05G15G25G02
 -32331797.89547 -24646476.19945  22630390.0784   22630388.7114   19822953.99247
  15475018.42243                  24682882.4224                   24682881.4734
 -10194529.40248  -5895539.65246  21280385.1334                   21280383.3634
  -2969458.09447  -2278006.95745  22052008.9844                   22052007.2704
 -36969023.50448 -28794007.74246  21044301.0474                   21044298.3164
   7827269.87947   6135141.57845  22820378.9534                   22820378.0984
 -20023273.50447 -15190851.27346  21915565.7424                   21915566.9654
 -55531931.46147 -43258181.12145  22174925.7194                   22174921.8794
 11  8 29  2 23 30.0000000  0  9G12G21G29G26G05G15G25G02G18
 -32332699.05147 -24647178.37945  22630217.9694   22630217.2384   19678009.11747
  15362074.51643                  24655300.2664                   24655299.5824
 -10351928.92648  -6018188.59846  21250432.9694                   21250431.1374
  -3132430.03947  -2404998.02345  22020996.8134                   22020994.9304
 -36994109.25848 -28813555.09046  21039527.1884                   21039524.9104
   7644571.93447   5992779.59845  22785612.3754                   22785611.9574
 -20066266.88748 -15224352.59445  21907384.4774                   21907385.8484
 -55576818.42247 -43293157.97745  22166384.0004                   22166380.0664
  25000319.11356  19521301.94553  24546193.8754                   24546194.1724
 11  8 29  2 24  0.0000000  0  9G12G21G29G26G05G15G25G02G18
 -32333425.50047 -24647744.45745  22630080.4144   22630079.6844   19533042.35946
  15249113.51243                  24627714.0314                   24627713.1844
 -10509067.85548  -6140634.49246  21220530.0864                   21220528.6724
  -3295011.53547  -2531684.84845  21990058.6414                   21990056.9964
 -37018876.59848 -28832854.31646  21034814.1334                   21034811.7934
   7462003.31647   5850518.38745  22750870.3134                   22750869.7234
 -20108821.89848 -15257512.33645  21899286.5784                   21899287.3484
 -55621610.59847 -43328060.96545  22157859.8834                   22157856.5864
  24822539.60546  19382772.62943  24512363.4924                   24512363.1884
 11  8 29  2 24 30.0000000  0  9G12G21G29G26G05G15G25G02G18
 -30758561.13747 -23420577.44545  22929767.3984   22929766.0514   20963477.13746
  16363738.09443                  24899916.3754                   24899915.3484
  -9090519.42648  -5035272.04746  21490471.0164                   21490468.9104
  -1881774.64847  -1430461.26645  22258988.2894                   22258987.7544
 -35467907.82448 -27624307.21946  21329953.8834                   21329951.3594
   8854992.10947   6935964.23445  23015947.4694                   23015947.2544
 -18575520.48048 -14062732.01646  22191064.5554                   22191064.8874
 -54090886.92247 -42135289.25845  22449146.9144                   22449143.8554
  26220351.61746  20471976.99243  24778357.9774                   24778358.1914
 11  8 29  2 25  0.0000000  0  9G12G21G29G26G05G15G25G02G18
 -30758950.65647 -23420881.01245  22929693.3364   22929692.0944   20818461.88746
  16250739.35543                  24872320.8914                   24872320.2034
  -9247133.34848  -5157308.83646  21460668.5394                   21460666.3674
  -2043567.99647  -1556533.96145  22228200.1484                   22228199.4574
 -35492048.89848 -27643118.44946  21325359.8364                   21325357.6804
   8672687.80147   6793908.99645  22981255.8444                   22981255.3674
 -18617209.39148 -14095216.87946  22183131.5704                   22183132.0904
 -54135491.22347 -42170045.84845  22440659.3134                   22440655.8324
  26042903.16046  20333705.60243  24744590.0164                   24744590.6414
 11  8 29  2 25 30.0000000  0  9G12G21G29G26G05G15G25G02G18
 -30759173.73847 -23421054.87945  22929650.1414   22929649.3204   20673424.21946
  16137723.08243                  24844721.7194                   24844719.8914
  -9403478.27048  -5279136.02346  21430916.8834                   21430914.8794
  -2204959.36347  -1682293.43445  22197488.6174                   22197488.1054
 -35515877.21148 -27661685.96946  21320825.2894                   21320823.3164
   8490523.03147   6651962.47345  22946591.1564                   22946589.8364
 -18658466.20748 -14127365.05946  22175280.8284                   22175281.1764
 -54179998.50048 -42204726.87145  22432190.3204                   22432185.9534
  25865624.48846  20195566.51242  24710856.1024                   24710856.1054
 11  8 29  2 26  0.0000000  0  9G12G21G29G26G05G15G25G02G18
 -30759232.32847 -23421100.55545  22929639.0704   22929638.4414   20528364.40646
  16024689.57043                  24817117.7344                   24817116.4694
  -9559551.46148  -5400751.48046  21401217.2664                   21401214.9964
  -2365944.26247  -1807736.17645  22166854.4454                   22166852.9804
 -35539394.62148 -27680011.21946  21316350.1024                   21316347.4884
   8308501.70347   6510127.73845  22911953.7734                   22911951.7194
 -18699292.53148 -14159177.79746  22167511.3674                   22167512.2034
 -54224407.44947 -42239331.26245  22423739.5944                   22423735.2504
  25688518.06646  20057561.57842  24677153.4304                   24677153.9224
 11  8 29  2 26 30.0000000  0  9G12G21G29G26G05G15G25G02G18
 -30759130.98447 -23421021.60545  22929658.8984   22929657.3094   20383280.60546
  15911637.34843                  24789508.5004                   24789508.3754
  -9715351.64148  -5522154.19946  21371569.1564                   21371566.8714
  -2526520.69547  -1932860.62145  22136297.7034                   22136296.3324
 -35562605.33248 -27698097.50446  21311933.4924                   21311931.0594
   8126625.80947   6368406.33245  22877344.0164                   22877341.6644
 -18739692.29748 -14190658.12546  22159823.1804                   22159824.4884
 -54268719.10247 -42273859.82845  22415306.9224                   22415303.0204
  25511583.70746  19919690.77042  24643483.2584                   24643483.8404
 11  8 29  2 27  0.0000000  0  9G12G21G29G26G05G15G25G02G18
 -30758872.32447 -23420820.07845  22929708.2814   22929706.8484   20238173.15646
  15798566.69942                  24761895.0554                   24761895.1214
  -9870875.61748  -5643341.68746  21341973.7664                   21341971.7854
  -2686684.60248  -2057663.61345  22105819.3914                   22105817.7664
 -35585510.95748 -27715946.03946  21307574.1254                   21307571.8834
   7944898.68447   6226800.84444  22842761.7814                   22842760.5004
 -18779667.43748 -14221807.58245  22152216.2664                   22152217.3284
 -54312932.46947 -42308311.81245  22406893.1484                   22406889.3164
  25334823.47746  19781955.64542  24609846.8054                   24609847.3204
 11  8 29  2 27 30.0000000  0  9G12G21G29G26G05G15G25G02G18
 -30758455.31647 -23420495.15645  22929787.5944   22929785.8054   20093045.28546
  15685480.12543                  24734278.3364                   24734277.7344
 -10026117.14848  -5764309.09046  21312432.7504                   21312430.4844
  -2846428.52348  -2182139.34445  22075421.2114                   22075418.7234
 -35608109.95348 -27733555.64546  21303273.8444                   21303271.3954
   7763327.50047   6085316.89545  22808210.1804                   22808209.1684
 -18819216.35248 -14252624.92245  22144690.4694                   22144691.2074
 -54357042.86347 -42342683.53545  22398499.1334                   22398495.9304
  25158242.51246  19644360.20742  24576244.4224                   24576245.4574
 11  8 29  2 28  0.0000000  0  9G12G21G29G26G05G15G25G02G18
 -30757886.34047 -23420051.79745  22929895.5394   22929893.8134   19947893.26646
  15572374.72343                  24706657.5784                   24706656.5984
 -10181077.08248  -5885057.06646  21282944.5314                   21282942.5234
  -3005752.15647  -2306287.54745  22045101.9774                   22045100.6804
 -35630408.20348 -27750930.90646  21299030.9454                   21299028.3594
   7581912.12147   5943954.33645  22773688.1484                   22773686.9384
 -18858345.04348 -14283114.82046  22137244.4144                   22137245.9694
 -54401053.30547 -42376977.39845  22390124.4384                   22390120.9454
  24981838.29746  19506902.55142  24542676.1804                   24542676.7624
 11  8 29  2 28 30.0000000  0  9G12G21G29G26G05G15G25G02G18
 -30757168.16847 -23419492.19145  22930032.4454   22930031.0314   19802717.07846
  15459250.50843                  24679030.7344                   24679030.4184
 -10335752.54748  -6005583.38346  21253510.8204                   21253508.8164
  -3164651.64147  -2430105.27345  22014864.6644                   22014863.4344
 -35652407.94148 -27768073.56246  21294844.5704                   21294842.0864
   7400656.24647   5802716.07045  22739196.5164                   22739194.9184
 -18897055.43448 -14313278.79746  22129878.0164                   22129879.3524
 -54444963.06248 -42411192.79745  22381769.0314                   22381765.1024
  24805613.03146  19369584.35242  24509140.7584                   24509143.0434
 11  8 29  2 29  0.0000000  0  9G12G21G29G26G05G15G25G02G18
 -30756304.62947 -23418819.31645  22930196.9224   22930195.3054   19657515.10546
  15346106.20742                  24651400.7034                   24651399.6294
 -10490142.13348  -6125886.93046  21224131.3284                   21224129.5594
  -3323124.55548  -2553590.60945  21984708.2974                   21984707.1564
 -35674112.07048 -27784985.86746  21290714.6954                   21290711.5394
   7219561.85247   5661603.62545  22704735.1094                   22704734.0394
 -18935351.14148 -14343119.63746  22122591.2344                   22122591.3954
 -54488772.64848 -42445330.15645  22373432.3204                   22373428.2234
  24629567.02046  19232405.77342  24475640.6094                   24475642.3134
 11  8 29  2 29 30.0000000  0  9G12G21G29G26G05G15G25G02G18
 -30755297.04747 -23418034.20345  22930388.5314   22930387.6564   19512289.08246
  15232943.13343                  24623764.0554                   24623762.7774
 -10644241.55148  -6245964.36746  21194807.2504                   21194805.2774
  -3481165.45747  -2676739.31645  21954634.2274                   21954633.3634
 -35695521.60248 -27801668.63346  21286640.7344                   21286637.8794
   7038634.12947   5520621.06645  22670305.4534                   22670304.8204
 -18973232.80148 -14372637.84446  22115382.3984                   22115383.4734
 -54532479.59447 -42479387.52745  22365115.1334                   22365111.3364
  24453703.24246  19095369.27742  24442173.4534                   24442175.1484
 11  8 29  2 30  0.0000000  0  9G12G21G29G26G05G15G25G02G18
 -30754147.57847 -23417138.53945  22930607.5164   22930606.1844   19367038.57446
  15119761.02043                  24596123.6094                   24596122.2974
 -10798047.65648  -6365813.24646  21165538.9924                   21165536.8204
  -3638770.79348  -2799548.63345  21924643.0004                   21924642.4264
 -35716638.40248 -27818123.28546  21282621.9534                   21282619.3714
   6857876.46547   5379771.03945  22635908.4774                   22635906.9144
 -19010702.64548 -14401835.16045  22108252.0864                   22108253.2344
 -54576083.34047 -42513364.48045  22356817.6804                   22356813.6174
  24278023.19546  18958475.87542  24408742.9144                   24408744.3794
 11  8 29  2 30 30.0000000  0  9G12G21G29G26G05G15G25G02G18
 -30752863.06247 -23416137.64845  22930851.1414   22930850.2704   19221760.17246
  15006557.11343                  24568478.0234                   24568476.8794
 -10951561.91048  -6485434.71546  21136326.4614                   21136324.1134
  -3795940.28948  -2922018.31645  21894734.6884                   21894733.9734
 -35737468.11348 -27834354.23446  21278658.2664                   21278656.0744
   6677288.82447   5239053.46945  22601543.1094                   22601541.6254
 -19047766.41848 -14430716.05545  22101199.0084                   22101199.9734
 -54619586.46547 -42547263.02745  22348539.2194                   22348535.7304
  24102524.75846  18821724.00842  24375347.6804                   24375346.9734
 11  8 29  2 31  0.0000000  0  9G12G21G29G26G05G15G25G02G18
 -30751443.73447 -23415031.71145  22931121.5864   22931121.0944   19076456.06646
  14893333.21543                  24540827.9774                   24540827.1414
 -11104778.80948  -6604824.48446  21107170.1174                   21107167.7894
  -3952667.53548  -3044143.38345  21864909.6954                   21864909.0634
 -35758010.39848 -27850361.21946  21274749.0234                   21274747.0944
   6496877.27747   5098473.13345  22567212.4224                   22567210.5864
 -19084423.94148 -14459280.38745  22094223.9454                   22094224.2424
 -54662985.69147 -42581080.60545  22340280.3054                   22340277.1684
  23927212.22346  18685117.03943  24341986.5084                   24341985.9774
 11  8 29  2 31 30.0000000  0  9G12G21G29G26G05G15G25G02G18
 -30749892.63347 -23413823.07844  22931416.2584   22931416.1484   18931125.55946
  14780088.70743                  24513172.6954                   24513170.9064
 -11257696.19548  -6723980.87146  21078070.8834                   21078068.3954
  -4108949.56247  -3165921.53945  21835170.4614                   21835169.6684
 -35778267.98848 -27866146.35246  21270894.1724                   21270891.9884
   6316644.31647   4958031.94545  22532915.2504                   22532913.2274
 -19120678.08248 -14487530.38346  22087324.3524                   22087325.6564
 -54706280.95747 -42614817.18045  22332041.9144                   22332038.7344
  23752086.66846  18548655.80943  24308661.5004                   24308660.7544
 11  8 29  2 32  0.0000000  0  9G12G21G29G26G05G15G25G02G18
 -30748212.67247 -23412514.02744  22931736.2194   22931735.8094   18785768.46946
  14666823.47743                  24485511.8594                   24485509.9454
 -11410311.13748  -6842901.57046  21049028.8134                   21049026.6214
  -4264782.44147  -3287349.71145  21805516.2344                   21805514.6644
 -35798242.84448 -27881711.17246  21267093.3134                   21267090.6724
   6136593.91047   4817733.02045  22498652.9774                   22498651.6254
 -19156531.08648 -14515467.81645  22080501.8364                   22080503.0944
 -54749471.10248 -42648471.86345  22323823.2664                   22323819.1524
  23577149.92646  18412341.65243  24275371.3054                   24275371.0594
 11  8 29  2 32 30.0000000  0  9G12G21G29G26G05G15G25G02G18
 -30746407.45747 -23411107.39545  22932080.2504   22932079.2154   18640383.42646
  14553536.51643                  24457846.1644                   24457844.3594
 -11562622.03148  -6961585.36746  21020045.2034                   21020042.5944
  -4420164.03548  -3408426.23445  21775948.3364                   21775946.3054
 -35817938.54748 -27897058.46146  21263345.0004                   21263342.5234
   5956728.02347   4677577.87545  22464425.9064                   22464424.4844
 -19191986.59848 -14543095.50845  22073754.8364                   22073755.9964
 -54792556.90247 -42682045.23845  22315624.0164                   22315620.3094
  23402401.36746  18276174.10943  24242117.8444                   24242117.6914
 11  8 29  2 33  0.0000000  0  9G12G21G29G26G05G15G25G02G18
 -30744477.78147 -23409603.76645  22932447.8364   22932446.3834   18494972.82846
  14440229.59843                  24430175.0474                   24430173.6954
 -11714623.66048  -7080028.15646  20991120.2584                   20991118.3244
  -4575088.21147  -3529146.32045  21746467.4694                   21746464.9304
 -35837354.83248 -27912188.03146  21259650.2034                   21259647.7624
   5777052.55547   4537571.10245  22430235.1334                   22430232.6564
 -19227044.46948 -14570413.34446  22067083.8284                   22067084.5164
 -54835535.25447 -42715534.87945  22307445.5394                   22307442.1094
  23227845.36746  18140156.59843  24208900.4224                   24208900.2424
 11  8 29  2 33 30.0000000  0  9G12G21G29G26G05G15G25G02G18
 -29167009.07447 -22180407.38345  23232629.8204   23232628.7544   19924958.57046
  15554504.27343                  24702292.0004                   24702290.6174
 -10290891.69948  -5970626.59446  21262047.3524                   21262045.5124
  -3154128.62547  -2421905.04745  22016866.8594                   22016864.8204
 -34281075.82448 -26699503.08646  21555800.3284                   21555797.7194
   7172994.29347   5625317.95745  22695873.1804                   22695871.7074
 -17686288.63348 -13369824.41446  22360280.3284                   22360281.2424
 -53302986.46947 -41521341.02745  22599079.7894                   22599076.1844
  24628906.32046  19231892.57043  24475514.2274                   24475513.6334
 11  8 29  2 34  0.0000000  0  9G12G21G29G26G05G15G25G02G18
 -29164840.91447 -22178717.93445  23233042.1954   23233041.8834   19779493.82446
  15441155.18443                  24674610.6954                   24674610.0394
 -10442270.28548  -6088583.90246  21233240.8284                   21233238.9494
  -3308129.36747  -2541905.59045  21987561.7734                   21987559.7464
 -34299942.12948 -26714204.10546  21552210.5634                   21552207.7854
   6993707.36747   5485613.94545  22661756.0704                   22661755.1454
 -17720560.97348 -13396530.15646  22353758.0234                   22353759.1024
 -53345749.98847 -41554663.26645  22590941.9534                   22590938.6454
  24454737.07046  19096176.41043  24442370.5554                   24442369.4804
 11  8 29  2 34 30.0000000  0  9G12G21G29G26G05G15G25G02G18
 -29162558.10247 -22176939.14845  23233476.1954   23233475.8094   19634001.27046
  15327784.42243                  24646925.0554                   24646923.7274
 -10593333.64848  -6206295.59446  21204494.6884                   21204492.8164
  -3461663.72348  -2661542.71145  21958345.1334                   21958342.9304
 -34318537.36748 -26728693.91446  21548671.4614                   21548669.1214
   6814619.33647   5346064.90245  22627676.0704                   22627675.3554
 -17754444.87948 -13422933.22346  22347310.0944                   22347311.6294
 -53388405.52047 -41587901.35245  22582824.7274                   22582821.7814
  24280762.64846  18960612.06343  24409263.7974                   24409263.4614
 11  8 29  2 35  0.0000000  0  9G12G21G29G26G05G15G25G02G18
 -29160168.79747 -22175077.37945  23233931.0314   23233930.0514   19488475.34446
  15214387.64143                  24619232.1254                   24619230.8094
 -10744084.26248  -6323763.57046  21175807.3914                   21175805.6724
  -3614732.83647  -2780817.32045  21929216.3984                   21929214.8834
 -34336868.56648 -26742977.96946  21545183.5864                   21545180.6764
   6635728.33647   5206669.38345  22593634.3524                   22593633.4614
 -17787947.64548 -13449039.31245  22340934.7114                   22340936.1214
 -53430957.17647 -41621058.48845  22574727.8674                   22574724.6764
  24106979.41046  18825196.71543  24376194.1644                   24376193.2544
 11  8 29  2 35 30.0000000  0  9G12G21G29G26G05G15G25G02G18
 -29157670.50847 -22173130.69145  23234406.6174   23234405.7114   19342921.03546
  15100968.75444                  24591533.6884                   24591533.5274
 -10894514.22348  -6440981.70746  21147181.6724                   21147179.8014
  -3767328.58248  -2899723.05945  21900178.6804                   21900176.7154
 -34354932.87548 -26757054.06646  21541745.9844                   21541743.5514
   6457043.07047   5067434.19545  22559631.2194                   22559630.3284
 -17821066.81647 -13474846.50445  22334631.7194                   22334633.1604
 -53473399.39847 -41654130.35945  22566651.5784                   22566647.9184
  23933394.13346  18689935.60542  24343161.5634                   24343160.4734
 11  8 29  2 36  0.0000000  0  9G12G21G29G26G05G15G25G02G18
 -29155069.78947 -22171104.18744  23234901.5004   23234900.2114   19197334.62946
  14987524.87543                  24563829.9614                   24563828.4414
 -11044624.78148  -6557950.95346  21118616.6414                   21118614.4534
  -3919451.17247  -3018260.10945  21871230.6334                   21871228.7894
 -34372736.49648 -26770927.02046  21538358.0554                   21538355.4964
   6278563.03147   4928358.91445  22525667.8054                   22525665.9454
 -17853808.55947 -13500359.57845  22328401.7504                   22328402.5904
 -53515735.45747 -41687119.52745  22558594.7664                   22558591.5704
  23760004.28146  18554826.72342  24310166.0474                   24310165.7974
 11  8 29  2 36 30.0000000  0  9G12G21G29G26G05G15G25G02G18
 -29152366.03147 -22168997.38744  23235415.7424   23235414.9964   19051719.14546
  14874058.33244                  24536119.2974                   24536118.8164
 -11194410.16848  -6674666.81646  21090113.5314                   21090111.5044
  -4071093.45347  -3136422.88745  21842374.1254                   21842372.6414
 -34390278.37948 -26784596.02346  21535019.8524                   21535017.5984
   6100294.82447   4789448.70745  22491744.4304                   22491742.8714
 -17886172.18747 -13525578.00845  22322243.0784                   22322244.2584
 -53557961.40648 -41720022.88745  22550559.7584                   22550555.9344
  23586814.26646  18419873.66042  24277209.2424                   24277208.6294
 11  8 29  2 37  0.0000000  0  9G12G21G29G26G05G15G25G02G18
 -29149565.89547 -22166815.45744  23235948.9774   23235947.9574   18906071.05147
  14760566.37544                  24508404.0314                   24508403.0634
 -11343870.98448  -6791129.77346  21061671.7344                   21061669.7734
  -4222255.71947  -3254211.62145  21813609.0314                   21813607.2894
 -34407564.02348 -26798065.36746  21531730.8914                   21531728.4264
   5922237.72347   4650702.97345  22457860.9064                   22457859.2074
 -17918163.74247 -13550506.49646  22316155.8284                   22316156.8594
 -53600079.91847 -41752842.52045  22542545.1174                   22542541.5744
  23413821.93446  18285074.51642  24244290.3204                   24244289.8324
 11  8 29  2 37 30.0000000  0  9G12G21G29G26G05G15G25G02G18
 -29146670.47747 -22164559.31245  23236499.9304   23236499.0204   18760391.19146
  14647049.64844                  24480681.7344                   24480680.9184
 -11493003.59848  -6907336.98846  21033293.1024                   21033290.8874
  -4372933.08647  -3371622.53145  21784935.8204                   21784934.6134
 -34424594.52748 -26811335.89146  21528489.5944                   21528487.2344
   5744397.50847   4512126.23445  22424018.9534                   22424017.5664
 -17949784.35247 -13575145.95346  22310138.3284                   22310139.6134
 -53642088.61747 -41785576.57445  22534551.2274                   22534547.8634
  23241030.04746  18150431.62143  24211408.5234                   24211408.3134
 11  8 29  2 38  0.0000000  0  9G12G21G29G26G05G15G25G02G18
 -29143682.82047 -22162231.29344  23237068.3054   23237067.1294   18614679.14847
  14533507.87144                  24452954.4224                   24452953.1294
 -11641805.05948  -7023286.16446  21004976.8754                   21004975.1884
  -4523122.27747  -3488653.03945  21756355.9844                   21756354.5944
 -34441371.97348 -26824409.21946  21525296.5004                   21525294.2894
   5566777.08247   4373720.77345  22390219.3754                   22390217.0394
 -17981036.60248 -13599498.38746  22304191.5944                   22304192.3914
 -53683987.20747 -41818224.84845  22526577.6954                   22526574.1644
  23068440.02046  18015945.99242  24178566.0084                   24178565.7464
 11  8 29  2 38 30.0000000  0  9G12G21G29G26G05G15G25G02G18
 -29140607.23047 -22159834.75844  23237654.1564   23237652.2304   18468933.31646
  14419939.73844                  24425219.2034                   24425218.0904
 -11790274.60948  -7138976.69546  20976724.1094                   20976721.9924
  -4672821.55547  -3605301.79345  21727868.5164                   21727867.2894
 -34457900.10248 -26837288.28946  21522151.8054                   21522149.6644
   5389377.93047   4235487.73045  22356461.9144                   22356460.0784
 -18011924.89847 -13623567.19946  22298313.5084                   22298314.9144
 -53725776.28547 -41850787.77745  22518625.6564                   22518622.5634
  22896051.32446  17881617.25843  24145761.0704                   24145760.7624
 11  8 29  2 39  0.0000000  0  9G12G21G29G26G05G15G25G02G18
 -29137443.90647 -22157369.82044  23238256.2814   23238254.4774   18323156.20746
  14306347.24644                  24397478.9534                   24397477.7664
 -11938407.03548  -7254404.54746  20948535.8524                   20948533.6414
  -4822024.89147  -3721564.10245  21699476.4064                   21699475.1484
 -34474178.80548 -26849973.00046  21519054.0704                   21519051.7704
   5212206.15647   4097431.85245  22322746.7974                   22322745.3794
 -18042449.05947 -13647352.28145  22292504.9144                   22292506.3484
 -53767452.94147 -41883263.10245  22510695.1644                   22510691.4734
  22723867.59846  17747448.20743  24112995.0554                   24112994.4304
 11  8 29  2 39 30.0000000  0  9G12G21G29G26G05G15G25G02G18
 -29134197.08246 -22154839.81644  23238872.7194   23238872.8984   18177346.10247
  14192729.06344                  24369731.3054                   24369730.6884
 -12086201.22748  -7369568.84446  20920411.1174                   20920409.2074
  -4970730.15647  -3837438.30545  21671178.3914                   21671176.9454
 -34490211.64548 -26862466.13746  21516003.1414                   21516001.1884
   5035263.51247   3959554.55145  22289075.9144                   22289074.0864
 -18072613.08647 -13670856.72345  22286764.6094                   22286766.0474
 -53809017.73848 -41915651.27745  22502785.7894                   22502781.9344
  22551889.09046  17613439.03543  24080269.6174                   24080267.6954
 11  8 29  2 40  0.0000000  0  9G12G21G29G26G05G15G25G02G18
 -29130870.93747 -22152248.02744  23239506.2424   23239506.3914   18031501.19946
  14079083.75043                  24341978.1954                   24341977.1604
 -12233655.74248  -7484468.44546  20892351.4384                   20892349.7274
  -5118935.37547  -3952922.86745  21642976.3754                   21642974.1684
 -34506002.02748 -26874770.33646  21512998.3204                   21512995.6604
   4858552.27747   3821857.54745  22255448.4224                   22255447.0044
 -18102420.98047 -13694083.64145  22281092.4144                   22281093.9144
 -53850471.30947 -41947952.77345  22494896.9144                   22494893.7814
  22380115.66847  17479589.66043  24047582.0084                   24047581.0394
 11  8 29  2 40 30.0000000  0  9G12G21G29G26G05G15G25G02G18
 -29127468.27047 -22149596.60244  23240154.0864   23240153.5124   17885621.59046
  13965411.41443                  24314218.3984                   24314217.2274
 -12380768.27748  -7599101.59046  20864356.8284                   20864354.5164
  -5266637.55947  -4068015.44145  21614869.7034                   21614867.7544
 -34521552.48448 -26886887.58246  21510039.2344                   21510036.5784
   4682075.41447   3684343.16045  22221866.1094                   22221864.3674
 -18131875.45347 -13717035.18745  22275487.4924                   22275488.6564
 -53891813.07047 -41980167.14845  22487029.7974                   22487026.5044
  22208548.53147  17345901.07843  24014933.8984                   24014933.0824
 11  8 29  2 41  0.0000000  0  9G12G21G29G26G05G15G25G02G18
 -29123989.74247 -22146886.07844  23240816.0314   23240815.0354   17739709.28546
  13851713.57043                  24286452.1174                   24286451.0084
 -12527534.20348  -7713464.62946  20836428.1804                   20836426.5084
  -5413831.10247  -4182711.67645  21586859.4384                   21586857.6684
 -34536862.60948 -26898817.55946  21507125.6884                   21507123.3554
   4505838.27047   3547015.57045  22188329.1484                   22188327.2624
 -18160976.90647 -13739711.66045  22269950.3134                   22269951.2154
 -53933040.15647 -42012292.16445  22479184.6334                   22479180.7034
  22037190.64147  17212375.53143  23982325.9534                   23982325.2704
 11  8 29  2 41 30.0000000  0  9G12G21G29G26G05G15G25G02G18
 -29120438.66047 -22144119.01644  23241491.9224   23241490.5554   17593763.80147
  13737989.88744                  24258679.2974                   24258678.0904
 -12673950.94948  -7827555.58646  20808565.8594                   20808563.7194
  -5560512.98447  -4297009.20345  21558947.2344                   21558945.3364
 -34551935.34448 -26910562.55146  21504257.6094                   21504255.4414
   4329844.38347   3409877.53945  22154839.0704                   22154836.9964
 -18189728.30147 -13762115.35545  22264478.8524                   22264480.0784
 -53974152.16047 -42044327.51245  22471361.5314                   22471357.8054
  21866043.37547  17079014.08243  23949757.5634                   23949757.3164
 11  8 29  2 42  0.0000000  0  9G12G21G29G26G05G15G25G02G18
 -27541402.32447 -20913701.09844  23541973.1884   23541971.9144   19023205.07447
  14851840.27344                  24530693.2974                   24530691.9144
 -11244595.76648  -6713772.31246  21080563.0084                   21080560.9694
  -4131259.50847  -3183305.16045  21830924.9454                   21830923.4884
 -32991356.53548 -25694527.14146  21801225.7424                   21801223.4414
   5729518.36347   4500532.64145  22421187.4534                   22421186.0514
 -16642715.93747 -12556651.19545  22558865.3834                   22558866.3244
 -52439731.30147 -40848674.91044  22763351.7344                   22763348.8094
  23270529.37546  18173418.83643  24217021.3444                   24217020.8164
 11  8 29  2 42 30.0000000  0  9G12G21G29G26G05G15G25G02G18
 -27537723.93047 -20910834.82444  23542672.6954   23542671.3874   18877182.76647
  14738056.75044                  24502906.0704                   24502904.4614
 -11390316.28948  -6827320.76246  21052833.7664                   21052831.3484
  -4276917.81247  -3296805.09445  21803206.2664                   21803205.0474
 -33005970.19148 -25705914.41046  21798445.0004                   21798442.6134
   5554011.09047   4363773.77745  22387789.5554                   22387787.8324
 -16670784.91447 -12578523.14145  22553524.1954                   22553525.5904
 -52480620.54747 -40880536.66045  22755571.0554   22755568.0044   23099797.18846
  18040380.85943                  24184532.3674                   24184531.6254
 11  8 29  2 43  0.0000000  0  9G12G21G29G26G05G15G25G02G18
 -27533985.23847 -20907921.56244  23543384.4064   23543382.7774   18731122.66847
  14624243.72344                  24475111.5004                   24475110.8834
 -11535684.23048  -6940594.46546  21025171.2114                   21025168.7774
  -4422058.73047  -3409901.89145  21775586.8444                   21775586.4064
 -33020357.40648 -25717125.24246  21795707.0394                   21795704.6884
   5378752.53947   4227208.71945  22354438.7664                   22354436.9384
 -16698516.05147 -12600131.83245  22548247.3134                   22548248.3794
 -52521396.91447 -40912310.45345  22747811.4064   22747808.4574   22929275.11747
  17907506.60243                  24152083.2584                   24152081.9694
 11  8 29  2 43 30.0000000  0  9G12G21G29G26G05G15G25G02G18
 -27530187.85247 -20904962.56244  23544106.7974   23544105.0394   18585025.28947
  14510401.66444                  24447310.5394                   24447308.7074
 -11680695.73048  -7053590.43046  20997576.3364                   20997574.3284
  -4566678.08647  -3522592.26645  21748067.1174                   21748065.3554
 -33034518.84848 -25728160.14546  21793012.4534                   21793009.8754
   5203747.32847   4090841.06645  22321137.0554                   22321134.7424
 -16725910.82047 -12621478.41845  22543034.0704                   22543035.1484
 -52562058.33247 -40943994.71145  22740073.7974   22740070.9494   22758965.17646
  17774797.66843                  24119673.9064                   24119673.6094
 11  8 29  2 44  0.0000000  0  9G12G21G29G26G05G15G25G02G18
 -27526333.90247 -20901959.49644  23544839.8444   23544838.6684   18438891.72747
  14396531.44543                  24419501.6644                   24419500.3244
 -11825347.58248  -7166306.15246  20970049.9534                   20970048.0004
  -4710771.71547  -3634872.98445  21720646.8204                   21720645.5594
 -33048456.12148 -25739020.36346  21790360.1724                   21790357.8324
   5028999.18447   3954673.72745  22287883.0394                   22287881.3954
 -16752971.19947 -12642564.41845  22537884.0864                   22537885.2464
 -52602603.32447 -40975588.22745  22732359.2274   22732356.0044   22588869.62146
  17642255.76243                  24087305.7734                   24087304.9454
 11  8 29  2 44 30.0000000  0  9G12G21G29G26G05G15G25G02G18
 -27522425.98846 -20898914.39544  23545584.0004   23545582.3324   18292721.86347
  14282632.93044                  24391686.0004                   24391685.1294
 -11969637.19948  -7278739.59446  20942592.4614                   20942590.4184
  -4854336.39547  -3746741.52345  21693327.9774                   21693326.3014
 -33062170.91048 -25749707.23046  21787750.4454                   21787748.0434
   4854511.98447   3818709.71545  22254679.3674                   22254677.9454
 -16779699.77347 -12663391.88745  22532798.3444                   22532798.7344
 -52643031.16447 -41007090.44545  22724665.3364   22724662.6844   22418989.55946
  17509881.78543                  24054978.0394                   24054977.5354
 11  8 29  2 45  0.0000000  0  9G12G21G29G26G05G15G25G02G18
 -27518468.36346 -20895830.54744  23546336.7034   23546335.2304   18146513.97347
  14168704.79743                  24363863.8134                   24363862.2234
 -12113563.29348  -7390889.77746  20915204.2504                   20915201.9774
  -4997370.44547  -3858196.59445  21666108.9694                   21666107.5944
 -33075667.32048 -25760223.93046  21785182.3054                   21785179.7304
   4680287.22347   3682950.21145  22221526.0554                   22221524.2034
 -16806100.68747 -12683964.04745  22527774.5164                   22527775.3014
 -52683342.84447 -41038502.13345  22716994.0004   22716991.0744   22249324.67646
  17377675.43443                  24022692.3364                   24022691.3204
 11  8 29  2 45 30.0000000  0  9G12G21G29G26G05G15G25G02G18
 -27514463.73847 -20892710.07844  23547098.5554   23547097.4574   18000267.93847
  14054746.91443                  24336034.8524                   24336032.7114
 -12257123.54348  -7502754.89146  20887885.7274                   20887883.2894
  -5139870.57048  -3969235.60545  21638991.9774                   21638990.1564
 -33088947.32448 -25770572.00446  21782655.1334                   21782652.7544
   4506328.48047   3547397.99245  22188423.0474                   22188420.5784
 -16832176.62147 -12704282.98045  22522813.0084                   22522813.0864
 -52723537.22747 -41069822.45345  22709345.2814   22709342.9774   22079876.06646
  17245637.61743                  23990448.1334                   23990446.7664
 11  8 29  2 46  0.0000000  0  9G12G21G29G26G05G15G25G02G18
 -27510417.61747 -20889557.28144  23547868.0864   23547867.9534   17853980.87547
  13940757.10944                  24308197.0634                   24308195.2504
 -12400318.25048  -7614335.15646  20860636.8364                   20860634.1644
  -5281836.74647  -4079858.55545  21611976.6644                   21611975.0204
 -33102015.98448 -25780755.39546  21780168.1954                   21780165.9144
   4332636.29347   3412053.48445  22155370.0314                   22155367.7774
 -16857933.18047 -12724353.03945  22517911.0474                   22517912.1524
 -52763616.56247 -41101053.10945  22701718.7974   22701715.5124   21910642.08646
  17113767.06343                  23958243.2194                   23958242.5044
 11  8 29  2 46 30.0000000  0  9G12G21G29G26G05G15G25G02G18
 -27506330.60247 -20886372.61344  23548646.8054   23548645.6374   17707655.07846
  13826737.07443                  24280351.7194                   24280350.1294
 -12543142.10248  -7725626.44946  20833458.0394                   20833456.2624
  -5423263.05148  -4190060.82845  21585064.1414                   21585062.3914
 -33114872.77048 -25790773.67646  21777721.7734                   21777719.3404
   4159216.34847   3276921.09845  22122368.9924                   22122366.8524
 -16883370.57047 -12744174.38345  22513070.3754                   22513071.3324
 -52803577.71547 -41132191.68745  22694115.0554   22694111.0204   21741626.56647
  16982066.73843                  23926080.4384                   23926079.4144
 11  8 29  2 47  0.0000000  0  9G12G21G29G26G05G15G25G02G18
 -27502207.21547 -20883159.59444  23549432.0704   23549430.2624   17561288.73047
  13712685.47344                  24252499.4924                   24252497.9494
 -12685594.73048  -7836628.46946  20806350.1094                   20806348.0864
  -5564148.52748  -4299841.69145  21558254.7584                   21558253.3094
 -33127521.60248 -25800629.91046  21775314.9224                   21775312.4304
   3986069.96547   3142001.88345  22089420.0784                   22089417.2194
 -16908493.41847 -12763750.61745  22508289.4534                   22508290.4964
 -52843421.82047 -41163239.05145  22686532.5474   22686528.6334   21572829.02046
  16850536.23043                  23893959.5944                   23893958.6054
 11  8 29  2 47 30.0000000  0  9G12G21G29G26G05G15G25G02G18
 -27498049.98047 -20879920.21544  23550223.1334   23550221.0664   17414881.19146
  13598601.76244                  24224638.9694                   24224637.4614
 -12827673.36748  -7947339.06246  20779313.6954                   20779311.2274
  -5704489.99647  -4409198.64545  21531548.2814                   21531546.7854
 -33139965.14148 -25810326.18446  21772947.0474                   21772944.3674
   3813200.35547   3007298.34045  22056524.0784                   22056521.7074
 -16933304.57047 -12783084.00045  22503568.2584                   22503569.2464
 -52883148.00847 -41194194.56645  22678973.0704   22678969.1994   21404249.85546
  16719175.88743                  23861879.8054                   23861878.2704
 11  8 29  2 48  0.0000000  0  9G12G21G29G26G05G15G25G02G18
 -27493860.28946 -20876655.51644  23551019.4534   23551017.5664   17268433.93047
  13484487.10544                  24196771.3134                   24196769.4024
 -12969374.74248  -8057755.69946  20752348.6954                   20752346.4144
  -5844283.24648  -4518128.41445  21504946.3914                   21504945.1914
 -33152204.05548 -25819863.01246  21770617.7664                   21770615.7814
   3640612.20347   2872814.11345  22023681.3834                   22023679.6724
 -16957805.41047 -12802175.56645  22498905.8284                   22498907.4614
 -52922754.53947 -41225056.82445  22671436.0704   22671432.3164   21235891.81647
  16587987.84843                  23829842.6174                   23829840.9184
 11  8 29  2 48 30.0000000  0  9G12G21G29G26G05G15G25G02G18
 -27489642.18747 -20873368.68044  23551821.5164   23551820.7704   17121946.25447
  13370340.93844                  24168895.2344                   24168893.5164
 -13110697.12148  -8167877.00446  20725456.0234                   20725453.5904
  -5983526.31648  -4626629.47745  21478449.7664                   21478448.5394
 -33164241.51648 -25829242.86346  21768327.2424                   21768324.7464
   3468307.60947   2738550.82845  21990892.7664                   21990891.3914
 -16981999.89147 -12821028.42245  22494301.7894                   22494303.1094
 -52962241.98447 -41255826.27345  22663921.5944   22663918.6994   21067754.54347
  16456971.81643                  23797847.3754                   23797845.9304
 11  8 29  2 49  0.0000000  0  9G12G21G29G26G05G15G25G02G18
 -27485397.69547 -20870061.32444  23552630.2344   23552629.0044   16975417.89846
  13256163.10544                  24141011.5554                   24141010.1374
 -13251637.31248  -8277700.50046  20698636.0004                   20698633.7894
  -6122215.78148  -4734699.16845  21452057.7034                   21452056.5824
 -33176079.24648 -25838467.07446  21766074.5474                   21766072.4844
   3296290.34447   2604511.43845  21958159.4064                   21958157.5904
 -17005890.14847 -12839644.20745  22489755.8524                   22489757.1484
 -53001608.66047 -41286501.60945  22656429.8284   22656427.0704   20899839.85947
  16326129.25443                  23765893.8444                   23765893.3754
 11  8 29  2 49 30.0000000  0  9G12G21G29G26G05G15G25G02G18
 -27481129.00047 -20866735.09044  23553442.4614   23553441.5044   16828849.55946
  13141954.08643                  24113120.7814                   24113119.4344
 -13392192.13748  -8387223.71546  20671889.2974                   20671886.6294
  -6260347.85548  -4842334.52345  21425772.0004                   21425770.1414
 -33187718.73048 -25847536.83246  21763859.5944                   21763857.4024
   3124564.36347   2470699.01246  21925480.9064                   21925479.4454
 -17029478.41047 -12858024.69145  22485266.8674                   22485268.4574
 -53040853.43747 -41317081.97345  22648962.8674   22648959.2504   20732149.66846
  16195461.62943                  23733983.1414                   23733982.4494
 11  8 29  2 50  0.0000000  0  9G12G21G29G26G05G15G25G02G18
 -27476839.14847 -20863392.37144  23554259.4774   23554257.7034   16682240.74646
  13027713.57043                  24085221.4224                   24085220.2664
 -13532360.26648  -8496445.60546  20645215.9224                   20645213.8954
  -6397919.94548  -4949533.52745  21399593.0554                   21399591.3554
 -33199162.52348 -25856454.07846  21761681.8364                   21761679.4774
   2953132.47747   2337115.77345  21892858.7584                   21892856.9454
 -17052767.81247 -12876172.30545  22480835.1094                   22480836.8094
 -53079975.74247 -41347566.90644  22641517.3674   22641513.8404   20564684.79746
  16064969.58643                  23702115.2504                   23702114.5664
 11  8 29  2 50 30.0000000  0  9G12G21G29G26G05G15G25G02G18
 -27472534.82847 -20860038.37144  23555078.0314   23555076.8984   16535587.58646
  12913438.43043                  24057314.1644                   24057313.0354
 -13672142.59048  -8605366.86346  20618616.2894                   20618614.0474
  -6534933.10548  -5056296.98845  21373520.6804                   21373518.3324
 -33210416.95348 -25865223.76646  21759540.1484                   21759538.2384
   2781994.12547   2203761.25446  21860291.8524                   21860290.3714
 -17075765.06647 -12894092.25445  22476459.2344                   22476460.5044
 -53118979.24647 -41377959.28545  22634095.7734   22634091.9184   20397441.89146
  15934650.53143                  23670290.4454                   23670288.8094
 11  8 29  2 51  0.0000000  0  9G12G21G29G26G05G15G25G02G18
 -25892795.59447 -19629072.72744  23855692.3204   23855691.1414   17964318.49646
  14026735.31643                  24329192.6884                   24329191.2664
 -12236108.63348  -7486379.34446  20891884.7274                   20891882.0084
  -5095956.47748  -3935016.46945  21647348.4614                   21647346.0704
 -31646059.94948 -24646244.28146  22057227.1884                   22057224.8554
   4186581.68847   3298245.12146  22127576.2424                   22127573.9654
 -15523048.81247 -11684183.47745  22771930.7034                   22771931.4534
 -51582438.22747 -40180654.62544  22926490.0004   22926485.6214   21805851.18446
  17032112.37943                  23938301.7734                   23938299.9694
 11  8 29  2 51 30.0000000  0  9G12G21G29G26G05G15G25G02G18
 -25888462.54747 -19625696.36344  23856517.3284   23856515.5904   17817583.67646
  13912396.63343                  24301268.8364                   24301268.1604
 -12375104.48448  -7594687.78546  20865434.7114                   20865432.4734
  -5231835.58248  -4040896.26245  21621491.4844                   21621488.9184
 -31656933.83648 -24654717.45346  22055158.2194                   22055155.6914
   4016047.62947   3165361.49245  22095124.7734                   22095122.6644
 -15545462.76247 -11701648.89845  22767665.3204                   22767666.8364
 -51621194.18047 -40210854.12144  22919115.1484   22919110.5944   21639063.02046
  16902147.62143                  23906563.6254                   23906562.2504
 11  8 29  2 52  0.0000000  0  9G12G21G29G26G05G15G25G02G18
 -25884119.76247 -19622312.38344  23857343.6954   23857341.9264   17670807.68846
  13798025.79743                  24273338.5004                   24273337.1954
 -12513703.71148  -7702687.16046  20839060.0084                   20839057.3554
  -5367143.53148  -4146330.99245  21595742.9774                   21595741.1484
 -31667620.60548 -24663044.82046  22053124.5394                   22053122.1294
   3845820.13748   3032716.73445  22062731.3524                   22062729.2774
 -15567589.44947 -11718890.50045  22763455.1804                   22763455.8204
 -51659825.43447 -40240956.41445  22911763.5944   22911760.0904   21472503.96946
  16772361.40243                  23874867.9064                   23874867.2584
 11  8 29  2 52 30.0000000  0  9G12G21G29G26G05G15G25G02G18
 -25879774.28147 -19618926.31644  23858170.5234   23858168.9654   17523986.11346
  13683619.48043                  24245400.5394                   24245398.9494
 -12651907.97348  -7810378.77346  20812760.4774                   20812758.2074
  -5501881.78548  -4251321.80145  21570103.2194                   21570101.6954
 -31678126.97348 -24671231.61346  22051125.4384                   22051122.5354
   3675898.17647   2900310.05545  22030396.1414                   22030394.0864
 -15589436.02347 -11735913.79745  22759297.9144                   22759298.9454
 -51698335.38347 -40270964.20745  22904435.1334   22904432.4384   21306170.39146
  16642750.90643                  23843215.5784                   23843214.4614
 11  8 29  2 53  0.0000000  0  9G12G21G29G26G05G15G25G02G18
 -25875426.17646 -19615538.20344  23858997.4384   23858996.7304   17377121.56346
  13569179.62543                  24217452.8444                   24217450.7154
 -12789712.74248  -7917759.09046  20786536.9144                   20786534.6024
  -5636045.14148  -4355864.65246  21544572.6954                   21544571.8134
 -31688452.62148 -24679277.58646  22049160.3284                   22049157.7114
   3506287.47747   2768145.90645  21998120.0554                   21998118.2934
 -15611002.94147 -11752719.21145  22755193.5234                   22755195.0744
 -51736720.89847 -40300874.99244  22897130.7734   22897128.1174   21140065.28546
  16513318.41043                  23811606.2274                   23811605.6134
 11  8 29  2 53 30.0000000  0  9G12G21G29G26G05G15G25G02G18
 -25871076.61746 -19612148.93044  23859823.6954   23859824.2734   17230214.98446
  13454707.04743                  24189496.9924                   24189496.1454
 -12927113.94148  -8024824.93746  20760390.2664                   20760388.0124
  -5769629.18447  -4459956.07846  21519152.3524                   21519151.4884
 -31698598.35548 -24687183.36746  22047229.5944                   22047227.2074
   3336992.84447   2636228.04345  21965904.3914                   21965902.2424
 -15632291.54747 -11769307.76245  22751142.9454                   22751144.0744
 -51774980.12147 -40330687.39545  22889850.3364   22889847.0314   20974191.37546
  16384066.05943                  23780042.3364                   23780040.9064
 11  8 29  2 54  0.0000000  0  9G12G21G29G26G05G15G25G02G18
 -25866727.71146 -19608760.17644  23860652.8054   23860652.6024   17083267.34446
  13340202.48843                  24161534.8444                   24161532.3284
 -13064108.23048  -8131573.71946  20734321.3754                   20734319.2854
  -5902630.80548  -4563593.68045  21493842.9924                   21493841.6024
 -31708565.55547 -24694950.02746  22045333.3594                   22045330.4064
   3168018.00047   2504559.37545  21933749.5474                   21933747.7774
 -15653304.07448 -11785681.16845  22747144.8594                   22747145.4614
 -51813111.69147 -40360400.32044  22882593.9844   22882590.7894   20808550.58246
  16254995.40643                  23748521.9144                   23748520.4184
 11  8 29  2 54 30.0000000  0  9G12G21G29G26G05G15G25G02G18
 -25862383.19147 -19605374.85944  23861479.5314   23861479.1644   16936277.44546
  13225665.00042                  24133562.2344                   24133560.4844
 -13200694.93048  -8238004.90646  20708329.5234                   20708327.4614
  -6035048.41048  -4666776.19545  21468644.8754                   21468643.4264
 -31718357.44948 -24702580.06646  22043469.9064                   22043467.4454
   2999364.91447   2373141.41445  21901655.8754                   21901653.8834
 -15674044.52748 -11801842.57045  22743197.7974                   22743198.9344
 -51851116.15647 -40390014.22344  22875362.1884   22875358.5044   20643142.56646
  16126106.09843                  23717045.7424                   23717043.6604
 11  8 29  2 55  0.0000000  0  9G12G21G29G26G05G15G25G02G18
 -25858045.09047 -19601994.55544  23862305.1414   23862304.2974   16789245.60946
  13111094.84843                  24105583.5164                   24105581.2304
 -13336870.67648  -8344115.85946  20682416.3444                   20682414.1134
  -6166878.45348  -4769500.87545  21443558.4924                   21443556.7624
 -31727975.33248 -24710074.53146  22041639.5394                   22041637.2734
   2831037.55547   2241977.27745  21869624.7344                   21869622.2114
 -15694515.12147 -11817793.70745  22739301.9534                   22739303.6914
 -51888991.82047 -40419527.75044  22868154.5944   22868150.7194   20477968.89547
  15997399.40643                  23685614.0394                   23685612.6804
 11  8 29  2 55 30.0000000  0  9G12G21G29G26G05G15G25G02G18
 -25853720.80947 -19598625.00444  23863127.7114   23863127.0704   16642167.54346
  12996488.62143                  24077594.7114                   24077592.9344
 -13472637.45348  -8449908.13746  20656580.7034                   20656578.5704
  -6298122.91848  -4871769.25045  21418583.7424                   21418581.8914
 -31737425.93048 -24717438.63746  22039841.0234                   22039838.6524
   2663034.57047   2111065.88746  21837654.6334                   21837652.6484
 -15714723.18047 -11833540.28545  22735456.7194                   22735458.1374
 -51926742.81647 -40448944.15644  22860971.1334   22860966.8794   20313025.86747
  15868872.36743                  23654226.9064                   23654224.8244
 11  8 29  2 56  0.0000000  0  9G12G21G29G26G05G15G25G02G18
 -25849407.28947 -19595263.82844  23863949.1174   23863947.1294   16495048.35946
  12881850.43043                  24049599.1724                   24049597.1994
 -13607987.96948  -8555376.07446  20630823.9924                   20630821.7974
  -6428773.58248  -4973574.92646  21393721.6884                   21393719.9574
 -31746705.85548 -24724669.76246  22038075.5394                   22038072.5084
   2495364.53547   1980413.95346  21805748.1414                   21805745.9964
 -15734666.18447 -11849080.32045  22731661.4064                   22731662.4734
 -51964362.91447 -40478258.53544  22853812.0314   22853808.6294   20148319.88347
  15740530.09843                  23622883.6884                   23622882.2624
 11  8 29  2 56 30.0000000  0  9G12G21G29G26G05G15G25G02G18
 -25845111.20347 -19591916.24244  23864766.4144   23864764.3954   16347883.87946
  12767176.89843                  24021594.6334                   24021592.5944
 -13742924.31648  -8660521.26646  20605146.7344                   20605144.3954
  -6558832.13748  -5074919.20745  21368972.2424                   21368969.8914
 -31755821.69148 -24731773.01645  22036340.5864                   22036338.1054
   2328026.18047   1850020.46946  21773904.4454                   21773902.4694
 -15754351.30147 -11864419.40645  22727915.5394                   22727916.5274
 -52001855.49647 -40507473.55544  22846677.4454   22846674.1294   19983847.66847
  15612369.96943                  23591585.5634                   23591583.8984
 11  8 29  2 57  0.0000000  0  9G12G21G29G26G05G15G25G02G18
 -25840838.05547 -19588586.54744  23865579.8284   23865577.0514   16200671.97746
  12652466.42243                  23993581.6954                   23993578.6914
 -13877445.75848  -8765343.16046  20579548.1334                   20579546.1564
  -6688298.25448  -5175801.84845  21344335.4304                   21344333.4774
 -31764777.44548 -24738751.55546  22034636.3054                   22034633.6214
   2161020.73047   1719886.38746  21742124.1564                   21742122.1844
 -15773783.53547 -11879561.42245  22724217.6334                   22724218.9224
 -52039222.22747 -40536590.49244  22839567.1334   22839564.3094   19819607.94147
  15484391.01243                  23560331.9454                   23560330.3244
 11  8 29  2 57 30.0000000  0  9G12G21G29G26G05G15G25G02G18
 -25836587.26647 -19585274.27744  23866388.8674   23866386.8404   16053415.01646
  12537720.82843                  23965559.0084                   23965557.2424
 -14011547.12548  -8869837.71946  20554029.3914                   20554027.3204
  -6817166.32848  -5276218.49245  21319812.3594                   21319810.8674
 -31773572.28948 -24745604.68746  22032963.0474                   22032960.1484
   1994354.01648   1590016.26246  21710408.5634                   21710406.7894
 -15792962.93747 -11894506.43045  22720568.6804                   22720569.7704
 -52076459.50847 -40565606.55544  22832480.8204   22832477.6724   19655604.43447
  15356596.11743                  23529122.7584                   23529121.4574
 11  8 29  2 58  0.0000000  0  9G12G21G29G26G05G15G25G02G18
 -25832360.91847 -19581980.99644  23867193.1804   23867191.8874   15906113.77746
  12422940.70343                  23937528.6724                   23937526.7304
 -14145225.68048  -8974002.80546  20528591.3834                   20528589.1764
  -6945433.35248  -5376166.79745  21295404.0164                   21295402.7464
 -31782208.05148 -24752333.86746  22031319.3754                   22031317.2504
   1828029.68047   1460412.93446  21678757.9694                   21678755.6954
 -15811891.88347 -11909256.29745  22716966.4224                   22716968.2814
 -52113566.11347 -40594520.80944  22825420.0314   22825416.8954   19491838.20347
  15228986.14843                  23497959.2734                   23497956.9654
 11  8 29  2 58 30.0000000  0  9G12G21G29G26G05G15G25G02G18
 -25828163.61747 -19578710.32044  23867990.8364   23867991.0234   15758766.60247
  12308124.75843                  23909490.2664                   23909487.0664
 -14278480.72348  -9077837.89146  20503233.5944                   20503231.8284
  -7073098.48048  -5475646.08645  21271110.0864                   21271109.0744
 -31790688.30148 -24758941.85246  22029705.4224                   22029703.3754
   1662049.16847   1331077.52346  21647173.0634                   21647170.3554
 -15830575.02347 -11923814.62145  22713411.1644                   22713412.9344
 -52150542.99647 -40623333.98044  22818382.9694   22818380.0234   19328308.88747
  15101560.78943                  23466841.0554                   23466838.7894
 11  8 29  2 59  0.0000000  0  9G12G21G29G26G05G15G25G02G18
 -25823997.58246 -19575464.05144  23868783.7194   23868783.3324   15611373.73446
  12193273.24643                  23881441.3984                   23881439.4304
 -14411309.96548  -9181341.18446  20477956.9534                   20477955.1414
  -7200159.38348  -5574654.54746  21246931.8054                   21246930.2034
 -31799015.14148 -24765430.30546  22028121.1644                   22028118.5704
   1496415.66047   1202012.48045  21615653.9224                   21615651.9804
 -15849015.27747 -11938183.69145  22709902.0084                   22709903.6094
 -52187389.60947 -40652045.64544  22811371.1094   22811368.1914   19165017.00046
  14974320.42244                  23435767.4694                   23435765.8874
 11  8 29  2 59 30.0000000  0  9G12G21G29G26G05G15G25G02G18
 -25819862.79346 -19572242.10543  23869571.2974   23869569.8284   15463937.75446
  12078388.10943                  23853385.6804                   23853382.9024
 -14543708.32448  -9284508.72746  20452762.8364                   20452760.1844
  -7326610.53148  -5673187.88746  21222868.7344                   21222867.1294
 -31807187.46147 -24771798.34846  22026565.7664                   22026564.3324
   1331135.05147   1073222.44146  21584202.2814                   21584199.7384
 -15867212.61347 -11952363.48845  22706439.2274                   22706440.4064
 -52224102.44147 -40680653.07044  22804385.4144   22804381.7974   19001966.86346
  14847268.40644                  23404740.2274                   23404738.9964
 11  8 29  3  0  0.0000000  0  9G12G21G29G26G05G15G25G02G18
 -24240348.82846 -18341452.00043  24170142.7274   24170141.0044   16891876.86347
  13191068.00843                  24125112.9454                   24125111.3284
 -13100255.81648  -8159740.53146  20727442.7344                   20727440.2464
  -5877031.97348  -4543646.11746  21498714.2424                   21498712.1294
 -30239793.96547 -23550452.77746  22324830.7274                   22324829.1374
   2741629.33648   2172308.93846  21852610.3054                   21852608.4694
 -14309756.01247 -10738760.99245  23002812.6644                   23002814.8874
 -50685265.89147 -39481559.69144  23097216.3364   23097212.5744   20414577.41047
  15948003.94543                  23673550.3524                   23673549.3054
 11  8 29  3  0 30.0000000  0  9G12G21G29G26G05G15G25G02G18
 -24236296.19146 -18338294.13343  24170914.0234   24170912.3634   16744342.84446
  13076106.48043                  24097038.6804                   24097036.1994
 -13231797.58648  -8262240.59447  20702410.8984                   20702408.9964
  -6002268.28148  -4641232.80945  21474882.1954                   21474880.0474
 -30247675.93047 -23556594.57446  22323331.1094                   22323329.1764
   2577051.97748   2044066.87946  21821292.4384                   21821290.0084
 -14327488.17647 -10752578.27045  22999438.9144                   22999440.5044
 -50721720.66847 -39509966.03945  23090279.6174   23090275.8794   20252000.30547
  15821320.52344                  23642613.3134                   23642612.3134
 11  8 29  3  1  0.0000000  0  9G12G21G29G26G05G15G25G02G18
 -24232283.85546 -18335167.66043  24171677.5314   24171675.4964   16596764.91846
  12961110.74643                  24068954.3674                   24068953.0354
 -13362902.73448  -8364400.43447  20677462.5234                   20677460.3484
  -6126888.69948  -4738339.59845  21451167.6644                   21451165.9104
 -30255410.70347 -23562621.66845  22321859.4064                   22321857.1054
   2412835.51648   1916106.04346  21790043.2114                   21790040.8244
 -14344987.27747 -10766213.94945  22996109.0314                   22996110.2194
 -50758040.59847 -39538267.30944  23083367.9924   23083364.5354   20089665.84447
  15694826.16044                  23611722.0234                   23611720.6684
 11  8 29  3  1 30.0000000  0  9G12G21G29G26G05G15G25G02G18
 -24228318.31647 -18332077.61344  24172432.7274   24172430.6254   16449138.69146
  12846077.37943                  24040862.4614                   24040859.9304
 -13493572.98448  -8466221.39547  20652596.5234                   20652594.4694
  -6250895.02348  -4834967.87145  21427570.2274                   21427567.8714
 -30263004.65247 -23568539.04345  22320414.3914                   22320412.0664
   2248979.24648   1788425.87146  21758862.1724                   21758859.8594
 -14362260.28548 -10779673.44545  22992822.1644                   22992822.9064
 -50794229.12547 -39566466.18044  23076481.5554   23076477.5204   19927570.65247
  15568518.29343                  23580875.6414                   23580874.7624
 11  8 29  3  2  0.0000000  0  9G12G21G29G26G05G15G25G02G18
 -24224400.95346 -18329025.12944  24173177.6094   24173175.7544   16301465.57446
  12731007.49643                  24012760.4924                   24012759.2194
 -13623805.03548  -8567700.89547  20627814.5164                   20627812.0554
  -6374283.66848  -4931114.84446  21404090.2194                   21404088.1604
 -30270458.33647 -23574347.13346  22318996.1804                   22318993.3984
   2085487.23847   1661029.55946  21727750.4454                   21727748.3954
 -14379308.93047 -10792958.13745  22989578.0944                   22989579.5044
 -50830284.57847 -39594561.37544  23069620.3204   23069617.3524   19765716.96147
  15442398.60243                  23550076.3754                   23550074.7304
 11  8 29  3  2 30.0000000  0  9G12G21G29G26G05G15G25G02G18
 -24220534.32046 -18326012.16044  24173913.3364   24173911.9884   16153745.40646
  12615900.89843                  23984650.4064                   23984649.0394
 -13753596.64548  -8668837.19547  20603115.7814                   20603113.4964
  -6497052.23448  -5026778.62146  21380727.8984                   21380726.3794
 -30277773.71147 -23580047.43745  22317603.9304                   22317601.6294
   1922362.89848   1533919.73046  21696708.6644                   21696706.5354
 -14396136.08647 -10806070.22745  22986375.9144                   22986377.7114
 -50866205.90647 -39622552.06244  23062784.4614   23062781.0744   19604105.39147
  15316467.54743                  23519323.2584                   23519320.7664
 11  8 29  3  3  0.0000000  0  9G12G21G29G26G05G15G25G02G18
 -24216718.22346 -18323038.59444  24174639.1414   24174638.2664   16005980.78146
  12500759.65643                  23956531.6644                   23956529.8984
 -13882942.55148  -8769626.18747  20578501.9614                   20578499.9184
  -6619195.73848  -5121955.35545  21357485.1484                   21357483.1884
 -30284950.10947 -23585639.44945  22316238.0474                   22316235.8874
   1759611.74248   1407100.69146  21665738.1484                   21665735.7854
 -14412742.07047 -10819009.96145  22983215.4844                   22983217.4924
 -50901989.93447 -39650435.76244  23055975.5474   23055971.6954   19442739.31347
  15190727.80143                  23488616.2424                   23488614.3914
 11  8 29  3  3 30.0000000  0  9G12G21G29G26G05G15G25G02G18
 -24212957.80947 -18320108.39544  24175355.0234   24175354.0274   15858169.75446
  12385582.25843                  23928404.7274                   23928403.0164
 -14011843.37148  -8870068.37147  20553973.2894                   20553970.8954
  -6740714.35248  -5216645.16445  21334360.5314                   21334359.3714
 -30291992.17647 -23591126.79745  22314897.9144                   22314895.7114
   1597234.47748   1280573.00046  21634838.8134                   21634837.0474
 -14429132.08647 -10831781.41845  22980096.4384                   22980098.5634
 -50937638.18447 -39678213.67245  23049192.1724   23049188.0514   19281617.59047
  15065178.45343                  23457954.9844                   23457953.7154
 11  8 29  3  4  0.0000000  0  9G12G21G29G26G05G15G25G02G18
 -24209258.09047 -18317225.50444  24176059.3524   24176057.6374   15710309.42246
  12270366.48043                  23900267.0784                   23900265.6564
 -14140299.62148  -8970164.14147  20529528.5084                   20529526.3054
  -6861608.57048  -5310848.41846  21311355.2504                   21311353.5004
 -30298904.37547 -23596512.92645  22313582.4224                   22313580.7854
   1435231.47748   1154336.91846  21604010.5474                   21604008.2544
 -14445311.86747 -10844389.03145  22977017.9144                   22977019.4304
 -50973152.71147 -39705887.35244  23042433.6024   23042430.1954   19120737.74647
  14939817.57443                  23427340.6254                   23427339.0554
 11  8 29  3  4 30.0000000  0  9G12G21G29G26G05G15G25G02G18
 -24205618.15647 -18314389.19144  24176751.9384   24176750.5634   15562403.44246
  12155115.09143                  23872121.5634                   23872119.9734
 -14268305.46148  -9069908.94147  20505170.0084                   20505167.9104
  -6981872.77348  -5404560.77345  21288469.6724                   21288467.8244
 -30305684.90647 -23601796.46945  22312292.3204                   22312290.2304
   1273608.77348   1028397.17646  21573254.5944                   21573252.5864
 -14461280.82447 -10856832.39545  22973979.6414                   22973980.1564
 -51008529.46147 -39733453.69945  23035701.6414   23035698.6844   18960104.16447
  14814648.60243                  23396772.2734                   23396771.9224
 11  8 29  3  5  0.0000000  0  9G12G21G29G26G05G15G25G02G18
 -24202043.40246 -18311603.65244  24177432.3054   24177430.5514   15414449.43846
  12039826.33243                  23843967.7814                   23843964.7624
 -14395861.16048  -9169302.98447  20480896.9774                   20480894.7274
  -7101507.25848  -5497782.41846  21265703.9924                   21265701.7194
 -30312338.68047 -23606981.24245  22311026.7194                   22311024.1994
   1112367.31348    902754.52046  21542571.6094                   21542569.4804
 -14477044.34847 -10869115.68445  22970979.9144                   22970981.2664
 -51043770.23447 -39760914.06645  23028995.3594   23028992.4494   18799715.21947
  14689670.23443                  23366251.9774                   23366250.9924
 11  8 29  3  5 30.0000000  0  9G12G21G29G26G05G15G25G02G18
 -24198535.14846 -18308869.92644  24178099.6564   24178097.7624   15266448.31346
  11924500.82443                  23815803.0554                   23815801.1024
 -14522963.75048  -9268343.95347  20456710.1174                   20456707.9104
  -7220508.85248  -5590510.89845  21243059.1644                   21243056.7934
 -30318867.06247 -23612068.29745  22309784.1884                   22309781.8284
    951511.00048    777411.97346  21511961.8364                   21511959.1954
 -14492604.60547 -10881240.55545  22968018.6724                   22968020.6174
 -51078873.27347 -39788267.12144  23022315.5704   23022313.2854   18639572.48846
  14564883.72743                  23335777.7584                   23335776.4264
 11  8 29  3  6  0.0000000  0  9G12G21G29G26G05G15G25G02G18
 -24195097.18746 -18306190.95344  24178754.1804   24178753.0234   15118398.94946
  11809137.72743                  23787630.4774                   23787628.1994
 -14649612.50048  -9367031.28147  20432609.4454                   20432607.2234
  -7338877.02348  -5682745.78945  21220534.3134                   21220532.0434
 -30325272.55147 -23617059.59845  22308565.2664                   22308562.7774
    791041.37148    652370.73846  21481425.4224                   21481423.1214
 -14507965.72347 -10893210.24645  22965095.5314                   22965096.8524
 -51113839.50447 -39815513.57844  23015661.4614   23015658.2974   18479675.30946
  14440288.53544                  23305350.2194                   23305348.5394
 11  8 29  3  6 30.0000000  0  9G12G21G29G26G05G15G25G02G18
 -24191731.77046 -18303568.51243  24179393.8674   24179393.4924   14970301.66046
  11693737.30543                  23759448.8754                   23759445.9264
 -14775804.84048  -9465362.97747  20408595.9304                   20408593.5744
  -7456609.03948  -5774484.98845  21198130.2274                   21198128.3634
 -30331557.24647 -23621956.77345  22307368.6644                   22307366.8754
    630961.46148    527633.18046  21450963.2194                   21450960.8134
 -14523130.41447 -10905026.90245  22962209.9224                   22962211.0204
 -51148667.75847 -39842652.52044  23009033.7504   23009031.0984   18320024.68446
  14315885.48043                  23274970.3054                   23274968.1914
 11  8 29  3  7  0.0000000  0  9G12G21G29G26G05G15G25G02G18
 -24188440.55146 -18301003.90243  24180019.6024   24180019.7584   14822157.80547
  11578300.59443                  23731258.0084                   23731254.3874
 -14901537.60948  -9563336.55147  20384669.5784                   20384667.6994
  -7573702.21148  -5865726.39546  21175847.9774                   21175846.0354
 -30337721.89547 -23626760.41845  22306196.4614                   22306194.2704
    471275.44148    403202.55946  21420575.9144                   21420572.9654
 -14538100.55547 -10916691.94545  22959361.0314                   22959361.5084
 -51183356.33247 -39869682.60944  23002432.8364   23002429.9884   18160622.19147
  14191675.76644                  23244636.4304                   23244635.5864
 11  8 29  3  7 30.0000000  0  9G12G21G29G26G05G15G25G02G18
 -24185230.07446 -18298502.20343  24180630.2814   24180630.3054   14673962.97347
  11462824.17243                  23703056.9384                   23703055.5704
 -15026812.89148  -9660953.64147  20360830.7734                   20360828.4064
  -7690158.22748  -5956471.31246  21153687.4614                   21153685.9024
 -30343772.35247 -23631475.07445  22305044.7734                   22305042.8164
    311982.48848    279078.20746  21390263.2734                   21390261.1954
 -14552883.19947 -10928210.89145  22956548.3914                   22956548.6994
 -51217908.69147 -39896606.56244  22995857.3204   22995854.7544   18001464.70746
  14067656.97744                  23214349.5004                   23214348.7034
 11  8 29  3  8  0.0000000  0  9G12G21G29G26G05G15G25G02G18
 -24182099.96546 -18296063.15243  24181226.5704   24181226.4924   14525720.05947
  11347310.23043                  23674847.2584                   23674845.4494
 -15151625.61348  -9758210.30147  20337079.4534                   20337077.0474
  -7805972.51648  -6046716.17646  21131648.8834                   21131647.0394
 -30349707.97747 -23636100.24645  22303915.2034                   22303913.2774
    153088.07448    155264.41446  21360026.1954                   21360024.5124
 -14567478.40247 -10939583.79345  22953770.2274                   22953771.5354
 -51252321.42247 -39923421.69944  22989309.1954   22989306.3134   17842555.83647
  13943831.90244                  23184110.4384                   23184109.0634
 11  8 29  3  8 30.0000000  0  9G12G21G29G26G05G15G25G02G18
 -22603634.83246 -17066090.34843  24481598.7114   24481597.6024   15952852.73847
  12459361.69943                  23946422.3834                   23946420.1764
 -13700551.73048  -8627503.36347  20613209.5704                   20613207.6254
  -6345721.32048  -4908858.08246  21409525.2664                   21409522.9224
 -28780112.39847 -22413038.76245  22602599.1174                   22602597.2774
   1570018.34048   1259365.94946  21629659.2194                   21629657.0984
 -13006470.91847  -9723214.33245  23250820.2034                   23250821.6254
 -49711174.83647 -38722528.31244  23282580.1174   23282576.6334   19259318.89147
  15047803.14144                  23453711.5474                   23453709.3874
 11  8 29  3  9  0.0000000  0  9G12G21G29G26G05G15G25G02G18
 -22600674.91046 -17063783.93743  24482162.5554   24482160.8404   15804512.37147
  12343771.85244                  23918193.6414                   23918191.8524
 -13824435.72748  -8724036.33647  20589635.4614                   20589633.2274
  -6460248.56248  -4998100.05945  21387731.5164                   21387729.1644
 -28785825.91447 -22417490.85245  22601512.1804                   22601509.9344
   1411927.62548   1136178.41046  21599575.7424                   21599573.7234
 -13020702.55548  -9734303.95345  23248112.4924                   23248113.5554
 -49745308.48047 -38749126.00444  23276085.3444   23276081.2774   19100906.10947
  14924364.63744                  23423566.6484                   23423564.5354
 11  8 29  3  9 30.0000000  0  9G12G21G29G26G05G15G25G02G18
 -22597805.03946 -17061547.68043  24482708.3054   24482706.6024   15656122.53147
  12228143.44544                  23889955.8914                   23889953.3164
 -13947853.34048  -8820205.91047  20566149.7664                   20566147.4694
  -6574130.28148  -5086839.01645  21366060.3834                   21366057.9654
 -28791432.66847 -22421859.75845  22600445.0394                   22600443.1024
   1254242.01248   1013306.54746  21569569.1954                   21569567.2274
 -13034757.81247  -9745256.17645  23245437.3284                   23245439.5234
 -49779302.57447 -38775614.93744  23269616.2584   23269612.6454   18942741.31647
  14801119.39544                  23393469.3594                   23393467.1914
 11  8 29  3 10  0.0000000  0  9G12G21G29G26G05G15G25G02G18
 -22595027.15646 -17059383.07443  24483235.9534   24483235.1294   15507683.68847
  12112476.84044                  23861708.8284                   23861706.7894
 -14070801.69948  -8916009.82047  20542753.5634                   20542751.1724
  -6687364.00448  -5175073.04745  21344512.7974                   21344510.3284
 -28796933.38747 -22426146.04345  22599398.1954                   22599396.3054
   1096965.16848    890753.21546  21539640.8984                   21539638.2194
 -13048638.94547  -9756072.68445  23242796.3524                   23242797.8404
 -49813155.80147 -38801994.05544  23263173.8444   23263170.6524   18784825.94547
  14678068.48044                  23363419.2974                   23363416.4774
 11  8 29  3 10 30.0000000  0  9G12G21G29G26G05G15G25G02G18
 -22592343.26246 -17057291.74243  24483746.9534   24483746.6684   15359195.87147
  11996772.11343                  23833452.7734                   23833450.8404
 -14193278.68748  -9011446.42647  20519446.7424                   20519444.4614
  -6799947.96548  -5262800.77346  21323088.4144                   21323086.4304
 -28802330.21547 -22430351.36745  22598371.4844                   22598369.3524
    940099.90248    768520.59846  21509789.9224                   21509787.5124
 -13062348.77747  -9766755.71145  23240187.4774                   23240189.0824
 -49846867.53946 -38828262.93444  23256758.3134   23256755.4264   18627160.43847
  14555212.29743                  23333415.8594                   23333413.9924
 11  8 29  3 11  0.0000000  0  9G12G21G29G26G05G15G25G02G18
 -22589755.20346 -17055275.05544  24484240.1644   24484239.2274   15210660.75047
  11881030.48044                  23805187.7584                   23805185.1414
 -14315281.38348  -9106513.45747  20496230.4454                   20496228.5084
  -6911879.29348  -5350019.96546  21301788.7974                   21301786.7384
 -28807623.87947 -22434476.31645  22597364.5164                   22597361.8484
    783650.06348    646611.67246  21480018.7424                   21480016.7894
 -13075889.41447  -9777306.88744  23237610.7424                   23237611.7344
 -49880436.21946 -38854420.37144  23250370.9774   23250368.2974   18469746.60547
  14432552.21543                  23303460.5634                   23303459.1414
 11  8 29  3 11 30.0000000  0  9G12G21G29G26G05G15G25G02G18
 -22587267.19546 -17053336.37544  24484713.4614   24484712.1914   15062075.83646
  11765250.05143                  23776912.3914                   23776910.8674
 -14436810.03148  -9201211.09447  20473104.3054                   20473102.3874
  -7023158.38748  -5436730.92646  21280612.9534                   21280611.7344
 -28812818.53547 -22438524.11345  22596376.0314                   22596373.4924
    627616.36748    525027.01246  21450326.2974                   21450324.2424
 -13089265.99247  -9787730.22744  23235064.8834                   23235065.9184
 -49913863.26647 -38880467.41444  23244010.4844   23244006.5594   18312582.98847
  14310087.07843                  23273553.4614                   23273551.1524
 11  8 29  3 12  0.0000000  0  9G12G21G29G26G05G15G25G02G18
 -22584881.27346 -17051477.22744  24485167.1094   24485166.3674   14913442.28146
  11649431.70743                  23748628.7344                   23748626.2234
 -14557862.20348  -9295537.44947  20450068.8754                   20450066.2934
  -7133783.02048  -5522931.92246  21259561.5554                   21259560.2584
 -28817915.68747 -22442495.93445  22595405.8834                   22595403.4264
    472002.02348    403769.11346  21420713.4304                   21420711.5394
 -13102480.84847  -9798027.57844  23232550.8984                   23232551.6094
 -49947147.66047 -38906403.31644  23237676.5314   23237672.4534   18155670.60247
  14187817.71144                  23243694.4304                   23243692.6524
 11  8 29  3 12 30.0000000  0  9G12G21G29G26G05G15G25G02G18
 -22582599.89146 -17049699.54744  24485601.3134   24485600.4224   14764760.05946
  11533575.46143                  23720335.2974                   23720332.5124
 -14678435.84848  -9389490.94147  20427124.5704                   20427122.4104
  -7243751.37548  -5608621.54346  21238635.6804                   21238633.9264
 -28822916.60547 -22446392.75845  22594454.1644                   22594452.1994
    316809.79748    282840.12946  21391181.8134                   21391179.4694
 -13115536.84448  -9808201.10945  23230066.0314                   23230067.6604
 -49980288.48847 -38932227.35944  23231369.7584   23231365.7854   17999009.99247
  14065744.52344                  23213882.4534                   23213881.5354
 11  8 29  3 13  0.0000000  0  9G12G21G29G26G05G15G25G02G18
 -22580424.93446 -17048004.78944  24486015.3284   24486014.1914   14616030.07846
  11417682.02343                  23692033.4694                   23692030.6294
 -14798528.25448  -9483069.44147  20404271.6564                   20404269.3444
  -7353061.33248  -5693798.12146  21217834.9224                   21217832.1414
 -28827822.86347 -22450215.82045  22593520.6564                   22593518.5864
    162043.54748    162243.07846  21361730.4614                   21361727.9694
 -13128436.41047  -9818252.71545  23227611.0394                   23227613.1484
 -50013284.66447 -38957938.68444  23225090.7894   23225087.1484   17842602.25047
  13943868.39544                  23184119.0944                   23184117.0784
 11  8 29  3 13 30.0000000  0  9G12G21G29G26G05G15G25G02G18
 -22578358.04346 -17046394.22744  24486409.0864   24486407.9694   14467253.28946
  11301752.09043                  23663721.6024                   23663719.6094
 -14918136.84448  -9576270.93447  20381511.0004                   20381509.1214
  -7461710.16448  -5778459.51646  21197159.3834                   21197156.7344
 -28832635.23847 -22453965.74645  22592604.9454                   22592602.7894
      7706.93448     41980.80946  21332361.3204                   21332358.7704
 -13141181.48047  -9828183.94144  23225186.1024                   23225188.0864
 -50046134.54747 -38983536.02344  23218839.4384   23218835.9224   17686449.02047
  13822190.57844                  23154404.1884                   23154402.4924
 11  8 29  3 14  0.0000000  0  9G12G21G29G26G05G15G25G02G18
 -22576403.65646 -17044871.34444  24486781.3204   24486780.3674   14318427.18846
  11185783.72743                  23635400.6564                   23635398.5864
 -15037262.07448  -9669095.78947  20358842.0944                   20358840.2114
  -7569699.11348  -5862606.71545  21176609.8444                   21176607.2194
 -28837358.17247 -22457645.96545  22591706.6644                   22591703.9344
   -146200.10548    -77946.72746  21303073.5944                   21303071.1844
 -13153777.71147  -9837999.19944  23222788.8524                   23222790.4804
 -50078840.05547 -39009020.85544  23212616.1884   23212612.2114   17530547.89847
  13700709.22744                  23124737.3134                   23124735.4614
 11  8 29  3 14 30.0000000  0  9G12G21G29G26G05G15G25G02G18
 -22574562.14146 -17043436.40243  24487131.6414   24487130.7734   14169554.51246
  11069779.09443                  23607071.3284                   23607068.2664
 -15155899.61348  -9761540.61747  20336266.2274                   20336264.2814
  -7677023.85948  -5946236.35945  21156186.5314                   21156184.3674
 -28841990.90247 -22461255.91845  22590824.6804                   22590822.0824
   -299672.59848   -197535.64546  21273868.9614                   21273866.6374
 -13166225.57847  -9847698.83644  23220420.8204                   23220421.0354
 -50111398.19947 -39034390.84044  23206420.4614   23206416.9414   17374902.32047
  13579426.99244                  23095119.0084                   23095117.4304
 11  8 29  3 15  0.0000000  0  9G12G21G29G26G05G15G25G02G18
 -22572837.14846 -17042092.25043  24487459.4694   24487458.7194   14020634.06346
  10953737.23843                  23578732.4384                   23578730.2544
 -15274049.05548  -9853605.11747  20313782.9224                   20313780.6174
  -7783684.17248  -6029348.27746  21135889.5314                   21135887.3404
 -28846537.11747 -22464798.45345  22589959.5784                   22589957.2934
   -452708.59448   -316784.43746  21244747.1724                   21244744.6844
 -13178529.38747  -9857286.21945  23218078.7424                   23218080.2304
 -50143809.60247 -39059646.48044  23200252.6724   23200249.4144   17219510.94947
  13458342.84044                  23065548.8054                   23065547.4774
 11  8 29  3 15 30.0000000  0  9G12G21G29G26G05G15G25G02G18
 -22571233.84846 -17040842.93443  24487763.7274   24487763.3484   13871663.43846
  10837656.27343                  23550384.0704                   23550381.6994
 -15391711.30148  -9945289.98047  20291392.7664                   20291390.6094
  -7889681.42648  -6111943.52346  21115718.7894                   21115716.8714
 -28851000.77347 -22468276.65245  22589110.0864                   22589107.7034
   -605308.42647   -435693.37146  21215708.0784                   21215706.2344
 -13190694.80947  -9866765.78145  23215764.2974                   23215765.0044
 -50176076.52047 -39084789.56244  23194112.6254   23194109.7934   17064371.80547
  13337455.22744                  23036027.1954                   23036025.1454
 11  8 29  3 16  0.0000000  0  9G12G21G29G26G05G15G25G02G18
 -22569752.66845 -17039688.82442  24488045.0394   24488044.7894   13722644.66446
  10721537.83243                  23522027.0314                   23522023.8404
 -15508882.64848 -10036592.32847  20269095.5864                   20269093.1254
  -7995012.39848  -6194019.59846  21095675.2114                   21095673.1724
 -28855382.24647 -22471690.80545  22588276.6484                   22588274.6914
   -757467.37147   -554258.75446  21186753.3594                   21186751.1914
 -13202722.95747  -9876138.37544  23213475.6024                   23213476.8364
 -50208196.47347 -39109818.10944  23188000.1884   23187996.7234   16909487.21547
  13216765.97344                  23006553.0084                   23006551.5204
 11  8 29  3 16 30.0000000  0  9G12G21G29G26G05G15G25G02G18
 -22568395.54745 -17038631.36742  24488303.6724   24488302.9804   13573578.10946
  10605382.13743                  23493660.6414                   23493658.2424
 -15625560.58248 -10127510.19547  20246892.6884                   20246890.3954
  -8099675.02048  -6275574.87546  21075758.5704                   21075756.9694
 -28859682.73447 -22475041.85945  22587457.8834                   22587455.9344
   -909182.43048   -672478.25446  21157882.7664                   21157880.8444
 -13214616.37147  -9885405.97744  23211211.5864                   23211213.0944
 -50240168.21147 -39134731.18444  23181916.4924   23181912.9734   16754857.97347
  13096275.71544                  22977128.2114                   22977126.1174
 11  8 29  3 17  0.0000000  0  9G12G21G29G26G05G15G25G02G18
 -22567166.35246 -17037673.56642  24488537.8754   24488537.5124   13424462.97746
  10489188.56343                  23465284.6724                   23465281.6174
 -15741745.18748 -10218043.64147  20224783.4694                   20224781.4224
  -8203669.50048  -6356609.52746  21055969.4614                   21055967.4144
 -28863905.24647 -22478332.13745  22586654.4614                   22586652.8524
  -1060452.82848   -790351.25446  21129097.3444                   21129094.6414
 -13226379.49247  -9894572.04744  23208973.0234                   23208974.6174
 -50271993.00447 -39159529.74244  23175859.9534   23175856.2464   16600483.26247
  12975983.75844                  22947751.9614                   22947749.6644
 11  8 29  3 17 30.0000000  0  9G12G21G29G26G05G15G25G02G18
 -20990646.35246 -15809216.42643  24788541.8054   24788539.3874   14850725.77746
  11600562.24243                  23736693.8524                   23736690.9924
 -14282009.41848  -9080587.17647  20502562.1024                   20502559.6644
  -6731569.73448  -5209518.77746  21336100.5164                   21336098.5274
 -27292630.35947 -21253962.10245  22885657.7584                   22885656.0594
    364151.05147    319729.72346  21400190.4454                   21400187.3484
 -11662593.64147  -8676037.65644  23506552.6724                   23506553.1724
 -48728247.73046 -37956611.37544  23469624.4454   23469621.2504   18021789.64547
  14083495.24644                  23218217.2814                   23218216.1094
 11  8 29  3 18  0.0000000  0  9G12G21G29G26G05G15G25G02G18
 -20989678.24246 -15808462.04343  24788724.8204   24788724.7274   14701515.76246
  11484294.77043                  23708300.1724                   23708296.4694
 -14397199.68448  -9170345.82047  20480642.2584                   20480639.6414
  -6834222.04748  -5289507.58646  21316566.0164                   21316563.9224
 -27296700.91047 -21257133.99245  22884883.2194                   22884880.9654
    213781.18448    202558.44546  21371575.5004                   21371572.3284
 -11674103.07047  -8685006.05944  23504361.7974                   23504362.6414
 -48759774.14846 -37981177.44544  23463625.8984   23463622.4344   17867926.87147
  13963602.21944                  23188938.4304                   23188936.7974
 11  8 29  3 18 30.0000000  0  9G12G21G29G26G05G15G25G02G18
 -20988846.66046 -15807814.01243  24788883.1724   24788882.4844   14552256.11347
  11367988.65244                  23679896.7584                   23679894.4414
 -14511892.41848  -9259716.77347  20458816.3674                   20458814.4264
  -6936203.46148  -5368973.60946  21297159.6024                   21297157.6214
 -27300700.92647 -21260250.90645  22884122.2194                   22884119.8204
     63862.70348     85738.89546  21343047.1024                   21343044.4414
 -11685492.56647  -8693881.01244  23502194.8204                   23502195.6024
 -48791153.19146 -38005628.70344  23457655.1954   23457650.9924   17714318.25047
  13843907.21944                  23159707.5704                   23159705.7424
 11  8 29  3 19  0.0000000  0  9G12G21G29G26G05G15G25G02G18
 -20988152.19546 -15807272.83243  24789014.7814   24789013.8634   14402948.82847
  11251645.38343                  23651483.8444                   23651480.8164
 -14626084.61748  -9348697.68447  20437086.5784                   20437084.5004
  -7037511.28948  -5447914.75046  21277881.4844                   21277879.3554
 -27304629.76647 -21263312.35245  22883375.1254                   22883371.9844
    -85599.92648    -30725.45346  21314605.0164                   21314603.2274
 -11696763.35247  -8702663.46144  23500050.3834                   23500051.5594
 -48822382.80946 -38029963.50044  23451711.8054   23451708.1024   17560965.99247
  13724412.00844                  23130525.1724                   23130523.3484
 11  8 29  3 19 30.0000000  0  9G12G21G29G26G05G15G25G02G18
 -20987595.81246 -15806839.30143  24789120.4304   24789120.9774   14253595.71946
  11135266.40644                  23623062.8284                   23623059.8554
 -14739773.01648  -9437286.03147  20415452.3524                   20415450.5634
  -7138142.62948  -5526328.77046  21258732.0704                   21258729.7114
 -27308487.63747 -21266318.51245  22882640.5084                   22882638.1844
   -234602.84048   -146831.58646  21286250.7274                   21286248.5004
 -11707916.96947  -8711354.61744  23497927.7974                   23497929.3244
 -48853460.56246 -38054180.01644  23445797.8984   23445795.3014   17407871.95347
  13605117.98844                  23101393.2114                   23101390.5984
 11  8 29  3 20  0.0000000  0  9G12G21G29G26G05G15G25G02G18
 -20987182.11747 -15806516.96543  24789199.4534   24789198.3284   14104194.39146
  11018849.86343                  23594633.0554                   23594630.0864
 -14852958.12948  -9525482.20747  20393913.9144                   20393911.3524
  -7238098.92648  -5604216.76246  21239710.9064                   21239708.9344
 -27312279.13347 -21269272.93745  22881919.3444                   22881916.9654
   -383145.76248   -262579.28546  21257983.3284                   21257981.8404
 -11718958.72747  -8719958.63344  23495826.3984                   23495828.2344
 -48884388.51246 -38078279.73444  23439912.2504   23439910.0084   17255034.02047
  13486023.54344                  23072308.7034                   23072306.3834
 11  8 29  3 20 30.0000000  0  8G21G29G26G05G15G25G02G18
  13954749.00046  10902399.00843  23566194.5864                   23566191.8554
 -14965634.58648  -9613282.02747  20372472.2114                   20372469.8834
  -7337375.12148  -5681574.82446  21220819.4304                   21220817.1054
 -27316002.10247 -21272173.98045  22881211.0004                   22881208.3554
   -531222.34848   -377963.60946  21229805.8754                   21229803.6294
 -11729887.82047  -8728474.82444  23493746.2034                   23493748.5704
 -48915162.06646 -38102259.17644  23434056.3594   23434053.6844   17102456.27347
  13367131.85244                  23043273.4534                   23043272.1844
 11  8 29  3 21  0.0000000  0  8G21G29G26G05G15G25G02G18
  13805256.47346  10785911.37943  23537747.1334                   23537744.3874
 -15077804.16448  -9700686.87947  20351127.1024                   20351125.0164
  -7435973.48848  -5758404.69945  21202056.8594                   21202054.5904
 -27319661.56247 -21275025.54345  22880514.1564                   22880511.9694
   -678833.17648   -492985.00446  21201716.7034                   21201714.7114
 -11740710.59847  -8736908.16444  23491686.7424                   23491689.3914
 -48945784.30546 -38126120.68744  23428229.0474   23428226.0084   16950135.53947
  13248440.41444                  23014287.5704                   23014285.7814
 11  8 29  3 21 30.0000000  0  8G21G29G26G05G15G25G02G18
  13655720.98847  10669390.28543  23509291.2664                   23509288.5824
 -15189461.12548  -9787692.28947  20329879.8524                   20329877.5314
  -7533889.00448  -5834702.49646  21183423.7974                   21183421.9694
 -27323255.11747 -21277825.74245  22879830.6254                   22879828.5824
   -825971.77748   -607638.42646  21173717.5314                   21173714.6994
 -11751425.84847  -8745257.71544  23489648.1564                   23489649.3794
 -48976250.46147 -38149860.58244  23422432.3754   23422429.1134   16798076.65647
  13129952.99244                  22985351.9224                   22985350.1724
 11  8 29  3 22  0.0000000  0  8G21G29G26G05G15G25G02G18
  13506140.76647  10552834.34043  23480826.6644                   23480824.3484
 -15300606.14148  -9874298.78947  20308729.3674                   20308727.1724
  -7631122.71148  -5910469.01246  21164920.9694                   21164918.9064
 -27326786.98047 -21280577.85945  22879158.5394                   22879156.5784
   -972638.32848   -721924.01646  21145807.2274                   21145805.0084
 -11762038.91047  -8753527.62544  23487628.1954                   23487629.6644
 -49006562.24247 -38173480.23044  23416664.0704   23416660.3874   16646277.51647
  13011667.96544                  22956465.9064                   22956463.8984
 11  8 29  3 22 30.0000000  0  8G21G29G26G05G15G25G02G18
  13356520.57846  10436247.23843  23452354.9144                   23452352.5744
 -15411233.09848  -9960501.60247  20287677.8204                   20287675.3324
  -7727669.23048  -5985700.04346  21146548.8594                   21146546.8594
 -27330254.58647 -21283279.89545  22878498.5864                   22878496.9384
  -1118825.79348   -835836.29746  21117988.5704                   21117986.1214
 -11772548.32447  -8761716.80144  23485628.3054                   23485629.3094
 -49036714.57447 -38196975.61744  23410926.2114   23410923.0354   16494742.83647
  12893589.03544                  22927629.6254                   22927628.0514
 11  8 29  3 23  0.0000000  0  8G21G29G26G05G15G25G02G18
  13206855.94946  10319625.50043  23423875.0234                   23423872.2584
 -15521345.37148 -10046303.37147  20266724.1804                   20266721.9024
  -7823532.57048  -6060398.74246  21128306.7504                   21128304.6174
 -27333664.12147 -21285936.66845  22877849.2194                   22877847.3094
  -1264536.51648   -949377.09046  21090261.0314                   21090258.2624
 -11782961.94947  -8769831.30544  23483647.1804                   23483647.7154
 -49066712.12147 -38220350.37944  23405218.0004   23405214.6054   16343468.09447
  12775712.66844                  22898843.3594                   22898841.2814
 11  8 29  3 23 30.0000000  0  8G21G29G26G05G15G25G02G18
  13057149.76246  10202971.35243  23395386.4774                   23395383.9884
 -15630938.74648 -10131700.80547  20245869.1644                   20245866.5274
  -7918708.99648  -6134562.16046  21110194.7894                   21110193.1414
 -27337014.30947 -21288547.21945  22877212.4844                   22877209.1994
  -1409765.01648  -1062542.13746  21062624.4384                   21062622.1054
 -11793279.80147  -8777871.20744  23481684.3284                   23481684.3874
 -49096551.43047 -38243601.84044  23399539.6484   23399536.6684   16192456.37147
  12658041.26244                  22870106.3204                   22870104.0084
 11  8 29  3 24  0.0000000  0  8G21G29G26G05G15G25G02G18
  12907396.84047  10086280.80143  23366889.6954                   23366887.4344
 -15740016.66848 -10216696.58247  20225112.3674                   20225109.7624
  -8013202.59048  -6208193.51646  21092213.4614                   21092211.2704
 -27340312.39147 -21291117.17245  22876584.2894                   22876582.2274
  -1554514.45348  -1175333.88346  21035079.7194                   21035077.5274
 -11803510.11347  -8785842.87544  23479737.0004                   23479738.6174
 -49126236.98047 -38266733.48044  23393890.7584   23393887.8244   16041702.50047
  12540570.79744                  22841419.0314                   22841416.3594
 11  8 29  3 24 30.0000000  0  8G21G29G26G05G15G25G02G18
  12757600.55946   9969556.44543  23338384.1724                   23338381.7544
 -15848575.25448 -10301287.67647  20204454.1174                   20204451.8404
  -8107009.89548  -6281290.09846  21074362.2424                   21074360.1374
 -27343557.43047 -21293645.79345  22875967.1094                   22875964.3014
  -1698779.55148  -1287748.22746  21007627.4304                   21007624.7384
 -11813653.12947  -8793746.51244  23477806.7664                   23477808.3284
 -49155765.68747 -38289742.87944  23388271.3914   23388268.6564   15891209.96947
  12423303.91844                  22812780.7814                   22812779.0744
 11  8 29  3 25  0.0000000  0  8G21G29G26G05G15G25G02G18
  12607759.39846   9852797.16843  23309870.5864                   23309867.7774
 -15956614.59848 -10385474.16847  20183895.0634                   20183893.1174
  -8200131.76648  -6353852.58245  21056642.0234                   21056639.3554
 -27346752.46547 -21296135.45345  22875359.1254                   22875356.7464
  -1842559.62948  -1399784.61746  20980267.2274                   20980264.2934
 -11823713.43047  -8801585.68444  23475892.3204                   23475893.6684
 -49185138.85947 -38312631.09044  23382682.9694   23382679.2114   15740976.88747
  12306239.21944                  22784192.4144                   22784190.5554
 11  8 29  3 25 30.0000000  0  8G21G29G26G05G15G25G02G18
  12457873.92646   9736003.32043  23281348.2344                   23281345.5354
 -16064132.74248 -10469254.53147  20163435.3834                   20163432.8914
  -8292567.21548  -6425880.18446  21039051.9304                   21039049.7504
 -27349899.17247 -21298587.43445  22874760.4304                   22874757.9494
  -1985851.96948  -1511440.96146  20952999.1484                   20952996.8444
 -11833693.78547  -8809362.59444  23473992.6954                   23473994.3874
 -49214355.66847 -38335397.46144  23377122.6484   23377118.9414   15591003.80547
  12189377.11744                  22755653.5704                   22755651.6254
 11  8 29  3 26  0.0000000  0  8G21G29G26G05G15G25G02G18
  12307944.12546   9619174.94543  23252817.5314                   23252814.6724
 -16171128.94148 -10552628.18747  20143074.3204                   20143072.2384
  -8384316.00847  -6497372.73446  21021592.9454                   21021590.8204
 -27352999.87947 -21301003.57845  22874170.1414                   22874168.0394
  -2128654.77348  -1622715.84846  20925824.9454                   20925822.1604
 -11843597.59847  -8817079.86344  23472108.7194                   23472110.1094
 -49243415.84047 -38358041.76244  23371592.8834   23371589.1054   15441290.63747
  12072717.53944                  22727164.8674                   22727162.7344
 11  8 29  3 26 30.0000000  0  8G21G29G26G05G15G25G02G18
  13733395.96546  10729916.62943  23524072.0234                   23524068.6884
 -14702177.12948  -9407990.39847  20422606.3204                   20422604.2814
  -6899953.33647  -5340726.48046  21304057.8444                   21304055.7934
 -25780634.60947 -20075783.88345  23173381.4694                   23173379.8794
   -695540.32048   -506003.25446  21198537.2194                   21198534.6484
 -10278006.68047  -7597138.88344  23770030.1644                   23770031.7424
 -47696897.20747 -37152962.37944  23665886.4064                   23665881.6484
  16867263.18847  13183865.04344  22998517.6644                   22998516.2154
 11  8 29  3 27  0.0000000  0  8G21G29G26G05G15G25G02G18
  13583374.97346  10613017.19143  23495523.8834                   23495521.1454
 -14808128.89848  -9490550.21547  20402444.6804                   20402442.3094
  -6990330.09047  -5411149.91046  21286859.7114                   21286857.7504
 -25783650.87147 -20078134.22345  23172807.3674                   23172805.5554
   -837361.17648   -616512.99246  21171549.1024                   21171547.0904
 -10287769.85547  -7604746.57444  23768172.7504                   23768174.1174
 -47725646.59447 -37175364.53944  23660414.7894                   23660410.8954
  16718066.37547  13067607.84444  22970125.9774                   22970124.1644
 11  8 29  3 27 30.0000000  0  8G21G29G26G05G15G25G02G18
  13433306.91846  10496081.08244  23466967.3834                   23466964.0474
 -14913558.27748  -9572702.97347  20382382.2894                   20382380.0164
  -7080021.61748  -5481039.39846  21269792.0234                   21269789.8284
 -25786629.21947 -20080455.03545  23172240.5634                   23172238.7234
   -978689.22748   -726638.72746  21144655.4224                   21144653.1954
 -10297469.00047  -7612304.35944  23766326.5784                   23766328.1604
 -47754241.69547 -37197646.46544  23654973.1174                   23654969.5904
  16569126.47347  12951550.80544  22941783.9304                   22941781.8284
 11  8 29  3 28  0.0000000  0  8G21G29G26G05G15G25G02G18
  13283195.35546  10379111.04344  23438401.3594                   23438398.6294
 -15018460.48448  -9654444.95347  20362419.7584                   20362417.2424
  -7169024.14848  -5550391.99646  21252854.6174                   21252852.5434
 -25789567.98847 -20082744.98845  23171681.3984                   23171679.5354
  -1119519.18048   -836376.32846  21117856.4774                   21117854.4694
 -10307103.66847  -7619811.93044  23764492.9144                   23764494.8244
 -47782678.63747 -37219805.16444  23649561.6564                   23649558.6334
  16420447.19947  12835696.89844  22913491.0784                   22913488.7624
 11  8 29  3 28 30.0000000  0  8G21G29G26G05G15G25G02G18
  13133037.70346  10262105.11344  23409827.9224                   23409824.5664
 -15122837.66448  -9735777.81647  20342557.6334                   20342554.9734
  -7257340.61748  -5619210.00045  21236049.4224                   21236046.8094
 -25792472.45747 -20085008.21145  23171129.1644                   23171127.0904
  -1259852.01648   -945726.55946  21091152.2734                   21091149.5704
 -10316680.40247  -7627274.37544  23762670.8984                   23762672.2734
 -47810960.87946 -37241843.29344  23644179.3134                   23644176.8834
  16272024.59047  12720042.98044  22885247.7584                   22885245.5394
 11  8 29  3 29  0.0000000  0  8G21G29G26G05G15G25G02G18
  12982838.11346  10145066.49244  23381245.4774                   23381242.8834
 -15226684.14848  -9816697.16447  20322796.1334                   20322794.1134
  -7344966.21548  -5687489.67245  21219374.3984                   21219372.4024
 -25795340.18447 -20087242.78945  23170582.6884                   23170581.2584
  -1399681.50448  -1054684.57446  21064543.6024                   21064540.8754
 -10326197.84047  -7634690.60944  23760859.8674                   23760860.7194
 -47839083.45747 -37263757.02344  23638827.8984                   23638825.4104
  16123863.16447  12604592.59044  22857053.6414                   22857051.0594
 11  8 29  3 29 30.0000000  0  8G21G29G26G05G15G25G02G18
  12832593.73047  10027992.97743  23352654.5634                   23352652.1644
 -15330001.50048  -9897204.18447  20303135.6724                   20303133.3484
  -7431902.95347  -5755232.55946  21202831.0474                   21202828.8594
 -25798175.05547 -20089451.77345  23170043.4924                   23170041.3754
  -1539008.10548  -1163250.72346  21038030.4694                   21038027.9884
 -10335661.55547  -7642064.98444  23759059.1174                   23759060.3984
 -47867048.39846 -37285547.93044  23633506.9224                   23633504.1684
  15975960.64847  12489343.95744  22828907.9534                   22828905.6294
 11  8 29  3 30  0.0000000  0  8G21G29G26G05G15G25G02G18
  12682304.67247   9910884.65244  23324055.7894                   23324053.1844
 -15432789.49648  -9977298.72747  20283575.5004                   20283573.2234
  -7518151.51248  -5822439.21545  21186418.3984                   21186416.0984
 -25800979.79347 -20091637.28545  23169510.0634                   23169508.0704
  -1677830.52348  -1271424.00446  21011613.5554                   21011610.6524
 -10345075.48047  -7649400.55944  23757267.4064                   23757269.3094
 -47894856.38346 -37307216.50844  23628214.8204                   23628212.4884
  15828316.17647  12374296.37944  22800812.5004                   22800810.4104
 11  8 29  3 30 30.0000000  0  8G21G29G26G05G15G25G02G18
  12531975.43847   9793745.02744  23295449.3524                   23295446.2814
 -15535042.64148 -10056976.50847  20264117.4694                   20264115.1024
  -7603707.47748  -5889106.18446  21170137.3674                   21170135.3444
 -25803751.93447 -20093797.39545  23168982.5084                   23168980.1174
  -1816142.67648  -1379199.67646  20985293.6254                   20985291.1914
 -10354438.51246  -7656696.44944  23755485.7734                   23755487.7344
 -47922503.03946 -37328759.38744  23622953.7974                   23622951.5474
  15680933.60947  12259452.84844  22772766.4614                   22772764.2974
 11  8 29  3 31  0.0000000  0  8G21G29G26G05G15G25G02G18
  12381604.94147   9676573.25044  23266834.4534                   23266831.7814
 -15636761.56248 -10136238.01247  20244761.1334                   20244758.5744
  -7688571.78148  -5955234.20746  21153988.6564                   21153986.2234
 -25806494.73847 -20095934.63344  23168460.7734                   23168458.0514
  -1953943.93048  -1486577.25046  20959070.3364                   20959068.1604
 -10363755.13746  -7663956.18744  23753712.6254                   23753714.5554
 -47949989.29346 -37350177.28143  23617723.6884                   23617720.9454
  15533811.59047  12144812.37944  22744770.0004                   22744767.8914
 11  8 29  3 31 30.0000000  0  8G21G29G26G05G15G25G02G18
  12231191.50447   9559368.02344  23238211.7194                   23238208.5704
 -15737946.57848 -10215083.48047  20225506.2734                   20225503.8244
  -7772746.02048  -6020824.49646  21137970.5944                   21137968.8054
 -25809211.11347 -20098051.28145  23167943.0314                   23167941.1764
  -2091234.15648  -1593556.61346  20932945.2814                   20932942.6914
 -10373029.97747  -7671183.35944  23751948.0004                   23751949.9224
 -47977316.51246 -37371471.24243  23612522.9694                   23612519.6564
  15386948.59847  12030373.75044  22716822.6174                   22716820.2384
 11  8 29  3 32  0.0000000  0  8G21G29G26G05G15G25G02G18
  12080734.47747   9442128.83244  23209580.4924                   23209577.9264
 -15838597.94948 -10293513.12547  20206352.8984                   20206350.7274
  -7856231.21948  -6085877.88746  21122083.9224                   21122082.1094
 -25811904.11347 -20100149.70344  23167430.7584                   23167428.4104
  -2228012.22748  -1700136.90646  20906917.0864                   20906914.6524
 -10382267.16447  -7678381.19544  23750191.0784                   23750191.4304
 -48004485.52046 -37392641.94144  23607352.3594                   23607348.9774
  15240343.75047  11916136.26644  22688924.1804                   22688922.5124
 11  8 29  3 32 30.0000000  0  8G21G29G26G05G15G25G02G18
  11930235.07047   9324856.59044  23180941.5864                   23180939.0984
 -15938713.45748 -10371525.21147  20187301.1804                   20187298.9574
  -7939026.00848  -6150393.30545  21106328.4454                   21106326.9144
 -25814574.44147 -20102230.48844  23166922.5004                   23166920.2384
  -2364275.14148  -1806315.76646  20880987.3674                   20880985.0784
 -10391468.65647  -7685551.21544  23748439.7194                   23748440.9614
 -48031494.85246 -37413688.23043  23602213.6884                   23602210.2814
  15093997.37947  11802100.18044  22661075.7974                   22661073.5124
 11  8 29  3 33  0.0000000  0  8G21G29G26G05G15G25G02G18
  11779698.13747   9207555.13744  23152295.4534                   23152292.5084
 -16038287.83248 -10449115.64147  20168353.3834                   20168350.7304
  -8021125.85948  -6214367.21946  21090705.3834                   21090703.6254
 -25817219.10947 -20104291.28144  23166419.7114                   23166417.3984
  -2500016.80548  -1912088.45346  20855156.9304                   20855154.2154
 -10400633.30147  -7692692.48844  23746695.1414                   23746697.5084
 -48058340.10547 -37434606.62544  23597105.7584                   23597102.5784
  14947914.17247  11688269.17244  22633276.6254                   22633275.2194
 11  8 29  3 33 30.0000000  0  8G21G29G26G05G15G25G02G18
  11629119.39147   9090221.10244  23123640.9614                   23123638.6054
 -16137324.21948 -10526286.85247  20149507.1414                   20149505.4184
  -8102534.98848  -6277802.90245  21075214.0084                   21075211.6994
 -25819844.37147 -20106336.93044  23165919.7734                   23165917.8324
  -2635239.77348  -2017456.96546  20829424.2344                   20829421.8244
 -10409768.28147  -7699810.66444  23744956.7584                   23744958.6454
 -48085025.37546 -37455400.34444  23592027.2504                   23592024.1954
  14802089.97747  11574640.00044  22605527.7114                   22605525.6684
 11  8 29  3 34  0.0000000  0  8G21G29G26G05G15G25G02G18
  11478501.85947   8972856.82445  23094979.6644                   23094976.3874
 -16235818.60548 -10603035.72747  20130764.4614                   20130762.4494
  -8183250.65248  -6340698.21546  21059854.3594                   21059852.1914
 -25822448.98847 -20108366.49645  23165424.4694                   23165422.7344
  -2769939.20748  -2122417.52346  20803792.1484                   20803789.2624
 -10418873.87547  -7706905.94544  23743224.3834                   23743225.7424
 -48111547.25847 -37476066.77744  23586980.9454                   23586978.0944
  14656527.19548  11461214.53945  22577827.9454                   22577825.3794
 11  8 29  3 34 30.0000000  0  8G21G29G26G05G15G25G02G18
  11327843.80547   8855460.99245  23066310.5004                   23066307.6804
 -16333773.46548 -10679364.18047  20112124.0944                   20112122.0314
  -8263275.60948  -6403055.32046  21044626.3284                   21044624.2304
 -25825037.20747 -20110383.28944  23164931.9304                   23164930.1644
  -2904116.06648  -2226970.89146  20778258.4774                   20778256.1844
 -10427955.80147  -7713982.76244  23741495.3674                   23741497.7504
 -48137908.25047 -37496607.80144  23581963.8204                   23581961.3634
  14511223.01247  11347990.58645  22550177.3284                   22550175.3054
 11  8 29  3 35  0.0000000  0  8G21G29G26G05G15G25G02G18
  11177144.94547   8738033.34444  23037633.4304                   23037630.1764
 -16431187.96948 -10755271.59047  20093586.8444                   20093584.5274
  -8342609.85248  -6464874.18046  21029529.4694                   21029526.9064
 -25827611.03947 -20112388.87544  23164442.1644                   23164440.3164
  -3037768.55948  -2331115.65646  20752825.2814                   20752823.1214
 -10437017.26247  -7721043.64144  23739771.9384                   23739773.7274
 -48164108.46547 -37517023.55144  23576978.5554                   23576975.2234
  14366177.17247  11234967.94145  22522576.0164                   22522574.1644
